<?xml version="1.0" encoding="UTF-8" standalone="no" ?>
<gpx xmlns="http://www.topografix.com/GPX/1/1" xmlns:xsi="http://www.w3.org/2001/XMLSchema-instance" xsi:schemaLocation="http://www.topografix.com/GPX/1/1 http://www.topografix.com/GPX/1/1/gpx.xsd" version="1.1" creator="VisuGPX - https://www.visugpx.com">
  <metadata>
    <name>SRN vers les Bouillouses</name>
    <desc><![CDATA[Départ du gîte et retour à cause du vent très fort.
Belle balade à (re)faire par beau temps.
Avec #Catherine]]></desc>
  </metadata>
  <trk>
    <name><![CDATA[2 janv. 2021]]></name>
    <cmt><![CDATA[09:42:27]]></cmt>
    <desc><![CDATA[comment ...]]></desc>
    <trkseg>
      <trkpt lat="42.48703" lon="1.94647">
        <ele>1382</ele>
        <time>2021-01-02T08:42:26Z</time>
      </trkpt>
      <trkpt lat="42.48703" lon="1.94646">
        <ele>1382</ele>
        <time>2021-01-02T08:42:27Z</time>
      </trkpt>
      <trkpt lat="42.48702" lon="1.94645">
        <ele>1382</ele>
        <time>2021-01-02T08:42:32Z</time>
      </trkpt>
      <trkpt lat="42.48701" lon="1.94643">
        <ele>1385</ele>
        <time>2021-01-02T08:42:38Z</time>
      </trkpt>
      <trkpt lat="42.48698" lon="1.94639">
        <ele>1385</ele>
        <time>2021-01-02T08:42:55Z</time>
      </trkpt>
      <trkpt lat="42.48696" lon="1.94634">
        <ele>1384</ele>
        <time>2021-01-02T08:43:01Z</time>
      </trkpt>
      <trkpt lat="42.48694" lon="1.94633">
        <ele>1383</ele>
        <time>2021-01-02T08:43:02Z</time>
      </trkpt>
      <trkpt lat="42.48693" lon="1.94629">
        <ele>1383</ele>
        <time>2021-01-02T08:43:04Z</time>
      </trkpt>
      <trkpt lat="42.48695" lon="1.94628">
        <ele>1383</ele>
        <time>2021-01-02T08:43:06Z</time>
      </trkpt>
      <trkpt lat="42.48697" lon="1.94629">
        <ele>1384</ele>
        <time>2021-01-02T08:43:11Z</time>
      </trkpt>
      <trkpt lat="42.48699" lon="1.94631">
        <ele>1384</ele>
        <time>2021-01-02T08:43:13Z</time>
      </trkpt>
      <trkpt lat="42.48701" lon="1.94628">
        <ele>1384</ele>
        <time>2021-01-02T08:43:16Z</time>
      </trkpt>
      <trkpt lat="42.48699" lon="1.94627">
        <ele>1384</ele>
        <time>2021-01-02T08:43:17Z</time>
      </trkpt>
      <trkpt lat="42.48697" lon="1.94627">
        <ele>1384</ele>
        <time>2021-01-02T08:43:22Z</time>
      </trkpt>
      <trkpt lat="42.48698" lon="1.94629">
        <ele>1383</ele>
        <time>2021-01-02T08:43:26Z</time>
      </trkpt>
      <trkpt lat="42.48695" lon="1.94631">
        <ele>1383</ele>
        <time>2021-01-02T08:43:29Z</time>
      </trkpt>
      <trkpt lat="42.48695" lon="1.94633">
        <ele>1382</ele>
        <time>2021-01-02T08:43:31Z</time>
      </trkpt>
      <trkpt lat="42.48696" lon="1.94633">
        <ele>1381</ele>
        <time>2021-01-02T08:43:41Z</time>
      </trkpt>
      <trkpt lat="42.48698" lon="1.94633">
        <ele>1381</ele>
        <time>2021-01-02T08:43:44Z</time>
      </trkpt>
      <trkpt lat="42.48701" lon="1.9463">
        <ele>1381</ele>
        <time>2021-01-02T08:43:53Z</time>
      </trkpt>
      <trkpt lat="42.48706" lon="1.94622">
        <ele>1380</ele>
        <time>2021-01-02T08:44:01Z</time>
      </trkpt>
      <trkpt lat="42.48719" lon="1.94613">
        <ele>1379</ele>
        <time>2021-01-02T08:44:16Z</time>
      </trkpt>
      <trkpt lat="42.4872" lon="1.9461">
        <ele>1379</ele>
        <time>2021-01-02T08:44:20Z</time>
      </trkpt>
      <trkpt lat="42.48727" lon="1.94606">
        <ele>1377</ele>
        <time>2021-01-02T08:44:31Z</time>
      </trkpt>
      <trkpt lat="42.48728" lon="1.94603">
        <ele>1376</ele>
        <time>2021-01-02T08:44:37Z</time>
      </trkpt>
      <trkpt lat="42.4873" lon="1.94597">
        <ele>1375</ele>
        <time>2021-01-02T08:44:40Z</time>
      </trkpt>
      <trkpt lat="42.48732" lon="1.94593">
        <ele>1375</ele>
        <time>2021-01-02T08:44:41Z</time>
      </trkpt>
      <trkpt lat="42.48731" lon="1.94573">
        <ele>1373</ele>
        <time>2021-01-02T08:44:53Z</time>
      </trkpt>
      <trkpt lat="42.48727" lon="1.94557">
        <ele>1372</ele>
        <time>2021-01-02T08:45:03Z</time>
      </trkpt>
      <trkpt lat="42.48725" lon="1.94555">
        <ele>1371</ele>
        <time>2021-01-02T08:45:05Z</time>
      </trkpt>
      <trkpt lat="42.48725" lon="1.94552">
        <ele>1371</ele>
        <time>2021-01-02T08:45:08Z</time>
      </trkpt>
      <trkpt lat="42.48725" lon="1.94549">
        <ele>1371</ele>
        <time>2021-01-02T08:45:10Z</time>
      </trkpt>
      <trkpt lat="42.48726" lon="1.94546">
        <ele>1371</ele>
        <time>2021-01-02T08:45:12Z</time>
      </trkpt>
      <trkpt lat="42.48724" lon="1.94542">
        <ele>1370</ele>
        <time>2021-01-02T08:45:15Z</time>
      </trkpt>
      <trkpt lat="42.48724" lon="1.94531">
        <ele>1369</ele>
        <time>2021-01-02T08:45:21Z</time>
      </trkpt>
      <trkpt lat="42.48723" lon="1.94528">
        <ele>1369</ele>
        <time>2021-01-02T08:45:23Z</time>
      </trkpt>
      <trkpt lat="42.48722" lon="1.94514">
        <ele>1368</ele>
        <time>2021-01-02T08:45:31Z</time>
      </trkpt>
      <trkpt lat="42.48722" lon="1.9451">
        <ele>1368</ele>
        <time>2021-01-02T08:45:33Z</time>
      </trkpt>
      <trkpt lat="42.4872" lon="1.94508">
        <ele>1369</ele>
        <time>2021-01-02T08:45:35Z</time>
      </trkpt>
      <trkpt lat="42.48717" lon="1.94502">
        <ele>1369</ele>
        <time>2021-01-02T08:45:41Z</time>
      </trkpt>
      <trkpt lat="42.48716" lon="1.945">
        <ele>1370</ele>
        <time>2021-01-02T08:45:43Z</time>
      </trkpt>
      <trkpt lat="42.48714" lon="1.94484">
        <ele>1373</ele>
        <time>2021-01-02T08:45:51Z</time>
      </trkpt>
      <trkpt lat="42.48714" lon="1.94482">
        <ele>1373</ele>
        <time>2021-01-02T08:45:53Z</time>
      </trkpt>
      <trkpt lat="42.48713" lon="1.9448">
        <ele>1374</ele>
        <time>2021-01-02T08:45:55Z</time>
      </trkpt>
      <trkpt lat="42.48713" lon="1.94476">
        <ele>1374</ele>
        <time>2021-01-02T08:45:57Z</time>
      </trkpt>
      <trkpt lat="42.48712" lon="1.94474">
        <ele>1374</ele>
        <time>2021-01-02T08:45:59Z</time>
      </trkpt>
      <trkpt lat="42.48712" lon="1.94455">
        <ele>1375</ele>
        <time>2021-01-02T08:46:10Z</time>
      </trkpt>
      <trkpt lat="42.48711" lon="1.94445">
        <ele>1376</ele>
        <time>2021-01-02T08:46:16Z</time>
      </trkpt>
      <trkpt lat="42.48711" lon="1.94443">
        <ele>1376</ele>
        <time>2021-01-02T08:46:18Z</time>
      </trkpt>
      <trkpt lat="42.48711" lon="1.94439">
        <ele>1377</ele>
        <time>2021-01-02T08:46:21Z</time>
      </trkpt>
      <trkpt lat="42.48711" lon="1.94436">
        <ele>1377</ele>
        <time>2021-01-02T08:46:23Z</time>
      </trkpt>
      <trkpt lat="42.48708" lon="1.94431">
        <ele>1377</ele>
        <time>2021-01-02T08:46:27Z</time>
      </trkpt>
      <trkpt lat="42.48706" lon="1.94424">
        <ele>1376</ele>
        <time>2021-01-02T08:46:33Z</time>
      </trkpt>
      <trkpt lat="42.48705" lon="1.94421">
        <ele>1376</ele>
        <time>2021-01-02T08:46:35Z</time>
      </trkpt>
      <trkpt lat="42.48704" lon="1.94404">
        <ele>1373</ele>
        <time>2021-01-02T08:46:45Z</time>
      </trkpt>
      <trkpt lat="42.48703" lon="1.94402">
        <ele>1373</ele>
        <time>2021-01-02T08:46:47Z</time>
      </trkpt>
      <trkpt lat="42.48702" lon="1.94398">
        <ele>1372</ele>
        <time>2021-01-02T08:46:49Z</time>
      </trkpt>
      <trkpt lat="42.48703" lon="1.94396">
        <ele>1372</ele>
        <time>2021-01-02T08:46:51Z</time>
      </trkpt>
      <trkpt lat="42.48702" lon="1.94393">
        <ele>1371</ele>
        <time>2021-01-02T08:46:53Z</time>
      </trkpt>
      <trkpt lat="42.48701" lon="1.9439">
        <ele>1370</ele>
        <time>2021-01-02T08:46:55Z</time>
      </trkpt>
      <trkpt lat="42.487" lon="1.94387">
        <ele>1369</ele>
        <time>2021-01-02T08:46:58Z</time>
      </trkpt>
      <trkpt lat="42.487" lon="1.94384">
        <ele>1368</ele>
        <time>2021-01-02T08:47:01Z</time>
      </trkpt>
      <trkpt lat="42.48699" lon="1.94381">
        <ele>1367</ele>
        <time>2021-01-02T08:47:04Z</time>
      </trkpt>
      <trkpt lat="42.48699" lon="1.94379">
        <ele>1367</ele>
        <time>2021-01-02T08:47:06Z</time>
      </trkpt>
      <trkpt lat="42.48698" lon="1.94376">
        <ele>1366</ele>
        <time>2021-01-02T08:47:09Z</time>
      </trkpt>
      <trkpt lat="42.48696" lon="1.94373">
        <ele>1366</ele>
        <time>2021-01-02T08:47:11Z</time>
      </trkpt>
      <trkpt lat="42.48694" lon="1.94371">
        <ele>1365</ele>
        <time>2021-01-02T08:47:13Z</time>
      </trkpt>
      <trkpt lat="42.48693" lon="1.94368">
        <ele>1365</ele>
        <time>2021-01-02T08:47:16Z</time>
      </trkpt>
      <trkpt lat="42.48693" lon="1.94365">
        <ele>1364</ele>
        <time>2021-01-02T08:47:18Z</time>
      </trkpt>
      <trkpt lat="42.48693" lon="1.94362">
        <ele>1363</ele>
        <time>2021-01-02T08:47:21Z</time>
      </trkpt>
      <trkpt lat="42.48692" lon="1.94359">
        <ele>1362</ele>
        <time>2021-01-02T08:47:23Z</time>
      </trkpt>
      <trkpt lat="42.48691" lon="1.94357">
        <ele>1361</ele>
        <time>2021-01-02T08:47:26Z</time>
      </trkpt>
      <trkpt lat="42.48689" lon="1.94348">
        <ele>1357</ele>
        <time>2021-01-02T08:47:34Z</time>
      </trkpt>
      <trkpt lat="42.48687" lon="1.94342">
        <ele>1356</ele>
        <time>2021-01-02T08:47:39Z</time>
      </trkpt>
      <trkpt lat="42.48684" lon="1.94335">
        <ele>1356</ele>
        <time>2021-01-02T08:47:44Z</time>
      </trkpt>
      <trkpt lat="42.48685" lon="1.94332">
        <ele>1356</ele>
        <time>2021-01-02T08:47:47Z</time>
      </trkpt>
      <trkpt lat="42.48687" lon="1.94329">
        <ele>1356</ele>
        <time>2021-01-02T08:47:53Z</time>
      </trkpt>
      <trkpt lat="42.48697" lon="1.94334">
        <ele>1358</ele>
        <time>2021-01-02T08:48:06Z</time>
      </trkpt>
      <trkpt lat="42.48699" lon="1.94334">
        <ele>1359</ele>
        <time>2021-01-02T08:48:09Z</time>
      </trkpt>
      <trkpt lat="42.48702" lon="1.94335">
        <ele>1359</ele>
        <time>2021-01-02T08:48:12Z</time>
      </trkpt>
      <trkpt lat="42.48706" lon="1.9434">
        <ele>1361</ele>
        <time>2021-01-02T08:48:19Z</time>
      </trkpt>
      <trkpt lat="42.48722" lon="1.94349">
        <ele>1366</ele>
        <time>2021-01-02T08:48:32Z</time>
      </trkpt>
      <trkpt lat="42.48728" lon="1.9435">
        <ele>1367</ele>
        <time>2021-01-02T08:48:37Z</time>
      </trkpt>
      <trkpt lat="42.48731" lon="1.9435">
        <ele>1367</ele>
        <time>2021-01-02T08:48:40Z</time>
      </trkpt>
      <trkpt lat="42.48733" lon="1.9435">
        <ele>1368</ele>
        <time>2021-01-02T08:48:42Z</time>
      </trkpt>
      <trkpt lat="42.48736" lon="1.94351">
        <ele>1368</ele>
        <time>2021-01-02T08:48:46Z</time>
      </trkpt>
      <trkpt lat="42.48736" lon="1.94348">
        <ele>1368</ele>
        <time>2021-01-02T08:48:50Z</time>
      </trkpt>
      <trkpt lat="42.48762" lon="1.94331">
        <ele>1367</ele>
        <time>2021-01-02T08:49:20Z</time>
      </trkpt>
      <trkpt lat="42.48765" lon="1.94331">
        <ele>1368</ele>
        <time>2021-01-02T08:49:25Z</time>
      </trkpt>
      <trkpt lat="42.48768" lon="1.94332">
        <ele>1369</ele>
        <time>2021-01-02T08:49:30Z</time>
      </trkpt>
      <trkpt lat="42.48771" lon="1.94338">
        <ele>1373</ele>
        <time>2021-01-02T08:49:35Z</time>
      </trkpt>
      <trkpt lat="42.48771" lon="1.94342">
        <ele>1374</ele>
        <time>2021-01-02T08:49:40Z</time>
      </trkpt>
      <trkpt lat="42.48773" lon="1.94344">
        <ele>1377</ele>
        <time>2021-01-02T08:49:44Z</time>
      </trkpt>
      <trkpt lat="42.48782" lon="1.94352">
        <ele>1379</ele>
        <time>2021-01-02T08:49:54Z</time>
      </trkpt>
      <trkpt lat="42.48788" lon="1.94356">
        <ele>1381</ele>
        <time>2021-01-02T08:49:59Z</time>
      </trkpt>
      <trkpt lat="42.48791" lon="1.94357">
        <ele>1382</ele>
        <time>2021-01-02T08:50:02Z</time>
      </trkpt>
      <trkpt lat="42.48794" lon="1.94359">
        <ele>1381</ele>
        <time>2021-01-02T08:50:04Z</time>
      </trkpt>
      <trkpt lat="42.48799" lon="1.94358">
        <ele>1380</ele>
        <time>2021-01-02T08:50:12Z</time>
      </trkpt>
      <trkpt lat="42.48801" lon="1.94359">
        <ele>1381</ele>
        <time>2021-01-02T08:50:14Z</time>
      </trkpt>
      <trkpt lat="42.48816" lon="1.94366">
        <ele>1384</ele>
        <time>2021-01-02T08:50:33Z</time>
      </trkpt>
      <trkpt lat="42.4883" lon="1.94379">
        <ele>1386</ele>
        <time>2021-01-02T08:50:49Z</time>
      </trkpt>
      <trkpt lat="42.48836" lon="1.94394">
        <ele>1388</ele>
        <time>2021-01-02T08:51:05Z</time>
      </trkpt>
      <trkpt lat="42.48843" lon="1.944">
        <ele>1389</ele>
        <time>2021-01-02T08:51:14Z</time>
      </trkpt>
      <trkpt lat="42.48845" lon="1.94402">
        <ele>1389</ele>
        <time>2021-01-02T08:51:18Z</time>
      </trkpt>
      <trkpt lat="42.48847" lon="1.94409">
        <ele>1390</ele>
        <time>2021-01-02T08:51:25Z</time>
      </trkpt>
      <trkpt lat="42.48849" lon="1.94416">
        <ele>1391</ele>
        <time>2021-01-02T08:51:32Z</time>
      </trkpt>
      <trkpt lat="42.48851" lon="1.94426">
        <ele>1392</ele>
        <time>2021-01-02T08:51:41Z</time>
      </trkpt>
      <trkpt lat="42.48851" lon="1.9443">
        <ele>1393</ele>
        <time>2021-01-02T08:51:46Z</time>
      </trkpt>
      <trkpt lat="42.48849" lon="1.94443">
        <ele>1394</ele>
        <time>2021-01-02T08:51:58Z</time>
      </trkpt>
      <trkpt lat="42.48848" lon="1.94445">
        <ele>1395</ele>
        <time>2021-01-02T08:52:00Z</time>
      </trkpt>
      <trkpt lat="42.48847" lon="1.94452">
        <ele>1395</ele>
        <time>2021-01-02T08:52:06Z</time>
      </trkpt>
      <trkpt lat="42.48847" lon="1.94455">
        <ele>1396</ele>
        <time>2021-01-02T08:52:08Z</time>
      </trkpt>
      <trkpt lat="42.48847" lon="1.94458">
        <ele>1396</ele>
        <time>2021-01-02T08:52:11Z</time>
      </trkpt>
      <trkpt lat="42.48852" lon="1.94473">
        <ele>1398</ele>
        <time>2021-01-02T08:52:20Z</time>
      </trkpt>
      <trkpt lat="42.48858" lon="1.94478">
        <ele>1399</ele>
        <time>2021-01-02T08:52:24Z</time>
      </trkpt>
      <trkpt lat="42.48881" lon="1.94508">
        <ele>1406</ele>
        <time>2021-01-02T08:52:55Z</time>
      </trkpt>
      <trkpt lat="42.48883" lon="1.94509">
        <ele>1407</ele>
        <time>2021-01-02T08:52:57Z</time>
      </trkpt>
      <trkpt lat="42.48884" lon="1.94513">
        <ele>1409</ele>
        <time>2021-01-02T08:53:00Z</time>
      </trkpt>
      <trkpt lat="42.48886" lon="1.94514">
        <ele>1410</ele>
        <time>2021-01-02T08:53:03Z</time>
      </trkpt>
      <trkpt lat="42.48889" lon="1.94515">
        <ele>1411</ele>
        <time>2021-01-02T08:53:05Z</time>
      </trkpt>
      <trkpt lat="42.48896" lon="1.94514">
        <ele>1417</ele>
        <time>2021-01-02T08:53:14Z</time>
      </trkpt>
      <trkpt lat="42.4891" lon="1.94498">
        <ele>1423</ele>
        <time>2021-01-02T08:53:33Z</time>
      </trkpt>
      <trkpt lat="42.48911" lon="1.94497">
        <ele>1424</ele>
        <time>2021-01-02T08:53:36Z</time>
      </trkpt>
      <trkpt lat="42.48914" lon="1.94497">
        <ele>1424</ele>
        <time>2021-01-02T08:53:39Z</time>
      </trkpt>
      <trkpt lat="42.48916" lon="1.94497">
        <ele>1424</ele>
        <time>2021-01-02T08:53:43Z</time>
      </trkpt>
      <trkpt lat="42.48917" lon="1.94495">
        <ele>1425</ele>
        <time>2021-01-02T08:53:48Z</time>
      </trkpt>
      <trkpt lat="42.48915" lon="1.94493">
        <ele>1428</ele>
        <time>2021-01-02T08:54:34Z</time>
      </trkpt>
      <trkpt lat="42.48915" lon="1.9449">
        <ele>1428</ele>
        <time>2021-01-02T08:55:37Z</time>
      </trkpt>
      <trkpt lat="42.48914" lon="1.94486">
        <ele>1429</ele>
        <time>2021-01-02T08:55:39Z</time>
      </trkpt>
      <trkpt lat="42.48912" lon="1.94483">
        <ele>1430</ele>
        <time>2021-01-02T08:55:42Z</time>
      </trkpt>
      <trkpt lat="42.4891" lon="1.94483">
        <ele>1430</ele>
        <time>2021-01-02T08:55:44Z</time>
      </trkpt>
      <trkpt lat="42.48911" lon="1.9448">
        <ele>1430</ele>
        <time>2021-01-02T08:55:50Z</time>
      </trkpt>
      <trkpt lat="42.48917" lon="1.94471">
        <ele>1431</ele>
        <time>2021-01-02T08:56:02Z</time>
      </trkpt>
      <trkpt lat="42.48943" lon="1.94508">
        <ele>1433</ele>
        <time>2021-01-02T08:56:31Z</time>
      </trkpt>
      <trkpt lat="42.48946" lon="1.94509">
        <ele>1434</ele>
        <time>2021-01-02T08:56:33Z</time>
      </trkpt>
      <trkpt lat="42.48951" lon="1.94513">
        <ele>1434</ele>
        <time>2021-01-02T08:56:37Z</time>
      </trkpt>
      <trkpt lat="42.48962" lon="1.94517">
        <ele>1433</ele>
        <time>2021-01-02T08:56:44Z</time>
      </trkpt>
      <trkpt lat="42.48991" lon="1.94509">
        <ele>1433</ele>
        <time>2021-01-02T08:57:09Z</time>
      </trkpt>
      <trkpt lat="42.49004" lon="1.94504">
        <ele>1437</ele>
        <time>2021-01-02T08:57:20Z</time>
      </trkpt>
      <trkpt lat="42.49022" lon="1.94497">
        <ele>1442</ele>
        <time>2021-01-02T08:57:37Z</time>
      </trkpt>
      <trkpt lat="42.4903" lon="1.94493">
        <ele>1443</ele>
        <time>2021-01-02T08:57:43Z</time>
      </trkpt>
      <trkpt lat="42.49047" lon="1.9449">
        <ele>1447</ele>
        <time>2021-01-02T08:58:03Z</time>
      </trkpt>
      <trkpt lat="42.49049" lon="1.94491">
        <ele>1447</ele>
        <time>2021-01-02T08:58:07Z</time>
      </trkpt>
      <trkpt lat="42.49054" lon="1.94493">
        <ele>1448</ele>
        <time>2021-01-02T08:58:14Z</time>
      </trkpt>
      <trkpt lat="42.49058" lon="1.94495">
        <ele>1448</ele>
        <time>2021-01-02T08:58:20Z</time>
      </trkpt>
      <trkpt lat="42.49082" lon="1.94497">
        <ele>1450</ele>
        <time>2021-01-02T08:58:50Z</time>
      </trkpt>
      <trkpt lat="42.49091" lon="1.94498">
        <ele>1450</ele>
        <time>2021-01-02T08:58:57Z</time>
      </trkpt>
      <trkpt lat="42.4913" lon="1.9449">
        <ele>1452</ele>
        <time>2021-01-02T08:59:29Z</time>
      </trkpt>
      <trkpt lat="42.49149" lon="1.94482">
        <ele>1454</ele>
        <time>2021-01-02T08:59:48Z</time>
      </trkpt>
      <trkpt lat="42.4915" lon="1.94479">
        <ele>1454</ele>
        <time>2021-01-02T08:59:52Z</time>
      </trkpt>
      <trkpt lat="42.49164" lon="1.94477">
        <ele>1455</ele>
        <time>2021-01-02T09:00:04Z</time>
      </trkpt>
      <trkpt lat="42.49186" lon="1.94477">
        <ele>1456</ele>
        <time>2021-01-02T09:00:21Z</time>
      </trkpt>
      <trkpt lat="42.49211" lon="1.94468">
        <ele>1457</ele>
        <time>2021-01-02T09:00:51Z</time>
      </trkpt>
      <trkpt lat="42.49213" lon="1.94464">
        <ele>1458</ele>
        <time>2021-01-02T09:00:59Z</time>
      </trkpt>
      <trkpt lat="42.49214" lon="1.94461">
        <ele>1459</ele>
        <time>2021-01-02T09:01:04Z</time>
      </trkpt>
      <trkpt lat="42.4922" lon="1.94458">
        <ele>1460</ele>
        <time>2021-01-02T09:01:12Z</time>
      </trkpt>
      <trkpt lat="42.49252" lon="1.9444">
        <ele>1460</ele>
        <time>2021-01-02T09:01:37Z</time>
      </trkpt>
      <trkpt lat="42.49253" lon="1.9444">
        <ele>1461</ele>
        <time>2021-01-02T09:01:42Z</time>
      </trkpt>
      <trkpt lat="42.49258" lon="1.94436">
        <ele>1462</ele>
        <time>2021-01-02T09:02:25Z</time>
      </trkpt>
      <trkpt lat="42.49263" lon="1.94429">
        <ele>1462</ele>
        <time>2021-01-02T09:02:34Z</time>
      </trkpt>
      <trkpt lat="42.49265" lon="1.9443">
        <ele>1463</ele>
        <time>2021-01-02T09:02:41Z</time>
      </trkpt>
      <trkpt lat="42.49267" lon="1.94433">
        <ele>1463</ele>
        <time>2021-01-02T09:02:44Z</time>
      </trkpt>
      <trkpt lat="42.49269" lon="1.94435">
        <ele>1463</ele>
        <time>2021-01-02T09:02:48Z</time>
      </trkpt>
      <trkpt lat="42.49275" lon="1.94437">
        <ele>1465</ele>
        <time>2021-01-02T09:03:11Z</time>
      </trkpt>
      <trkpt lat="42.49289" lon="1.94412">
        <ele>1469</ele>
        <time>2021-01-02T09:03:27Z</time>
      </trkpt>
      <trkpt lat="42.49292" lon="1.9441">
        <ele>1469</ele>
        <time>2021-01-02T09:03:29Z</time>
      </trkpt>
      <trkpt lat="42.49296" lon="1.94405">
        <ele>1470</ele>
        <time>2021-01-02T09:03:33Z</time>
      </trkpt>
      <trkpt lat="42.49306" lon="1.94387">
        <ele>1474</ele>
        <time>2021-01-02T09:03:49Z</time>
      </trkpt>
      <trkpt lat="42.4931" lon="1.94385">
        <ele>1475</ele>
        <time>2021-01-02T09:03:52Z</time>
      </trkpt>
      <trkpt lat="42.4931" lon="1.94382">
        <ele>1476</ele>
        <time>2021-01-02T09:03:55Z</time>
      </trkpt>
      <trkpt lat="42.49318" lon="1.94373">
        <ele>1478</ele>
        <time>2021-01-02T09:04:08Z</time>
      </trkpt>
      <trkpt lat="42.49318" lon="1.9437">
        <ele>1478</ele>
        <time>2021-01-02T09:04:10Z</time>
      </trkpt>
      <trkpt lat="42.49319" lon="1.94367">
        <ele>1479</ele>
        <time>2021-01-02T09:04:12Z</time>
      </trkpt>
      <trkpt lat="42.49319" lon="1.94362">
        <ele>1479</ele>
        <time>2021-01-02T09:04:15Z</time>
      </trkpt>
      <trkpt lat="42.49328" lon="1.94349">
        <ele>1481</ele>
        <time>2021-01-02T09:04:27Z</time>
      </trkpt>
      <trkpt lat="42.49329" lon="1.94345">
        <ele>1482</ele>
        <time>2021-01-02T09:04:30Z</time>
      </trkpt>
      <trkpt lat="42.49333" lon="1.94339">
        <ele>1483</ele>
        <time>2021-01-02T09:04:36Z</time>
      </trkpt>
      <trkpt lat="42.49333" lon="1.94336">
        <ele>1484</ele>
        <time>2021-01-02T09:04:38Z</time>
      </trkpt>
      <trkpt lat="42.49338" lon="1.94312">
        <ele>1488</ele>
        <time>2021-01-02T09:05:01Z</time>
      </trkpt>
      <trkpt lat="42.49337" lon="1.94309">
        <ele>1488</ele>
        <time>2021-01-02T09:05:04Z</time>
      </trkpt>
      <trkpt lat="42.49344" lon="1.94288">
        <ele>1490</ele>
        <time>2021-01-02T09:05:19Z</time>
      </trkpt>
      <trkpt lat="42.49343" lon="1.94284">
        <ele>1490</ele>
        <time>2021-01-02T09:05:22Z</time>
      </trkpt>
      <trkpt lat="42.49344" lon="1.9428">
        <ele>1490</ele>
        <time>2021-01-02T09:05:25Z</time>
      </trkpt>
      <trkpt lat="42.49342" lon="1.94266">
        <ele>1490</ele>
        <time>2021-01-02T09:05:33Z</time>
      </trkpt>
      <trkpt lat="42.49344" lon="1.94262">
        <ele>1490</ele>
        <time>2021-01-02T09:05:36Z</time>
      </trkpt>
      <trkpt lat="42.49348" lon="1.94255">
        <ele>1490</ele>
        <time>2021-01-02T09:05:43Z</time>
      </trkpt>
      <trkpt lat="42.49351" lon="1.94254">
        <ele>1490</ele>
        <time>2021-01-02T09:05:46Z</time>
      </trkpt>
      <trkpt lat="42.49354" lon="1.94252">
        <ele>1490</ele>
        <time>2021-01-02T09:05:49Z</time>
      </trkpt>
      <trkpt lat="42.49376" lon="1.94242">
        <ele>1490</ele>
        <time>2021-01-02T09:06:05Z</time>
      </trkpt>
      <trkpt lat="42.49412" lon="1.94229">
        <ele>1496</ele>
        <time>2021-01-02T09:06:26Z</time>
      </trkpt>
      <trkpt lat="42.49419" lon="1.94224">
        <ele>1498</ele>
        <time>2021-01-02T09:06:36Z</time>
      </trkpt>
      <trkpt lat="42.49421" lon="1.94221">
        <ele>1498</ele>
        <time>2021-01-02T09:06:41Z</time>
      </trkpt>
      <trkpt lat="42.49424" lon="1.94214">
        <ele>1499</ele>
        <time>2021-01-02T09:06:48Z</time>
      </trkpt>
      <trkpt lat="42.49424" lon="1.9421">
        <ele>1499</ele>
        <time>2021-01-02T09:06:52Z</time>
      </trkpt>
      <trkpt lat="42.49422" lon="1.94206">
        <ele>1499</ele>
        <time>2021-01-02T09:06:55Z</time>
      </trkpt>
      <trkpt lat="42.49423" lon="1.94202">
        <ele>1499</ele>
        <time>2021-01-02T09:06:58Z</time>
      </trkpt>
      <trkpt lat="42.49424" lon="1.94199">
        <ele>1499</ele>
        <time>2021-01-02T09:07:11Z</time>
      </trkpt>
      <trkpt lat="42.49426" lon="1.94196">
        <ele>1498</ele>
        <time>2021-01-02T09:07:15Z</time>
      </trkpt>
      <trkpt lat="42.4943" lon="1.94184">
        <ele>1498</ele>
        <time>2021-01-02T09:07:24Z</time>
      </trkpt>
      <trkpt lat="42.4944" lon="1.94171">
        <ele>1501</ele>
        <time>2021-01-02T09:07:37Z</time>
      </trkpt>
      <trkpt lat="42.49457" lon="1.94158">
        <ele>1506</ele>
        <time>2021-01-02T09:07:47Z</time>
      </trkpt>
      <trkpt lat="42.49472" lon="1.94147">
        <ele>1511</ele>
        <time>2021-01-02T09:07:54Z</time>
      </trkpt>
      <trkpt lat="42.49476" lon="1.94137">
        <ele>1512</ele>
        <time>2021-01-02T09:07:58Z</time>
      </trkpt>
      <trkpt lat="42.49478" lon="1.94131">
        <ele>1514</ele>
        <time>2021-01-02T09:08:03Z</time>
      </trkpt>
      <trkpt lat="42.49484" lon="1.94125">
        <ele>1516</ele>
        <time>2021-01-02T09:08:09Z</time>
      </trkpt>
      <trkpt lat="42.49486" lon="1.94119">
        <ele>1517</ele>
        <time>2021-01-02T09:08:13Z</time>
      </trkpt>
      <trkpt lat="42.49488" lon="1.94117">
        <ele>1517</ele>
        <time>2021-01-02T09:08:15Z</time>
      </trkpt>
      <trkpt lat="42.4949" lon="1.94106">
        <ele>1517</ele>
        <time>2021-01-02T09:08:24Z</time>
      </trkpt>
      <trkpt lat="42.49499" lon="1.94092">
        <ele>1518</ele>
        <time>2021-01-02T09:08:40Z</time>
      </trkpt>
      <trkpt lat="42.495" lon="1.94089">
        <ele>1518</ele>
        <time>2021-01-02T09:08:44Z</time>
      </trkpt>
      <trkpt lat="42.49498" lon="1.94084">
        <ele>1518</ele>
        <time>2021-01-02T09:08:47Z</time>
      </trkpt>
      <trkpt lat="42.49499" lon="1.9408">
        <ele>1518</ele>
        <time>2021-01-02T09:08:52Z</time>
      </trkpt>
      <trkpt lat="42.49506" lon="1.94062">
        <ele>1516</ele>
        <time>2021-01-02T09:09:11Z</time>
      </trkpt>
      <trkpt lat="42.49509" lon="1.9405">
        <ele>1515</ele>
        <time>2021-01-02T09:09:18Z</time>
      </trkpt>
      <trkpt lat="42.4951" lon="1.94044">
        <ele>1515</ele>
        <time>2021-01-02T09:09:22Z</time>
      </trkpt>
      <trkpt lat="42.49512" lon="1.94042">
        <ele>1514</ele>
        <time>2021-01-02T09:09:24Z</time>
      </trkpt>
      <trkpt lat="42.49513" lon="1.94038">
        <ele>1514</ele>
        <time>2021-01-02T09:09:28Z</time>
      </trkpt>
      <trkpt lat="42.49519" lon="1.94036">
        <ele>1513</ele>
        <time>2021-01-02T09:09:34Z</time>
      </trkpt>
      <trkpt lat="42.49547" lon="1.94028">
        <ele>1512</ele>
        <time>2021-01-02T09:09:55Z</time>
      </trkpt>
      <trkpt lat="42.49555" lon="1.94018">
        <ele>1512</ele>
        <time>2021-01-02T09:10:03Z</time>
      </trkpt>
      <trkpt lat="42.49578" lon="1.94005">
        <ele>1512</ele>
        <time>2021-01-02T09:10:32Z</time>
      </trkpt>
      <trkpt lat="42.49586" lon="1.93988">
        <ele>1512</ele>
        <time>2021-01-02T09:10:44Z</time>
      </trkpt>
      <trkpt lat="42.49591" lon="1.93983">
        <ele>1513</ele>
        <time>2021-01-02T09:10:50Z</time>
      </trkpt>
      <trkpt lat="42.49595" lon="1.93973">
        <ele>1512</ele>
        <time>2021-01-02T09:10:58Z</time>
      </trkpt>
      <trkpt lat="42.49596" lon="1.93955">
        <ele>1511</ele>
        <time>2021-01-02T09:11:08Z</time>
      </trkpt>
      <trkpt lat="42.49597" lon="1.93952">
        <ele>1512</ele>
        <time>2021-01-02T09:11:10Z</time>
      </trkpt>
      <trkpt lat="42.49597" lon="1.93949">
        <ele>1512</ele>
        <time>2021-01-02T09:11:12Z</time>
      </trkpt>
      <trkpt lat="42.49598" lon="1.93946">
        <ele>1512</ele>
        <time>2021-01-02T09:11:15Z</time>
      </trkpt>
      <trkpt lat="42.49598" lon="1.93937">
        <ele>1512</ele>
        <time>2021-01-02T09:11:20Z</time>
      </trkpt>
      <trkpt lat="42.49599" lon="1.93935">
        <ele>1512</ele>
        <time>2021-01-02T09:11:24Z</time>
      </trkpt>
      <trkpt lat="42.49601" lon="1.93932">
        <ele>1513</ele>
        <time>2021-01-02T09:11:29Z</time>
      </trkpt>
      <trkpt lat="42.49601" lon="1.93928">
        <ele>1513</ele>
        <time>2021-01-02T09:11:37Z</time>
      </trkpt>
      <trkpt lat="42.49605" lon="1.93913">
        <ele>1511</ele>
        <time>2021-01-02T09:11:46Z</time>
      </trkpt>
      <trkpt lat="42.49605" lon="1.9391">
        <ele>1512</ele>
        <time>2021-01-02T09:11:47Z</time>
      </trkpt>
      <trkpt lat="42.49605" lon="1.93905">
        <ele>1513</ele>
        <time>2021-01-02T09:11:49Z</time>
      </trkpt>
      <trkpt lat="42.49606" lon="1.93899">
        <ele>1514</ele>
        <time>2021-01-02T09:11:51Z</time>
      </trkpt>
      <trkpt lat="42.49607" lon="1.93897">
        <ele>1515</ele>
        <time>2021-01-02T09:11:53Z</time>
      </trkpt>
      <trkpt lat="42.49608" lon="1.93891">
        <ele>1518</ele>
        <time>2021-01-02T09:12:00Z</time>
      </trkpt>
      <trkpt lat="42.49609" lon="1.93889">
        <ele>1518</ele>
        <time>2021-01-02T09:12:02Z</time>
      </trkpt>
      <trkpt lat="42.4961" lon="1.93887">
        <ele>1518</ele>
        <time>2021-01-02T09:12:05Z</time>
      </trkpt>
      <trkpt lat="42.49609" lon="1.93886">
        <ele>1518</ele>
        <time>2021-01-02T09:12:10Z</time>
      </trkpt>
      <trkpt lat="42.49608" lon="1.93877">
        <ele>1513</ele>
        <time>2021-01-02T09:13:19Z</time>
      </trkpt>
      <trkpt lat="42.49609" lon="1.93874">
        <ele>1512</ele>
        <time>2021-01-02T09:13:20Z</time>
      </trkpt>
      <trkpt lat="42.49609" lon="1.93869">
        <ele>1512</ele>
        <time>2021-01-02T09:13:22Z</time>
      </trkpt>
      <trkpt lat="42.49608" lon="1.93866">
        <ele>1512</ele>
        <time>2021-01-02T09:13:23Z</time>
      </trkpt>
      <trkpt lat="42.49607" lon="1.93868">
        <ele>1510</ele>
        <time>2021-01-02T09:13:34Z</time>
      </trkpt>
      <trkpt lat="42.49608" lon="1.93872">
        <ele>1509</ele>
        <time>2021-01-02T09:13:37Z</time>
      </trkpt>
      <trkpt lat="42.49609" lon="1.93877">
        <ele>1507</ele>
        <time>2021-01-02T09:13:39Z</time>
      </trkpt>
      <trkpt lat="42.4961" lon="1.93885">
        <ele>1506</ele>
        <time>2021-01-02T09:13:44Z</time>
      </trkpt>
      <trkpt lat="42.49607" lon="1.93891">
        <ele>1507</ele>
        <time>2021-01-02T09:13:48Z</time>
      </trkpt>
      <trkpt lat="42.49603" lon="1.939">
        <ele>1507</ele>
        <time>2021-01-02T09:13:55Z</time>
      </trkpt>
      <trkpt lat="42.49592" lon="1.93937">
        <ele>1508</ele>
        <time>2021-01-02T09:14:09Z</time>
      </trkpt>
      <trkpt lat="42.4959" lon="1.93941">
        <ele>1508</ele>
        <time>2021-01-02T09:14:11Z</time>
      </trkpt>
      <trkpt lat="42.49587" lon="1.93948">
        <ele>1507</ele>
        <time>2021-01-02T09:14:15Z</time>
      </trkpt>
      <trkpt lat="42.49585" lon="1.93951">
        <ele>1507</ele>
        <time>2021-01-02T09:14:17Z</time>
      </trkpt>
      <trkpt lat="42.49568" lon="1.93968">
        <ele>1503</ele>
        <time>2021-01-02T09:14:29Z</time>
      </trkpt>
      <trkpt lat="42.49565" lon="1.9397">
        <ele>1503</ele>
        <time>2021-01-02T09:14:31Z</time>
      </trkpt>
      <trkpt lat="42.49557" lon="1.93979">
        <ele>1501</ele>
        <time>2021-01-02T09:14:43Z</time>
      </trkpt>
      <trkpt lat="42.4954" lon="1.9399">
        <ele>1494</ele>
        <time>2021-01-02T09:14:57Z</time>
      </trkpt>
      <trkpt lat="42.49537" lon="1.93991">
        <ele>1493</ele>
        <time>2021-01-02T09:14:59Z</time>
      </trkpt>
      <trkpt lat="42.49526" lon="1.93998">
        <ele>1491</ele>
        <time>2021-01-02T09:15:06Z</time>
      </trkpt>
      <trkpt lat="42.49521" lon="1.94001">
        <ele>1491</ele>
        <time>2021-01-02T09:15:10Z</time>
      </trkpt>
      <trkpt lat="42.49504" lon="1.94032">
        <ele>1489</ele>
        <time>2021-01-02T09:15:22Z</time>
      </trkpt>
      <trkpt lat="42.49489" lon="1.9405">
        <ele>1485</ele>
        <time>2021-01-02T09:15:29Z</time>
      </trkpt>
      <trkpt lat="42.49488" lon="1.94054">
        <ele>1484</ele>
        <time>2021-01-02T09:15:31Z</time>
      </trkpt>
      <trkpt lat="42.49488" lon="1.94059">
        <ele>1482</ele>
        <time>2021-01-02T09:15:34Z</time>
      </trkpt>
      <trkpt lat="42.49486" lon="1.94063">
        <ele>1480</ele>
        <time>2021-01-02T09:15:37Z</time>
      </trkpt>
      <trkpt lat="42.49483" lon="1.9407">
        <ele>1479</ele>
        <time>2021-01-02T09:15:38Z</time>
      </trkpt>
      <trkpt lat="42.49481" lon="1.94075">
        <ele>1479</ele>
        <time>2021-01-02T09:15:39Z</time>
      </trkpt>
      <trkpt lat="42.49479" lon="1.9408">
        <ele>1479</ele>
        <time>2021-01-02T09:15:40Z</time>
      </trkpt>
      <trkpt lat="42.49477" lon="1.94087">
        <ele>1479</ele>
        <time>2021-01-02T09:15:41Z</time>
      </trkpt>
      <trkpt lat="42.49473" lon="1.94101">
        <ele>1479</ele>
        <time>2021-01-02T09:15:43Z</time>
      </trkpt>
      <trkpt lat="42.4947" lon="1.94111">
        <ele>1480</ele>
        <time>2021-01-02T09:15:45Z</time>
      </trkpt>
      <trkpt lat="42.49467" lon="1.94121">
        <ele>1481</ele>
        <time>2021-01-02T09:15:47Z</time>
      </trkpt>
      <trkpt lat="42.49464" lon="1.94125">
        <ele>1482</ele>
        <time>2021-01-02T09:15:49Z</time>
      </trkpt>
      <trkpt lat="42.49463" lon="1.94134">
        <ele>1483</ele>
        <time>2021-01-02T09:15:51Z</time>
      </trkpt>
      <trkpt lat="42.49456" lon="1.94142">
        <ele>1486</ele>
        <time>2021-01-02T09:15:59Z</time>
      </trkpt>
      <trkpt lat="42.49454" lon="1.94144">
        <ele>1489</ele>
        <time>2021-01-02T09:16:03Z</time>
      </trkpt>
      <trkpt lat="42.49452" lon="1.94145">
        <ele>1490</ele>
        <time>2021-01-02T09:16:05Z</time>
      </trkpt>
      <trkpt lat="42.4945" lon="1.9414">
        <ele>1490</ele>
        <time>2021-01-02T09:16:10Z</time>
      </trkpt>
      <trkpt lat="42.49449" lon="1.94138">
        <ele>1490</ele>
        <time>2021-01-02T09:16:12Z</time>
      </trkpt>
      <trkpt lat="42.49447" lon="1.94143">
        <ele>1490</ele>
        <time>2021-01-02T09:16:15Z</time>
      </trkpt>
      <trkpt lat="42.49443" lon="1.94153">
        <ele>1490</ele>
        <time>2021-01-02T09:16:18Z</time>
      </trkpt>
      <trkpt lat="42.49441" lon="1.94157">
        <ele>1491</ele>
        <time>2021-01-02T09:16:19Z</time>
      </trkpt>
      <trkpt lat="42.49438" lon="1.94162">
        <ele>1492</ele>
        <time>2021-01-02T09:16:21Z</time>
      </trkpt>
      <trkpt lat="42.49434" lon="1.94174">
        <ele>1500</ele>
        <time>2021-01-02T09:16:27Z</time>
      </trkpt>
      <trkpt lat="42.4943" lon="1.94177">
        <ele>1503</ele>
        <time>2021-01-02T09:16:32Z</time>
      </trkpt>
      <trkpt lat="42.49426" lon="1.9418">
        <ele>1504</ele>
        <time>2021-01-02T09:16:37Z</time>
      </trkpt>
      <trkpt lat="42.49415" lon="1.94196">
        <ele>1507</ele>
        <time>2021-01-02T09:16:44Z</time>
      </trkpt>
      <trkpt lat="42.49387" lon="1.94224">
        <ele>1504</ele>
        <time>2021-01-02T09:16:55Z</time>
      </trkpt>
      <trkpt lat="42.49369" lon="1.94233">
        <ele>1498</ele>
        <time>2021-01-02T09:17:07Z</time>
      </trkpt>
      <trkpt lat="42.49358" lon="1.94238">
        <ele>1496</ele>
        <time>2021-01-02T09:17:14Z</time>
      </trkpt>
      <trkpt lat="42.49347" lon="1.94244">
        <ele>1494</ele>
        <time>2021-01-02T09:17:19Z</time>
      </trkpt>
      <trkpt lat="42.49341" lon="1.94251">
        <ele>1493</ele>
        <time>2021-01-02T09:17:21Z</time>
      </trkpt>
      <trkpt lat="42.49327" lon="1.94271">
        <ele>1490</ele>
        <time>2021-01-02T09:17:25Z</time>
      </trkpt>
      <trkpt lat="42.4932" lon="1.94287">
        <ele>1485</ele>
        <time>2021-01-02T09:17:29Z</time>
      </trkpt>
      <trkpt lat="42.49306" lon="1.94306">
        <ele>1473</ele>
        <time>2021-01-02T09:17:35Z</time>
      </trkpt>
      <trkpt lat="42.49293" lon="1.94329">
        <ele>1461</ele>
        <time>2021-01-02T09:17:41Z</time>
      </trkpt>
      <trkpt lat="42.49287" lon="1.94338">
        <ele>1456</ele>
        <time>2021-01-02T09:17:44Z</time>
      </trkpt>
      <trkpt lat="42.49281" lon="1.94343">
        <ele>1453</ele>
        <time>2021-01-02T09:17:46Z</time>
      </trkpt>
      <trkpt lat="42.49278" lon="1.94346">
        <ele>1452</ele>
        <time>2021-01-02T09:17:48Z</time>
      </trkpt>
      <trkpt lat="42.49272" lon="1.94352">
        <ele>1448</ele>
        <time>2021-01-02T09:17:51Z</time>
      </trkpt>
      <trkpt lat="42.49269" lon="1.9436">
        <ele>1445</ele>
        <time>2021-01-02T09:17:54Z</time>
      </trkpt>
      <trkpt lat="42.49268" lon="1.94365">
        <ele>1445</ele>
        <time>2021-01-02T09:17:56Z</time>
      </trkpt>
      <trkpt lat="42.49267" lon="1.9437">
        <ele>1444</ele>
        <time>2021-01-02T09:17:58Z</time>
      </trkpt>
      <trkpt lat="42.49266" lon="1.94387">
        <ele>1445</ele>
        <time>2021-01-02T09:18:03Z</time>
      </trkpt>
      <trkpt lat="42.49266" lon="1.94391">
        <ele>1446</ele>
        <time>2021-01-02T09:18:04Z</time>
      </trkpt>
      <trkpt lat="42.49264" lon="1.9441">
        <ele>1448</ele>
        <time>2021-01-02T09:18:10Z</time>
      </trkpt>
      <trkpt lat="42.49267" lon="1.94412">
        <ele>1449</ele>
        <time>2021-01-02T09:18:13Z</time>
      </trkpt>
      <trkpt lat="42.49269" lon="1.94424">
        <ele>1454</ele>
        <time>2021-01-02T09:18:18Z</time>
      </trkpt>
      <trkpt lat="42.49268" lon="1.94428">
        <ele>1455</ele>
        <time>2021-01-02T09:18:19Z</time>
      </trkpt>
      <trkpt lat="42.49266" lon="1.94431">
        <ele>1456</ele>
        <time>2021-01-02T09:18:20Z</time>
      </trkpt>
      <trkpt lat="42.49263" lon="1.94431">
        <ele>1456</ele>
        <time>2021-01-02T09:18:21Z</time>
      </trkpt>
      <trkpt lat="42.49261" lon="1.94432">
        <ele>1456</ele>
        <time>2021-01-02T09:18:22Z</time>
      </trkpt>
      <trkpt lat="42.49261" lon="1.94432">
        <ele>1453</ele>
        <time>2021-01-02T09:18:28Z</time>
      </trkpt>
      <trkpt lat="42.49273" lon="1.94428">
        <ele>1453</ele>
        <time>2021-01-02T09:18:38Z</time>
      </trkpt>
      <trkpt lat="42.49285" lon="1.94421">
        <ele>1456</ele>
        <time>2021-01-02T09:18:43Z</time>
      </trkpt>
      <trkpt lat="42.49293" lon="1.94421">
        <ele>1460</ele>
        <time>2021-01-02T09:18:49Z</time>
      </trkpt>
      <trkpt lat="42.493" lon="1.94423">
        <ele>1466</ele>
        <time>2021-01-02T09:18:59Z</time>
      </trkpt>
      <trkpt lat="42.49302" lon="1.94424">
        <ele>1469</ele>
        <time>2021-01-02T09:19:04Z</time>
      </trkpt>
      <trkpt lat="42.49305" lon="1.94425">
        <ele>1471</ele>
        <time>2021-01-02T09:19:08Z</time>
      </trkpt>
      <trkpt lat="42.49308" lon="1.94425">
        <ele>1472</ele>
        <time>2021-01-02T09:19:12Z</time>
      </trkpt>
      <trkpt lat="42.4931" lon="1.94426">
        <ele>1473</ele>
        <time>2021-01-02T09:19:15Z</time>
      </trkpt>
      <trkpt lat="42.49313" lon="1.94426">
        <ele>1474</ele>
        <time>2021-01-02T09:19:18Z</time>
      </trkpt>
      <trkpt lat="42.49315" lon="1.94425">
        <ele>1475</ele>
        <time>2021-01-02T09:19:21Z</time>
      </trkpt>
      <trkpt lat="42.49323" lon="1.94426">
        <ele>1476</ele>
        <time>2021-01-02T09:19:27Z</time>
      </trkpt>
      <trkpt lat="42.49333" lon="1.94435">
        <ele>1478</ele>
        <time>2021-01-02T09:19:36Z</time>
      </trkpt>
      <trkpt lat="42.49335" lon="1.94437">
        <ele>1478</ele>
        <time>2021-01-02T09:19:38Z</time>
      </trkpt>
      <trkpt lat="42.49336" lon="1.94439">
        <ele>1478</ele>
        <time>2021-01-02T09:19:40Z</time>
      </trkpt>
      <trkpt lat="42.49336" lon="1.94444">
        <ele>1478</ele>
        <time>2021-01-02T09:19:42Z</time>
      </trkpt>
      <trkpt lat="42.49336" lon="1.94448">
        <ele>1478</ele>
        <time>2021-01-02T09:19:44Z</time>
      </trkpt>
      <trkpt lat="42.49338" lon="1.94451">
        <ele>1478</ele>
        <time>2021-01-02T09:19:46Z</time>
      </trkpt>
      <trkpt lat="42.49339" lon="1.94453">
        <ele>1479</ele>
        <time>2021-01-02T09:19:49Z</time>
      </trkpt>
      <trkpt lat="42.49344" lon="1.94455">
        <ele>1479</ele>
        <time>2021-01-02T09:19:54Z</time>
      </trkpt>
      <trkpt lat="42.49346" lon="1.94454">
        <ele>1479</ele>
        <time>2021-01-02T09:19:57Z</time>
      </trkpt>
      <trkpt lat="42.49348" lon="1.94456">
        <ele>1479</ele>
        <time>2021-01-02T09:20:02Z</time>
      </trkpt>
      <trkpt lat="42.49359" lon="1.94459">
        <ele>1479</ele>
        <time>2021-01-02T09:20:11Z</time>
      </trkpt>
      <trkpt lat="42.49364" lon="1.94462">
        <ele>1478</ele>
        <time>2021-01-02T09:20:15Z</time>
      </trkpt>
      <trkpt lat="42.49365" lon="1.94466">
        <ele>1478</ele>
        <time>2021-01-02T09:20:18Z</time>
      </trkpt>
      <trkpt lat="42.49372" lon="1.94468">
        <ele>1476</ele>
        <time>2021-01-02T09:20:28Z</time>
      </trkpt>
      <trkpt lat="42.49375" lon="1.94473">
        <ele>1475</ele>
        <time>2021-01-02T09:20:30Z</time>
      </trkpt>
      <trkpt lat="42.49378" lon="1.94479">
        <ele>1474</ele>
        <time>2021-01-02T09:20:34Z</time>
      </trkpt>
      <trkpt lat="42.49391" lon="1.94492">
        <ele>1471</ele>
        <time>2021-01-02T09:20:48Z</time>
      </trkpt>
      <trkpt lat="42.49393" lon="1.94497">
        <ele>1470</ele>
        <time>2021-01-02T09:20:51Z</time>
      </trkpt>
      <trkpt lat="42.49395" lon="1.94498">
        <ele>1470</ele>
        <time>2021-01-02T09:20:52Z</time>
      </trkpt>
      <trkpt lat="42.494" lon="1.94508">
        <ele>1468</ele>
        <time>2021-01-02T09:21:00Z</time>
      </trkpt>
      <trkpt lat="42.49401" lon="1.94512">
        <ele>1467</ele>
        <time>2021-01-02T09:21:02Z</time>
      </trkpt>
      <trkpt lat="42.49402" lon="1.94527">
        <ele>1466</ele>
        <time>2021-01-02T09:21:11Z</time>
      </trkpt>
      <trkpt lat="42.49404" lon="1.9453">
        <ele>1466</ele>
        <time>2021-01-02T09:21:15Z</time>
      </trkpt>
      <trkpt lat="42.49406" lon="1.94539">
        <ele>1465</ele>
        <time>2021-01-02T09:21:22Z</time>
      </trkpt>
      <trkpt lat="42.49407" lon="1.94552">
        <ele>1463</ele>
        <time>2021-01-02T09:21:29Z</time>
      </trkpt>
      <trkpt lat="42.49411" lon="1.94558">
        <ele>1462</ele>
        <time>2021-01-02T09:21:34Z</time>
      </trkpt>
      <trkpt lat="42.49411" lon="1.94561">
        <ele>1462</ele>
        <time>2021-01-02T09:21:36Z</time>
      </trkpt>
      <trkpt lat="42.49414" lon="1.94569">
        <ele>1462</ele>
        <time>2021-01-02T09:21:38Z</time>
      </trkpt>
      <trkpt lat="42.49415" lon="1.94572">
        <ele>1463</ele>
        <time>2021-01-02T09:21:41Z</time>
      </trkpt>
      <trkpt lat="42.4942" lon="1.94575">
        <ele>1464</ele>
        <time>2021-01-02T09:21:49Z</time>
      </trkpt>
      <trkpt lat="42.4942" lon="1.94579">
        <ele>1466</ele>
        <time>2021-01-02T09:21:52Z</time>
      </trkpt>
      <trkpt lat="42.49426" lon="1.94585">
        <ele>1467</ele>
        <time>2021-01-02T09:22:02Z</time>
      </trkpt>
      <trkpt lat="42.49427" lon="1.94588">
        <ele>1467</ele>
        <time>2021-01-02T09:22:05Z</time>
      </trkpt>
      <trkpt lat="42.49429" lon="1.9459">
        <ele>1468</ele>
        <time>2021-01-02T09:22:09Z</time>
      </trkpt>
      <trkpt lat="42.49433" lon="1.94594">
        <ele>1469</ele>
        <time>2021-01-02T09:22:14Z</time>
      </trkpt>
      <trkpt lat="42.49436" lon="1.94597">
        <ele>1469</ele>
        <time>2021-01-02T09:22:17Z</time>
      </trkpt>
      <trkpt lat="42.49448" lon="1.94595">
        <ele>1471</ele>
        <time>2021-01-02T09:22:31Z</time>
      </trkpt>
      <trkpt lat="42.49458" lon="1.94594">
        <ele>1473</ele>
        <time>2021-01-02T09:22:43Z</time>
      </trkpt>
      <trkpt lat="42.49473" lon="1.9459">
        <ele>1476</ele>
        <time>2021-01-02T09:23:04Z</time>
      </trkpt>
      <trkpt lat="42.49482" lon="1.94591">
        <ele>1477</ele>
        <time>2021-01-02T09:23:14Z</time>
      </trkpt>
      <trkpt lat="42.49484" lon="1.94591">
        <ele>1478</ele>
        <time>2021-01-02T09:23:17Z</time>
      </trkpt>
      <trkpt lat="42.49503" lon="1.94591">
        <ele>1479</ele>
        <time>2021-01-02T09:23:43Z</time>
      </trkpt>
      <trkpt lat="42.49516" lon="1.94587">
        <ele>1481</ele>
        <time>2021-01-02T09:23:57Z</time>
      </trkpt>
      <trkpt lat="42.49518" lon="1.94587">
        <ele>1481</ele>
        <time>2021-01-02T09:24:00Z</time>
      </trkpt>
      <trkpt lat="42.49522" lon="1.94587">
        <ele>1482</ele>
        <time>2021-01-02T09:24:03Z</time>
      </trkpt>
      <trkpt lat="42.49527" lon="1.94586">
        <ele>1482</ele>
        <time>2021-01-02T09:24:07Z</time>
      </trkpt>
      <trkpt lat="42.49529" lon="1.94586">
        <ele>1482</ele>
        <time>2021-01-02T09:24:12Z</time>
      </trkpt>
      <trkpt lat="42.49541" lon="1.94591">
        <ele>1483</ele>
        <time>2021-01-02T09:24:28Z</time>
      </trkpt>
      <trkpt lat="42.49546" lon="1.94595">
        <ele>1484</ele>
        <time>2021-01-02T09:24:37Z</time>
      </trkpt>
      <trkpt lat="42.49549" lon="1.946">
        <ele>1484</ele>
        <time>2021-01-02T09:24:50Z</time>
      </trkpt>
      <trkpt lat="42.4955" lon="1.94602">
        <ele>1484</ele>
        <time>2021-01-02T09:24:56Z</time>
      </trkpt>
      <trkpt lat="42.49552" lon="1.94605">
        <ele>1484</ele>
        <time>2021-01-02T09:25:25Z</time>
      </trkpt>
      <trkpt lat="42.49553" lon="1.94607">
        <ele>1484</ele>
        <time>2021-01-02T09:25:36Z</time>
      </trkpt>
      <trkpt lat="42.49556" lon="1.94609">
        <ele>1483</ele>
        <time>2021-01-02T09:26:12Z</time>
      </trkpt>
      <trkpt lat="42.49555" lon="1.94609">
        <ele>1482</ele>
        <time>2021-01-02T09:26:25Z</time>
      </trkpt>
      <trkpt lat="42.4956" lon="1.94607">
        <ele>1482</ele>
        <time>2021-01-02T09:27:30Z</time>
      </trkpt>
      <trkpt lat="42.49561" lon="1.94605">
        <ele>1483</ele>
        <time>2021-01-02T09:27:47Z</time>
      </trkpt>
      <trkpt lat="42.49566" lon="1.94603">
        <ele>1484</ele>
        <time>2021-01-02T09:27:51Z</time>
      </trkpt>
      <trkpt lat="42.49568" lon="1.94604">
        <ele>1486</ele>
        <time>2021-01-02T09:27:54Z</time>
      </trkpt>
      <trkpt lat="42.4957" lon="1.94609">
        <ele>1487</ele>
        <time>2021-01-02T09:28:01Z</time>
      </trkpt>
      <trkpt lat="42.49572" lon="1.9461">
        <ele>1489</ele>
        <time>2021-01-02T09:28:08Z</time>
      </trkpt>
      <trkpt lat="42.49575" lon="1.94611">
        <ele>1491</ele>
        <time>2021-01-02T09:28:15Z</time>
      </trkpt>
      <trkpt lat="42.49585" lon="1.94618">
        <ele>1494</ele>
        <time>2021-01-02T09:28:31Z</time>
      </trkpt>
      <trkpt lat="42.49587" lon="1.9462">
        <ele>1494</ele>
        <time>2021-01-02T09:28:35Z</time>
      </trkpt>
      <trkpt lat="42.49593" lon="1.94622">
        <ele>1495</ele>
        <time>2021-01-02T09:28:47Z</time>
      </trkpt>
      <trkpt lat="42.49605" lon="1.94619">
        <ele>1496</ele>
        <time>2021-01-02T09:29:01Z</time>
      </trkpt>
      <trkpt lat="42.49613" lon="1.94604">
        <ele>1495</ele>
        <time>2021-01-02T09:29:20Z</time>
      </trkpt>
      <trkpt lat="42.49619" lon="1.94597">
        <ele>1495</ele>
        <time>2021-01-02T09:29:29Z</time>
      </trkpt>
      <trkpt lat="42.49619" lon="1.94594">
        <ele>1494</ele>
        <time>2021-01-02T09:29:33Z</time>
      </trkpt>
      <trkpt lat="42.4962" lon="1.94592">
        <ele>1494</ele>
        <time>2021-01-02T09:29:36Z</time>
      </trkpt>
      <trkpt lat="42.49624" lon="1.94591">
        <ele>1493</ele>
        <time>2021-01-02T09:29:44Z</time>
      </trkpt>
      <trkpt lat="42.49626" lon="1.94591">
        <ele>1493</ele>
        <time>2021-01-02T09:29:50Z</time>
      </trkpt>
      <trkpt lat="42.49628" lon="1.94594">
        <ele>1493</ele>
        <time>2021-01-02T09:29:54Z</time>
      </trkpt>
      <trkpt lat="42.49629" lon="1.94596">
        <ele>1493</ele>
        <time>2021-01-02T09:29:57Z</time>
      </trkpt>
      <trkpt lat="42.4963" lon="1.946">
        <ele>1493</ele>
        <time>2021-01-02T09:30:00Z</time>
      </trkpt>
      <trkpt lat="42.49631" lon="1.94624">
        <ele>1495</ele>
        <time>2021-01-02T09:30:23Z</time>
      </trkpt>
      <trkpt lat="42.49631" lon="1.94627">
        <ele>1496</ele>
        <time>2021-01-02T09:30:26Z</time>
      </trkpt>
      <trkpt lat="42.4963" lon="1.94642">
        <ele>1498</ele>
        <time>2021-01-02T09:30:38Z</time>
      </trkpt>
      <trkpt lat="42.49628" lon="1.94645">
        <ele>1499</ele>
        <time>2021-01-02T09:30:41Z</time>
      </trkpt>
      <trkpt lat="42.49628" lon="1.94648">
        <ele>1499</ele>
        <time>2021-01-02T09:30:45Z</time>
      </trkpt>
      <trkpt lat="42.49629" lon="1.94651">
        <ele>1500</ele>
        <time>2021-01-02T09:30:48Z</time>
      </trkpt>
      <trkpt lat="42.49634" lon="1.9465">
        <ele>1500</ele>
        <time>2021-01-02T09:30:55Z</time>
      </trkpt>
      <trkpt lat="42.4964" lon="1.94651">
        <ele>1501</ele>
        <time>2021-01-02T09:31:02Z</time>
      </trkpt>
      <trkpt lat="42.49646" lon="1.94651">
        <ele>1502</ele>
        <time>2021-01-02T09:31:11Z</time>
      </trkpt>
      <trkpt lat="42.49648" lon="1.94651">
        <ele>1503</ele>
        <time>2021-01-02T09:31:14Z</time>
      </trkpt>
      <trkpt lat="42.4965" lon="1.94652">
        <ele>1503</ele>
        <time>2021-01-02T09:31:17Z</time>
      </trkpt>
      <trkpt lat="42.49651" lon="1.94653">
        <ele>1503</ele>
        <time>2021-01-02T09:31:19Z</time>
      </trkpt>
      <trkpt lat="42.49653" lon="1.94653">
        <ele>1503</ele>
        <time>2021-01-02T09:31:21Z</time>
      </trkpt>
      <trkpt lat="42.49655" lon="1.94653">
        <ele>1503</ele>
        <time>2021-01-02T09:31:27Z</time>
      </trkpt>
      <trkpt lat="42.49658" lon="1.94653">
        <ele>1503</ele>
        <time>2021-01-02T09:31:30Z</time>
      </trkpt>
      <trkpt lat="42.49659" lon="1.94652">
        <ele>1503</ele>
        <time>2021-01-02T09:31:34Z</time>
      </trkpt>
      <trkpt lat="42.49661" lon="1.9465">
        <ele>1503</ele>
        <time>2021-01-02T09:31:38Z</time>
      </trkpt>
      <trkpt lat="42.49662" lon="1.94647">
        <ele>1503</ele>
        <time>2021-01-02T09:31:41Z</time>
      </trkpt>
      <trkpt lat="42.49662" lon="1.94644">
        <ele>1503</ele>
        <time>2021-01-02T09:31:43Z</time>
      </trkpt>
      <trkpt lat="42.49666" lon="1.94634">
        <ele>1504</ele>
        <time>2021-01-02T09:31:51Z</time>
      </trkpt>
      <trkpt lat="42.49675" lon="1.94614">
        <ele>1505</ele>
        <time>2021-01-02T09:32:10Z</time>
      </trkpt>
      <trkpt lat="42.49676" lon="1.9461">
        <ele>1505</ele>
        <time>2021-01-02T09:32:14Z</time>
      </trkpt>
      <trkpt lat="42.49676" lon="1.94595">
        <ele>1504</ele>
        <time>2021-01-02T09:32:24Z</time>
      </trkpt>
      <trkpt lat="42.49679" lon="1.94588">
        <ele>1504</ele>
        <time>2021-01-02T09:32:29Z</time>
      </trkpt>
      <trkpt lat="42.4968" lon="1.94587">
        <ele>1504</ele>
        <time>2021-01-02T09:32:31Z</time>
      </trkpt>
      <trkpt lat="42.49681" lon="1.94583">
        <ele>1504</ele>
        <time>2021-01-02T09:32:35Z</time>
      </trkpt>
      <trkpt lat="42.49685" lon="1.94576">
        <ele>1504</ele>
        <time>2021-01-02T09:32:42Z</time>
      </trkpt>
      <trkpt lat="42.49686" lon="1.9457">
        <ele>1505</ele>
        <time>2021-01-02T09:32:47Z</time>
      </trkpt>
      <trkpt lat="42.49686" lon="1.9456">
        <ele>1505</ele>
        <time>2021-01-02T09:32:55Z</time>
      </trkpt>
      <trkpt lat="42.4969" lon="1.94555">
        <ele>1505</ele>
        <time>2021-01-02T09:33:01Z</time>
      </trkpt>
      <trkpt lat="42.49694" lon="1.94551">
        <ele>1505</ele>
        <time>2021-01-02T09:33:06Z</time>
      </trkpt>
      <trkpt lat="42.49705" lon="1.94543">
        <ele>1505</ele>
        <time>2021-01-02T09:33:22Z</time>
      </trkpt>
      <trkpt lat="42.49712" lon="1.94534">
        <ele>1506</ele>
        <time>2021-01-02T09:33:40Z</time>
      </trkpt>
      <trkpt lat="42.49718" lon="1.94529">
        <ele>1507</ele>
        <time>2021-01-02T09:33:52Z</time>
      </trkpt>
      <trkpt lat="42.49726" lon="1.94527">
        <ele>1507</ele>
        <time>2021-01-02T09:34:06Z</time>
      </trkpt>
      <trkpt lat="42.49728" lon="1.94525">
        <ele>1507</ele>
        <time>2021-01-02T09:34:09Z</time>
      </trkpt>
      <trkpt lat="42.49728" lon="1.94523">
        <ele>1507</ele>
        <time>2021-01-02T09:34:11Z</time>
      </trkpt>
      <trkpt lat="42.49732" lon="1.94517">
        <ele>1507</ele>
        <time>2021-01-02T09:34:20Z</time>
      </trkpt>
      <trkpt lat="42.49742" lon="1.94515">
        <ele>1508</ele>
        <time>2021-01-02T09:34:31Z</time>
      </trkpt>
      <trkpt lat="42.49745" lon="1.94516">
        <ele>1509</ele>
        <time>2021-01-02T09:34:34Z</time>
      </trkpt>
      <trkpt lat="42.49746" lon="1.94519">
        <ele>1509</ele>
        <time>2021-01-02T09:34:39Z</time>
      </trkpt>
      <trkpt lat="42.49748" lon="1.94528">
        <ele>1510</ele>
        <time>2021-01-02T09:34:51Z</time>
      </trkpt>
      <trkpt lat="42.49748" lon="1.94533">
        <ele>1511</ele>
        <time>2021-01-02T09:34:57Z</time>
      </trkpt>
      <trkpt lat="42.49747" lon="1.94536">
        <ele>1512</ele>
        <time>2021-01-02T09:35:00Z</time>
      </trkpt>
      <trkpt lat="42.49749" lon="1.94539">
        <ele>1512</ele>
        <time>2021-01-02T09:35:37Z</time>
      </trkpt>
      <trkpt lat="42.49747" lon="1.94544">
        <ele>1514</ele>
        <time>2021-01-02T09:35:45Z</time>
      </trkpt>
      <trkpt lat="42.49748" lon="1.94548">
        <ele>1514</ele>
        <time>2021-01-02T09:35:49Z</time>
      </trkpt>
      <trkpt lat="42.49748" lon="1.94551">
        <ele>1514</ele>
        <time>2021-01-02T09:35:52Z</time>
      </trkpt>
      <trkpt lat="42.49748" lon="1.94553">
        <ele>1515</ele>
        <time>2021-01-02T09:35:58Z</time>
      </trkpt>
      <trkpt lat="42.49749" lon="1.94556">
        <ele>1515</ele>
        <time>2021-01-02T09:36:02Z</time>
      </trkpt>
      <trkpt lat="42.4975" lon="1.94562">
        <ele>1516</ele>
        <time>2021-01-02T09:36:09Z</time>
      </trkpt>
      <trkpt lat="42.4975" lon="1.94565">
        <ele>1517</ele>
        <time>2021-01-02T09:36:12Z</time>
      </trkpt>
      <trkpt lat="42.49751" lon="1.94567">
        <ele>1517</ele>
        <time>2021-01-02T09:36:15Z</time>
      </trkpt>
      <trkpt lat="42.49752" lon="1.94568">
        <ele>1518</ele>
        <time>2021-01-02T09:36:23Z</time>
      </trkpt>
      <trkpt lat="42.49752" lon="1.94571">
        <ele>1518</ele>
        <time>2021-01-02T09:36:26Z</time>
      </trkpt>
      <trkpt lat="42.49755" lon="1.94577">
        <ele>1518</ele>
        <time>2021-01-02T09:37:22Z</time>
      </trkpt>
      <trkpt lat="42.49754" lon="1.94579">
        <ele>1518</ele>
        <time>2021-01-02T09:37:26Z</time>
      </trkpt>
      <trkpt lat="42.49747" lon="1.94585">
        <ele>1518</ele>
        <time>2021-01-02T09:37:33Z</time>
      </trkpt>
      <trkpt lat="42.49745" lon="1.94588">
        <ele>1518</ele>
        <time>2021-01-02T09:37:35Z</time>
      </trkpt>
      <trkpt lat="42.49744" lon="1.94591">
        <ele>1517</ele>
        <time>2021-01-02T09:37:38Z</time>
      </trkpt>
      <trkpt lat="42.49742" lon="1.94608">
        <ele>1516</ele>
        <time>2021-01-02T09:37:49Z</time>
      </trkpt>
      <trkpt lat="42.49745" lon="1.94615">
        <ele>1515</ele>
        <time>2021-01-02T09:37:58Z</time>
      </trkpt>
      <trkpt lat="42.49747" lon="1.94616">
        <ele>1514</ele>
        <time>2021-01-02T09:38:01Z</time>
      </trkpt>
      <trkpt lat="42.49745" lon="1.94619">
        <ele>1514</ele>
        <time>2021-01-02T09:38:04Z</time>
      </trkpt>
      <trkpt lat="42.49747" lon="1.94628">
        <ele>1514</ele>
        <time>2021-01-02T09:38:12Z</time>
      </trkpt>
      <trkpt lat="42.49746" lon="1.94631">
        <ele>1514</ele>
        <time>2021-01-02T09:38:14Z</time>
      </trkpt>
      <trkpt lat="42.49746" lon="1.94634">
        <ele>1514</ele>
        <time>2021-01-02T09:38:18Z</time>
      </trkpt>
      <trkpt lat="42.49744" lon="1.94643">
        <ele>1514</ele>
        <time>2021-01-02T09:38:25Z</time>
      </trkpt>
      <trkpt lat="42.49743" lon="1.94646">
        <ele>1515</ele>
        <time>2021-01-02T09:38:28Z</time>
      </trkpt>
      <trkpt lat="42.4974" lon="1.9465">
        <ele>1515</ele>
        <time>2021-01-02T09:38:34Z</time>
      </trkpt>
      <trkpt lat="42.4974" lon="1.94662">
        <ele>1519</ele>
        <time>2021-01-02T09:39:16Z</time>
      </trkpt>
      <trkpt lat="42.49746" lon="1.94677">
        <ele>1524</ele>
        <time>2021-01-02T09:39:35Z</time>
      </trkpt>
      <trkpt lat="42.49746" lon="1.94689">
        <ele>1526</ele>
        <time>2021-01-02T09:39:49Z</time>
      </trkpt>
      <trkpt lat="42.49748" lon="1.94691">
        <ele>1526</ele>
        <time>2021-01-02T09:39:52Z</time>
      </trkpt>
      <trkpt lat="42.49748" lon="1.94694">
        <ele>1527</ele>
        <time>2021-01-02T09:39:58Z</time>
      </trkpt>
      <trkpt lat="42.4975" lon="1.94705">
        <ele>1527</ele>
        <time>2021-01-02T09:40:10Z</time>
      </trkpt>
      <trkpt lat="42.49755" lon="1.94712">
        <ele>1528</ele>
        <time>2021-01-02T09:40:19Z</time>
      </trkpt>
      <trkpt lat="42.49762" lon="1.94717">
        <ele>1529</ele>
        <time>2021-01-02T09:40:28Z</time>
      </trkpt>
      <trkpt lat="42.49765" lon="1.94717">
        <ele>1529</ele>
        <time>2021-01-02T09:40:31Z</time>
      </trkpt>
      <trkpt lat="42.49769" lon="1.94718">
        <ele>1529</ele>
        <time>2021-01-02T09:40:36Z</time>
      </trkpt>
      <trkpt lat="42.49772" lon="1.94719">
        <ele>1528</ele>
        <time>2021-01-02T09:40:39Z</time>
      </trkpt>
      <trkpt lat="42.49773" lon="1.94721">
        <ele>1528</ele>
        <time>2021-01-02T09:40:42Z</time>
      </trkpt>
      <trkpt lat="42.49785" lon="1.94725">
        <ele>1528</ele>
        <time>2021-01-02T09:40:57Z</time>
      </trkpt>
      <trkpt lat="42.49788" lon="1.94731">
        <ele>1529</ele>
        <time>2021-01-02T09:41:10Z</time>
      </trkpt>
      <trkpt lat="42.49789" lon="1.94734">
        <ele>1529</ele>
        <time>2021-01-02T09:41:13Z</time>
      </trkpt>
      <trkpt lat="42.49802" lon="1.94744">
        <ele>1529</ele>
        <time>2021-01-02T09:41:25Z</time>
      </trkpt>
      <trkpt lat="42.49803" lon="1.94746">
        <ele>1530</ele>
        <time>2021-01-02T09:41:30Z</time>
      </trkpt>
      <trkpt lat="42.49804" lon="1.94749">
        <ele>1531</ele>
        <time>2021-01-02T09:41:34Z</time>
      </trkpt>
      <trkpt lat="42.49805" lon="1.9475">
        <ele>1532</ele>
        <time>2021-01-02T09:41:43Z</time>
      </trkpt>
      <trkpt lat="42.49805" lon="1.94756">
        <ele>1533</ele>
        <time>2021-01-02T09:42:12Z</time>
      </trkpt>
      <trkpt lat="42.4981" lon="1.94757">
        <ele>1533</ele>
        <time>2021-01-02T09:42:20Z</time>
      </trkpt>
      <trkpt lat="42.49811" lon="1.94754">
        <ele>1533</ele>
        <time>2021-01-02T09:42:26Z</time>
      </trkpt>
      <trkpt lat="42.49813" lon="1.94753">
        <ele>1533</ele>
        <time>2021-01-02T09:42:30Z</time>
      </trkpt>
      <trkpt lat="42.49813" lon="1.94752">
        <ele>1533</ele>
        <time>2021-01-02T09:42:37Z</time>
      </trkpt>
      <trkpt lat="42.49814" lon="1.9475">
        <ele>1533</ele>
        <time>2021-01-02T09:42:47Z</time>
      </trkpt>
      <trkpt lat="42.49808" lon="1.94742">
        <ele>1537</ele>
        <time>2021-01-02T09:46:18Z</time>
      </trkpt>
      <trkpt lat="42.49806" lon="1.94743">
        <ele>1541</ele>
        <time>2021-01-02T09:46:29Z</time>
      </trkpt>
      <trkpt lat="42.498" lon="1.94742">
        <ele>1540</ele>
        <time>2021-01-02T09:46:32Z</time>
      </trkpt>
      <trkpt lat="42.49797" lon="1.94741">
        <ele>1538</ele>
        <time>2021-01-02T09:46:35Z</time>
      </trkpt>
      <trkpt lat="42.49803" lon="1.94742">
        <ele>1538</ele>
        <time>2021-01-02T09:46:39Z</time>
      </trkpt>
      <trkpt lat="42.49805" lon="1.94743">
        <ele>1538</ele>
        <time>2021-01-02T09:46:40Z</time>
      </trkpt>
      <trkpt lat="42.49807" lon="1.94745">
        <ele>1546</ele>
        <time>2021-01-02T09:46:47Z</time>
      </trkpt>
      <trkpt lat="42.4981" lon="1.94745">
        <ele>1551</ele>
        <time>2021-01-02T09:47:00Z</time>
      </trkpt>
      <trkpt lat="42.49811" lon="1.94747">
        <ele>1551</ele>
        <time>2021-01-02T09:47:06Z</time>
      </trkpt>
      <trkpt lat="42.49806" lon="1.94746">
        <ele>1553</ele>
        <time>2021-01-02T09:47:48Z</time>
      </trkpt>
      <trkpt lat="42.49807" lon="1.94745">
        <ele>1551</ele>
        <time>2021-01-02T09:47:57Z</time>
      </trkpt>
      <trkpt lat="42.49809" lon="1.94745">
        <ele>1550</ele>
        <time>2021-01-02T09:48:32Z</time>
      </trkpt>
      <trkpt lat="42.49807" lon="1.94747">
        <ele>1550</ele>
        <time>2021-01-02T09:49:18Z</time>
      </trkpt>
      <trkpt lat="42.49807" lon="1.94752">
        <ele>1551</ele>
        <time>2021-01-02T09:49:20Z</time>
      </trkpt>
      <trkpt lat="42.49804" lon="1.94753">
        <ele>1552</ele>
        <time>2021-01-02T09:49:21Z</time>
      </trkpt>
      <trkpt lat="42.49802" lon="1.94753">
        <ele>1554</ele>
        <time>2021-01-02T09:49:23Z</time>
      </trkpt>
      <trkpt lat="42.49803" lon="1.94748">
        <ele>1555</ele>
        <time>2021-01-02T09:49:25Z</time>
      </trkpt>
      <trkpt lat="42.49805" lon="1.94746">
        <ele>1558</ele>
        <time>2021-01-02T09:49:30Z</time>
      </trkpt>
      <trkpt lat="42.49807" lon="1.94745">
        <ele>1558</ele>
        <time>2021-01-02T09:49:33Z</time>
      </trkpt>
      <trkpt lat="42.4981" lon="1.94745">
        <ele>1559</ele>
        <time>2021-01-02T09:49:37Z</time>
      </trkpt>
      <trkpt lat="42.4981" lon="1.94745">
        <ele>1560</ele>
        <time>2021-01-02T09:49:47Z</time>
      </trkpt>
      <trkpt lat="42.49809" lon="1.94741">
        <ele>1562</ele>
        <time>2021-01-02T09:49:56Z</time>
      </trkpt>
      <trkpt lat="42.49806" lon="1.9474">
        <ele>1562</ele>
        <time>2021-01-02T09:49:59Z</time>
      </trkpt>
      <trkpt lat="42.49805" lon="1.94745">
        <ele>1561</ele>
        <time>2021-01-02T09:50:13Z</time>
      </trkpt>
      <trkpt lat="42.49802" lon="1.94743">
        <ele>1558</ele>
        <time>2021-01-02T09:50:20Z</time>
      </trkpt>
      <trkpt lat="42.49802" lon="1.94745">
        <ele>1554</ele>
        <time>2021-01-02T09:50:38Z</time>
      </trkpt>
      <trkpt lat="42.49808" lon="1.94747">
        <ele>1551</ele>
        <time>2021-01-02T09:50:55Z</time>
      </trkpt>
      <trkpt lat="42.49808" lon="1.94746">
        <ele>1547</ele>
        <time>2021-01-02T09:51:31Z</time>
      </trkpt>
      <trkpt lat="42.4981" lon="1.94745">
        <ele>1546</ele>
        <time>2021-01-02T09:52:16Z</time>
      </trkpt>
      <trkpt lat="42.49812" lon="1.94746">
        <ele>1544</ele>
        <time>2021-01-02T09:52:28Z</time>
      </trkpt>
      <trkpt lat="42.49815" lon="1.94746">
        <ele>1543</ele>
        <time>2021-01-02T09:52:31Z</time>
      </trkpt>
      <trkpt lat="42.49817" lon="1.94745">
        <ele>1543</ele>
        <time>2021-01-02T09:52:33Z</time>
      </trkpt>
      <trkpt lat="42.49819" lon="1.94745">
        <ele>1543</ele>
        <time>2021-01-02T09:52:35Z</time>
      </trkpt>
      <trkpt lat="42.4982" lon="1.94742">
        <ele>1544</ele>
        <time>2021-01-02T09:52:38Z</time>
      </trkpt>
      <trkpt lat="42.4982" lon="1.94738">
        <ele>1546</ele>
        <time>2021-01-02T09:52:42Z</time>
      </trkpt>
      <trkpt lat="42.49821" lon="1.94735">
        <ele>1546</ele>
        <time>2021-01-02T09:52:45Z</time>
      </trkpt>
      <trkpt lat="42.49824" lon="1.94739">
        <ele>1547</ele>
        <time>2021-01-02T09:52:49Z</time>
      </trkpt>
      <trkpt lat="42.49834" lon="1.94745">
        <ele>1551</ele>
        <time>2021-01-02T09:53:00Z</time>
      </trkpt>
      <trkpt lat="42.49836" lon="1.94746">
        <ele>1553</ele>
        <time>2021-01-02T09:53:04Z</time>
      </trkpt>
      <trkpt lat="42.49837" lon="1.94751">
        <ele>1555</ele>
        <time>2021-01-02T09:53:09Z</time>
      </trkpt>
      <trkpt lat="42.49839" lon="1.94754">
        <ele>1556</ele>
        <time>2021-01-02T09:53:13Z</time>
      </trkpt>
      <trkpt lat="42.49841" lon="1.94755">
        <ele>1557</ele>
        <time>2021-01-02T09:53:15Z</time>
      </trkpt>
      <trkpt lat="42.49843" lon="1.94755">
        <ele>1558</ele>
        <time>2021-01-02T09:53:18Z</time>
      </trkpt>
      <trkpt lat="42.49849" lon="1.94754">
        <ele>1561</ele>
        <time>2021-01-02T09:53:26Z</time>
      </trkpt>
      <trkpt lat="42.49853" lon="1.94756">
        <ele>1562</ele>
        <time>2021-01-02T09:53:29Z</time>
      </trkpt>
      <trkpt lat="42.49861" lon="1.94761">
        <ele>1565</ele>
        <time>2021-01-02T09:53:39Z</time>
      </trkpt>
      <trkpt lat="42.49862" lon="1.94763">
        <ele>1566</ele>
        <time>2021-01-02T09:53:42Z</time>
      </trkpt>
      <trkpt lat="42.49865" lon="1.94768">
        <ele>1567</ele>
        <time>2021-01-02T09:53:48Z</time>
      </trkpt>
      <trkpt lat="42.49868" lon="1.94771">
        <ele>1569</ele>
        <time>2021-01-02T09:53:54Z</time>
      </trkpt>
      <trkpt lat="42.4987" lon="1.94771">
        <ele>1570</ele>
        <time>2021-01-02T09:53:58Z</time>
      </trkpt>
      <trkpt lat="42.49875" lon="1.94775">
        <ele>1570</ele>
        <time>2021-01-02T09:54:03Z</time>
      </trkpt>
      <trkpt lat="42.49876" lon="1.94777">
        <ele>1571</ele>
        <time>2021-01-02T09:54:06Z</time>
      </trkpt>
      <trkpt lat="42.49877" lon="1.9478">
        <ele>1571</ele>
        <time>2021-01-02T09:54:08Z</time>
      </trkpt>
      <trkpt lat="42.49878" lon="1.94797">
        <ele>1574</ele>
        <time>2021-01-02T09:54:23Z</time>
      </trkpt>
      <trkpt lat="42.49881" lon="1.94803">
        <ele>1575</ele>
        <time>2021-01-02T09:54:29Z</time>
      </trkpt>
      <trkpt lat="42.49887" lon="1.94815">
        <ele>1576</ele>
        <time>2021-01-02T09:54:43Z</time>
      </trkpt>
      <trkpt lat="42.49892" lon="1.94825">
        <ele>1578</ele>
        <time>2021-01-02T09:54:55Z</time>
      </trkpt>
      <trkpt lat="42.49893" lon="1.94827">
        <ele>1578</ele>
        <time>2021-01-02T09:54:58Z</time>
      </trkpt>
      <trkpt lat="42.49893" lon="1.94837">
        <ele>1578</ele>
        <time>2021-01-02T09:55:06Z</time>
      </trkpt>
      <trkpt lat="42.49895" lon="1.94845">
        <ele>1578</ele>
        <time>2021-01-02T09:55:14Z</time>
      </trkpt>
      <trkpt lat="42.49897" lon="1.94847">
        <ele>1578</ele>
        <time>2021-01-02T09:55:16Z</time>
      </trkpt>
      <trkpt lat="42.49896" lon="1.9485">
        <ele>1577</ele>
        <time>2021-01-02T09:55:32Z</time>
      </trkpt>
      <trkpt lat="42.49895" lon="1.94853">
        <ele>1576</ele>
        <time>2021-01-02T09:55:34Z</time>
      </trkpt>
      <trkpt lat="42.49897" lon="1.94854">
        <ele>1575</ele>
        <time>2021-01-02T09:55:47Z</time>
      </trkpt>
      <trkpt lat="42.49898" lon="1.94856">
        <ele>1574</ele>
        <time>2021-01-02T09:55:50Z</time>
      </trkpt>
      <trkpt lat="42.49898" lon="1.94858">
        <ele>1573</ele>
        <time>2021-01-02T09:55:56Z</time>
      </trkpt>
      <trkpt lat="42.499" lon="1.94861">
        <ele>1573</ele>
        <time>2021-01-02T09:56:22Z</time>
      </trkpt>
      <trkpt lat="42.49909" lon="1.94876">
        <ele>1573</ele>
        <time>2021-01-02T09:56:39Z</time>
      </trkpt>
      <trkpt lat="42.49915" lon="1.94894">
        <ele>1572</ele>
        <time>2021-01-02T09:56:51Z</time>
      </trkpt>
      <trkpt lat="42.49917" lon="1.94897">
        <ele>1572</ele>
        <time>2021-01-02T09:56:55Z</time>
      </trkpt>
      <trkpt lat="42.49927" lon="1.94919">
        <ele>1572</ele>
        <time>2021-01-02T09:57:13Z</time>
      </trkpt>
      <trkpt lat="42.49933" lon="1.94923">
        <ele>1571</ele>
        <time>2021-01-02T09:57:21Z</time>
      </trkpt>
      <trkpt lat="42.49937" lon="1.94925">
        <ele>1571</ele>
        <time>2021-01-02T09:57:28Z</time>
      </trkpt>
      <trkpt lat="42.49944" lon="1.9493">
        <ele>1570</ele>
        <time>2021-01-02T09:57:42Z</time>
      </trkpt>
      <trkpt lat="42.49946" lon="1.94933">
        <ele>1569</ele>
        <time>2021-01-02T09:57:45Z</time>
      </trkpt>
      <trkpt lat="42.49948" lon="1.94934">
        <ele>1569</ele>
        <time>2021-01-02T09:57:49Z</time>
      </trkpt>
      <trkpt lat="42.49949" lon="1.94937">
        <ele>1568</ele>
        <time>2021-01-02T09:57:54Z</time>
      </trkpt>
      <trkpt lat="42.49952" lon="1.94939">
        <ele>1567</ele>
        <time>2021-01-02T09:57:58Z</time>
      </trkpt>
      <trkpt lat="42.49954" lon="1.9494">
        <ele>1567</ele>
        <time>2021-01-02T09:58:00Z</time>
      </trkpt>
      <trkpt lat="42.4996" lon="1.94942">
        <ele>1566</ele>
        <time>2021-01-02T09:58:07Z</time>
      </trkpt>
      <trkpt lat="42.49964" lon="1.94945">
        <ele>1567</ele>
        <time>2021-01-02T09:58:14Z</time>
      </trkpt>
      <trkpt lat="42.49968" lon="1.9495">
        <ele>1567</ele>
        <time>2021-01-02T09:58:20Z</time>
      </trkpt>
      <trkpt lat="42.49969" lon="1.94953">
        <ele>1567</ele>
        <time>2021-01-02T09:58:26Z</time>
      </trkpt>
      <trkpt lat="42.49971" lon="1.94954">
        <ele>1568</ele>
        <time>2021-01-02T09:58:30Z</time>
      </trkpt>
      <trkpt lat="42.49972" lon="1.94955">
        <ele>1568</ele>
        <time>2021-01-02T09:58:36Z</time>
      </trkpt>
      <trkpt lat="42.49974" lon="1.94953">
        <ele>1568</ele>
        <time>2021-01-02T09:58:49Z</time>
      </trkpt>
      <trkpt lat="42.49969" lon="1.94962">
        <ele>1567</ele>
        <time>2021-01-02T09:59:22Z</time>
      </trkpt>
      <trkpt lat="42.49967" lon="1.94962">
        <ele>1567</ele>
        <time>2021-01-02T09:59:26Z</time>
      </trkpt>
      <trkpt lat="42.49965" lon="1.94966">
        <ele>1568</ele>
        <time>2021-01-02T09:59:29Z</time>
      </trkpt>
      <trkpt lat="42.49964" lon="1.94973">
        <ele>1569</ele>
        <time>2021-01-02T09:59:34Z</time>
      </trkpt>
      <trkpt lat="42.49965" lon="1.94976">
        <ele>1570</ele>
        <time>2021-01-02T09:59:36Z</time>
      </trkpt>
      <trkpt lat="42.49965" lon="1.94981">
        <ele>1571</ele>
        <time>2021-01-02T09:59:38Z</time>
      </trkpt>
      <trkpt lat="42.4997" lon="1.94996">
        <ele>1576</ele>
        <time>2021-01-02T09:59:56Z</time>
      </trkpt>
      <trkpt lat="42.49974" lon="1.95001">
        <ele>1577</ele>
        <time>2021-01-02T10:00:05Z</time>
      </trkpt>
      <trkpt lat="42.49976" lon="1.95012">
        <ele>1577</ele>
        <time>2021-01-02T10:00:12Z</time>
      </trkpt>
      <trkpt lat="42.49979" lon="1.95009">
        <ele>1577</ele>
        <time>2021-01-02T10:00:23Z</time>
      </trkpt>
      <trkpt lat="42.49981" lon="1.95009">
        <ele>1577</ele>
        <time>2021-01-02T10:00:26Z</time>
      </trkpt>
      <trkpt lat="42.49982" lon="1.95006">
        <ele>1577</ele>
        <time>2021-01-02T10:00:28Z</time>
      </trkpt>
      <trkpt lat="42.50001" lon="1.95008">
        <ele>1578</ele>
        <time>2021-01-02T10:00:49Z</time>
      </trkpt>
      <trkpt lat="42.50005" lon="1.95008">
        <ele>1579</ele>
        <time>2021-01-02T10:00:58Z</time>
      </trkpt>
      <trkpt lat="42.50012" lon="1.95013">
        <ele>1579</ele>
        <time>2021-01-02T10:01:11Z</time>
      </trkpt>
      <trkpt lat="42.50015" lon="1.95017">
        <ele>1579</ele>
        <time>2021-01-02T10:01:42Z</time>
      </trkpt>
      <trkpt lat="42.50023" lon="1.95019">
        <ele>1579</ele>
        <time>2021-01-02T10:02:19Z</time>
      </trkpt>
      <trkpt lat="42.50025" lon="1.95019">
        <ele>1578</ele>
        <time>2021-01-02T10:02:24Z</time>
      </trkpt>
      <trkpt lat="42.50027" lon="1.9502">
        <ele>1578</ele>
        <time>2021-01-02T10:02:26Z</time>
      </trkpt>
      <trkpt lat="42.50029" lon="1.95019">
        <ele>1578</ele>
        <time>2021-01-02T10:02:29Z</time>
      </trkpt>
      <trkpt lat="42.50031" lon="1.95021">
        <ele>1578</ele>
        <time>2021-01-02T10:02:35Z</time>
      </trkpt>
      <trkpt lat="42.50036" lon="1.95022">
        <ele>1579</ele>
        <time>2021-01-02T10:02:42Z</time>
      </trkpt>
      <trkpt lat="42.5004" lon="1.9502">
        <ele>1579</ele>
        <time>2021-01-02T10:02:46Z</time>
      </trkpt>
      <trkpt lat="42.50041" lon="1.95018">
        <ele>1579</ele>
        <time>2021-01-02T10:02:49Z</time>
      </trkpt>
      <trkpt lat="42.50043" lon="1.95019">
        <ele>1580</ele>
        <time>2021-01-02T10:02:51Z</time>
      </trkpt>
      <trkpt lat="42.50047" lon="1.95023">
        <ele>1581</ele>
        <time>2021-01-02T10:02:57Z</time>
      </trkpt>
      <trkpt lat="42.50062" lon="1.9503">
        <ele>1584</ele>
        <time>2021-01-02T10:03:20Z</time>
      </trkpt>
      <trkpt lat="42.50071" lon="1.95037">
        <ele>1586</ele>
        <time>2021-01-02T10:03:35Z</time>
      </trkpt>
      <trkpt lat="42.50074" lon="1.95038">
        <ele>1587</ele>
        <time>2021-01-02T10:03:39Z</time>
      </trkpt>
      <trkpt lat="42.50075" lon="1.95038">
        <ele>1587</ele>
        <time>2021-01-02T10:03:42Z</time>
      </trkpt>
      <trkpt lat="42.50077" lon="1.9504">
        <ele>1587</ele>
        <time>2021-01-02T10:03:48Z</time>
      </trkpt>
      <trkpt lat="42.50079" lon="1.95045">
        <ele>1587</ele>
        <time>2021-01-02T10:03:56Z</time>
      </trkpt>
      <trkpt lat="42.50084" lon="1.95051">
        <ele>1586</ele>
        <time>2021-01-02T10:04:05Z</time>
      </trkpt>
      <trkpt lat="42.50085" lon="1.95053">
        <ele>1585</ele>
        <time>2021-01-02T10:04:09Z</time>
      </trkpt>
      <trkpt lat="42.50087" lon="1.95052">
        <ele>1585</ele>
        <time>2021-01-02T10:04:12Z</time>
      </trkpt>
      <trkpt lat="42.50089" lon="1.95052">
        <ele>1584</ele>
        <time>2021-01-02T10:04:16Z</time>
      </trkpt>
      <trkpt lat="42.50099" lon="1.95051">
        <ele>1586</ele>
        <time>2021-01-02T10:04:43Z</time>
      </trkpt>
      <trkpt lat="42.501" lon="1.9505">
        <ele>1587</ele>
        <time>2021-01-02T10:04:46Z</time>
      </trkpt>
      <trkpt lat="42.50103" lon="1.95051">
        <ele>1588</ele>
        <time>2021-01-02T10:04:51Z</time>
      </trkpt>
      <trkpt lat="42.50103" lon="1.95054">
        <ele>1591</ele>
        <time>2021-01-02T10:04:55Z</time>
      </trkpt>
      <trkpt lat="42.50103" lon="1.95058">
        <ele>1592</ele>
        <time>2021-01-02T10:04:59Z</time>
      </trkpt>
      <trkpt lat="42.50107" lon="1.95066">
        <ele>1595</ele>
        <time>2021-01-02T10:05:08Z</time>
      </trkpt>
      <trkpt lat="42.50106" lon="1.95069">
        <ele>1596</ele>
        <time>2021-01-02T10:05:10Z</time>
      </trkpt>
      <trkpt lat="42.50107" lon="1.95071">
        <ele>1597</ele>
        <time>2021-01-02T10:05:12Z</time>
      </trkpt>
      <trkpt lat="42.50107" lon="1.95076">
        <ele>1599</ele>
        <time>2021-01-02T10:05:20Z</time>
      </trkpt>
      <trkpt lat="42.50104" lon="1.9508">
        <ele>1602</ele>
        <time>2021-01-02T10:05:27Z</time>
      </trkpt>
      <trkpt lat="42.50102" lon="1.95082">
        <ele>1603</ele>
        <time>2021-01-02T10:05:31Z</time>
      </trkpt>
      <trkpt lat="42.501" lon="1.95083">
        <ele>1604</ele>
        <time>2021-01-02T10:05:34Z</time>
      </trkpt>
      <trkpt lat="42.50097" lon="1.95086">
        <ele>1605</ele>
        <time>2021-01-02T10:05:38Z</time>
      </trkpt>
      <trkpt lat="42.50095" lon="1.95095">
        <ele>1605</ele>
        <time>2021-01-02T10:05:46Z</time>
      </trkpt>
      <trkpt lat="42.50098" lon="1.95102">
        <ele>1607</ele>
        <time>2021-01-02T10:05:54Z</time>
      </trkpt>
      <trkpt lat="42.50099" lon="1.95105">
        <ele>1607</ele>
        <time>2021-01-02T10:05:58Z</time>
      </trkpt>
      <trkpt lat="42.50098" lon="1.95107">
        <ele>1608</ele>
        <time>2021-01-02T10:06:02Z</time>
      </trkpt>
      <trkpt lat="42.50099" lon="1.95108">
        <ele>1608</ele>
        <time>2021-01-02T10:06:10Z</time>
      </trkpt>
      <trkpt lat="42.50101" lon="1.95114">
        <ele>1609</ele>
        <time>2021-01-02T10:06:20Z</time>
      </trkpt>
      <trkpt lat="42.50101" lon="1.95117">
        <ele>1609</ele>
        <time>2021-01-02T10:06:23Z</time>
      </trkpt>
      <trkpt lat="42.501" lon="1.95119">
        <ele>1610</ele>
        <time>2021-01-02T10:06:30Z</time>
      </trkpt>
      <trkpt lat="42.50098" lon="1.95123">
        <ele>1611</ele>
        <time>2021-01-02T10:06:50Z</time>
      </trkpt>
      <trkpt lat="42.50096" lon="1.95127">
        <ele>1611</ele>
        <time>2021-01-02T10:06:54Z</time>
      </trkpt>
      <trkpt lat="42.50095" lon="1.95129">
        <ele>1612</ele>
        <time>2021-01-02T10:06:57Z</time>
      </trkpt>
      <trkpt lat="42.50094" lon="1.95131">
        <ele>1612</ele>
        <time>2021-01-02T10:06:59Z</time>
      </trkpt>
      <trkpt lat="42.50093" lon="1.95133">
        <ele>1612</ele>
        <time>2021-01-02T10:07:02Z</time>
      </trkpt>
      <trkpt lat="42.50093" lon="1.95135">
        <ele>1612</ele>
        <time>2021-01-02T10:07:05Z</time>
      </trkpt>
      <trkpt lat="42.50095" lon="1.95143">
        <ele>1612</ele>
        <time>2021-01-02T10:07:14Z</time>
      </trkpt>
      <trkpt lat="42.50096" lon="1.95145">
        <ele>1613</ele>
        <time>2021-01-02T10:07:17Z</time>
      </trkpt>
      <trkpt lat="42.50097" lon="1.95154">
        <ele>1613</ele>
        <time>2021-01-02T10:07:27Z</time>
      </trkpt>
      <trkpt lat="42.50097" lon="1.95157">
        <ele>1614</ele>
        <time>2021-01-02T10:07:32Z</time>
      </trkpt>
      <trkpt lat="42.50096" lon="1.95162">
        <ele>1615</ele>
        <time>2021-01-02T10:07:38Z</time>
      </trkpt>
      <trkpt lat="42.50097" lon="1.95166">
        <ele>1616</ele>
        <time>2021-01-02T10:07:41Z</time>
      </trkpt>
      <trkpt lat="42.50098" lon="1.95168">
        <ele>1616</ele>
        <time>2021-01-02T10:07:43Z</time>
      </trkpt>
      <trkpt lat="42.50101" lon="1.9517">
        <ele>1617</ele>
        <time>2021-01-02T10:07:50Z</time>
      </trkpt>
      <trkpt lat="42.50104" lon="1.95175">
        <ele>1618</ele>
        <time>2021-01-02T10:07:57Z</time>
      </trkpt>
      <trkpt lat="42.50104" lon="1.95178">
        <ele>1619</ele>
        <time>2021-01-02T10:08:01Z</time>
      </trkpt>
      <trkpt lat="42.50107" lon="1.95186">
        <ele>1621</ele>
        <time>2021-01-02T10:08:48Z</time>
      </trkpt>
      <trkpt lat="42.5011" lon="1.9519">
        <ele>1622</ele>
        <time>2021-01-02T10:08:54Z</time>
      </trkpt>
      <trkpt lat="42.5011" lon="1.95193">
        <ele>1622</ele>
        <time>2021-01-02T10:08:58Z</time>
      </trkpt>
      <trkpt lat="42.50109" lon="1.95195">
        <ele>1622</ele>
        <time>2021-01-02T10:09:01Z</time>
      </trkpt>
      <trkpt lat="42.5011" lon="1.95197">
        <ele>1622</ele>
        <time>2021-01-02T10:09:07Z</time>
      </trkpt>
      <trkpt lat="42.50122" lon="1.9522">
        <ele>1626</ele>
        <time>2021-01-02T10:09:39Z</time>
      </trkpt>
      <trkpt lat="42.50122" lon="1.95223">
        <ele>1627</ele>
        <time>2021-01-02T10:09:44Z</time>
      </trkpt>
      <trkpt lat="42.50126" lon="1.95232">
        <ele>1628</ele>
        <time>2021-01-02T10:09:54Z</time>
      </trkpt>
      <trkpt lat="42.50127" lon="1.95235">
        <ele>1628</ele>
        <time>2021-01-02T10:09:56Z</time>
      </trkpt>
      <trkpt lat="42.50128" lon="1.95237">
        <ele>1628</ele>
        <time>2021-01-02T10:09:58Z</time>
      </trkpt>
      <trkpt lat="42.50128" lon="1.9524">
        <ele>1629</ele>
        <time>2021-01-02T10:10:02Z</time>
      </trkpt>
      <trkpt lat="42.50128" lon="1.95243">
        <ele>1629</ele>
        <time>2021-01-02T10:10:04Z</time>
      </trkpt>
      <trkpt lat="42.5013" lon="1.95244">
        <ele>1629</ele>
        <time>2021-01-02T10:10:07Z</time>
      </trkpt>
      <trkpt lat="42.50149" lon="1.95269">
        <ele>1629</ele>
        <time>2021-01-02T10:10:39Z</time>
      </trkpt>
      <trkpt lat="42.50162" lon="1.9528">
        <ele>1631</ele>
        <time>2021-01-02T10:11:14Z</time>
      </trkpt>
      <trkpt lat="42.50174" lon="1.95283">
        <ele>1633</ele>
        <time>2021-01-02T10:11:33Z</time>
      </trkpt>
      <trkpt lat="42.50172" lon="1.95283">
        <ele>1634</ele>
        <time>2021-01-02T10:11:47Z</time>
      </trkpt>
      <trkpt lat="42.50166" lon="1.95287">
        <ele>1632</ele>
        <time>2021-01-02T10:11:53Z</time>
      </trkpt>
      <trkpt lat="42.50166" lon="1.95288">
        <ele>1629</ele>
        <time>2021-01-02T10:11:58Z</time>
      </trkpt>
      <trkpt lat="42.50167" lon="1.95285">
        <ele>1628</ele>
        <time>2021-01-02T10:12:05Z</time>
      </trkpt>
      <trkpt lat="42.50169" lon="1.95286">
        <ele>1628</ele>
        <time>2021-01-02T10:12:17Z</time>
      </trkpt>
      <trkpt lat="42.50197" lon="1.95286">
        <ele>1629</ele>
        <time>2021-01-02T10:12:42Z</time>
      </trkpt>
      <trkpt lat="42.50202" lon="1.95284">
        <ele>1629</ele>
        <time>2021-01-02T10:12:47Z</time>
      </trkpt>
      <trkpt lat="42.50206" lon="1.95284">
        <ele>1630</ele>
        <time>2021-01-02T10:12:52Z</time>
      </trkpt>
      <trkpt lat="42.50211" lon="1.95284">
        <ele>1630</ele>
        <time>2021-01-02T10:12:56Z</time>
      </trkpt>
      <trkpt lat="42.50225" lon="1.9528">
        <ele>1631</ele>
        <time>2021-01-02T10:13:08Z</time>
      </trkpt>
      <trkpt lat="42.50227" lon="1.95282">
        <ele>1631</ele>
        <time>2021-01-02T10:13:12Z</time>
      </trkpt>
      <trkpt lat="42.50229" lon="1.9528">
        <ele>1631</ele>
        <time>2021-01-02T10:13:27Z</time>
      </trkpt>
      <trkpt lat="42.50239" lon="1.95277">
        <ele>1633</ele>
        <time>2021-01-02T10:13:35Z</time>
      </trkpt>
      <trkpt lat="42.50244" lon="1.95278">
        <ele>1633</ele>
        <time>2021-01-02T10:13:41Z</time>
      </trkpt>
      <trkpt lat="42.50248" lon="1.9528">
        <ele>1634</ele>
        <time>2021-01-02T10:13:46Z</time>
      </trkpt>
      <trkpt lat="42.5025" lon="1.95283">
        <ele>1634</ele>
        <time>2021-01-02T10:13:49Z</time>
      </trkpt>
      <trkpt lat="42.50251" lon="1.95286">
        <ele>1634</ele>
        <time>2021-01-02T10:13:52Z</time>
      </trkpt>
      <trkpt lat="42.50262" lon="1.95293">
        <ele>1634</ele>
        <time>2021-01-02T10:14:11Z</time>
      </trkpt>
      <trkpt lat="42.50264" lon="1.95295">
        <ele>1633</ele>
        <time>2021-01-02T10:14:15Z</time>
      </trkpt>
      <trkpt lat="42.50269" lon="1.95295">
        <ele>1633</ele>
        <time>2021-01-02T10:14:24Z</time>
      </trkpt>
      <trkpt lat="42.50278" lon="1.95314">
        <ele>1636</ele>
        <time>2021-01-02T10:14:41Z</time>
      </trkpt>
      <trkpt lat="42.5028" lon="1.95314">
        <ele>1637</ele>
        <time>2021-01-02T10:14:43Z</time>
      </trkpt>
      <trkpt lat="42.50289" lon="1.95327">
        <ele>1639</ele>
        <time>2021-01-02T10:14:56Z</time>
      </trkpt>
      <trkpt lat="42.50303" lon="1.95341">
        <ele>1642</ele>
        <time>2021-01-02T10:15:11Z</time>
      </trkpt>
      <trkpt lat="42.5032" lon="1.95352">
        <ele>1647</ele>
        <time>2021-01-02T10:15:32Z</time>
      </trkpt>
      <trkpt lat="42.50322" lon="1.95353">
        <ele>1648</ele>
        <time>2021-01-02T10:15:35Z</time>
      </trkpt>
      <trkpt lat="42.50325" lon="1.95357">
        <ele>1649</ele>
        <time>2021-01-02T10:15:41Z</time>
      </trkpt>
      <trkpt lat="42.50326" lon="1.95359">
        <ele>1649</ele>
        <time>2021-01-02T10:15:43Z</time>
      </trkpt>
      <trkpt lat="42.50334" lon="1.95364">
        <ele>1650</ele>
        <time>2021-01-02T10:15:51Z</time>
      </trkpt>
      <trkpt lat="42.50338" lon="1.95365">
        <ele>1651</ele>
        <time>2021-01-02T10:15:56Z</time>
      </trkpt>
      <trkpt lat="42.50342" lon="1.95365">
        <ele>1652</ele>
        <time>2021-01-02T10:16:02Z</time>
      </trkpt>
      <trkpt lat="42.50369" lon="1.95375">
        <ele>1654</ele>
        <time>2021-01-02T10:16:32Z</time>
      </trkpt>
      <trkpt lat="42.50372" lon="1.95374">
        <ele>1654</ele>
        <time>2021-01-02T10:16:34Z</time>
      </trkpt>
      <trkpt lat="42.50374" lon="1.95372">
        <ele>1654</ele>
        <time>2021-01-02T10:16:37Z</time>
      </trkpt>
      <trkpt lat="42.5038" lon="1.95369">
        <ele>1655</ele>
        <time>2021-01-02T10:16:42Z</time>
      </trkpt>
      <trkpt lat="42.50383" lon="1.95369">
        <ele>1655</ele>
        <time>2021-01-02T10:16:45Z</time>
      </trkpt>
      <trkpt lat="42.5039" lon="1.9537">
        <ele>1655</ele>
        <time>2021-01-02T10:16:51Z</time>
      </trkpt>
      <trkpt lat="42.50395" lon="1.9537">
        <ele>1656</ele>
        <time>2021-01-02T10:16:56Z</time>
      </trkpt>
      <trkpt lat="42.50404" lon="1.9537">
        <ele>1657</ele>
        <time>2021-01-02T10:17:10Z</time>
      </trkpt>
      <trkpt lat="42.50409" lon="1.95371">
        <ele>1657</ele>
        <time>2021-01-02T10:17:15Z</time>
      </trkpt>
      <trkpt lat="42.50411" lon="1.95371">
        <ele>1658</ele>
        <time>2021-01-02T10:17:19Z</time>
      </trkpt>
      <trkpt lat="42.50424" lon="1.95375">
        <ele>1659</ele>
        <time>2021-01-02T10:17:32Z</time>
      </trkpt>
      <trkpt lat="42.50428" lon="1.95374">
        <ele>1660</ele>
        <time>2021-01-02T10:17:37Z</time>
      </trkpt>
      <trkpt lat="42.50431" lon="1.95375">
        <ele>1660</ele>
        <time>2021-01-02T10:17:42Z</time>
      </trkpt>
      <trkpt lat="42.50441" lon="1.95374">
        <ele>1659</ele>
        <time>2021-01-02T10:17:54Z</time>
      </trkpt>
      <trkpt lat="42.50468" lon="1.95367">
        <ele>1660</ele>
        <time>2021-01-02T10:18:24Z</time>
      </trkpt>
      <trkpt lat="42.50502" lon="1.95363">
        <ele>1662</ele>
        <time>2021-01-02T10:18:54Z</time>
      </trkpt>
      <trkpt lat="42.50504" lon="1.95361">
        <ele>1662</ele>
        <time>2021-01-02T10:18:56Z</time>
      </trkpt>
      <trkpt lat="42.50506" lon="1.9536">
        <ele>1663</ele>
        <time>2021-01-02T10:19:00Z</time>
      </trkpt>
      <trkpt lat="42.50515" lon="1.95359">
        <ele>1662</ele>
        <time>2021-01-02T10:19:11Z</time>
      </trkpt>
      <trkpt lat="42.50524" lon="1.95354">
        <ele>1661</ele>
        <time>2021-01-02T10:19:22Z</time>
      </trkpt>
      <trkpt lat="42.50534" lon="1.95345">
        <ele>1661</ele>
        <time>2021-01-02T10:19:30Z</time>
      </trkpt>
      <trkpt lat="42.50541" lon="1.95341">
        <ele>1662</ele>
        <time>2021-01-02T10:19:34Z</time>
      </trkpt>
      <trkpt lat="42.50551" lon="1.9534">
        <ele>1663</ele>
        <time>2021-01-02T10:19:41Z</time>
      </trkpt>
      <trkpt lat="42.50558" lon="1.9534">
        <ele>1664</ele>
        <time>2021-01-02T10:19:45Z</time>
      </trkpt>
      <trkpt lat="42.50563" lon="1.95344">
        <ele>1664</ele>
        <time>2021-01-02T10:19:49Z</time>
      </trkpt>
      <trkpt lat="42.50565" lon="1.95346">
        <ele>1663</ele>
        <time>2021-01-02T10:19:51Z</time>
      </trkpt>
      <trkpt lat="42.50568" lon="1.95349">
        <ele>1661</ele>
        <time>2021-01-02T10:19:53Z</time>
      </trkpt>
      <trkpt lat="42.50577" lon="1.95362">
        <ele>1651</ele>
        <time>2021-01-02T10:20:01Z</time>
      </trkpt>
      <trkpt lat="42.5058" lon="1.95361">
        <ele>1650</ele>
        <time>2021-01-02T10:20:02Z</time>
      </trkpt>
      <trkpt lat="42.50584" lon="1.95359">
        <ele>1647</ele>
        <time>2021-01-02T10:20:05Z</time>
      </trkpt>
      <trkpt lat="42.50598" lon="1.95352">
        <ele>1641</ele>
        <time>2021-01-02T10:20:11Z</time>
      </trkpt>
      <trkpt lat="42.50652" lon="1.9533">
        <ele>1625</ele>
        <time>2021-01-02T10:20:43Z</time>
      </trkpt>
      <trkpt lat="42.50657" lon="1.95325">
        <ele>1624</ele>
        <time>2021-01-02T10:20:47Z</time>
      </trkpt>
      <trkpt lat="42.50673" lon="1.95321">
        <ele>1623</ele>
        <time>2021-01-02T10:20:55Z</time>
      </trkpt>
      <trkpt lat="42.50679" lon="1.95326">
        <ele>1621</ele>
        <time>2021-01-02T10:20:59Z</time>
      </trkpt>
      <trkpt lat="42.50682" lon="1.95327">
        <ele>1620</ele>
        <time>2021-01-02T10:21:01Z</time>
      </trkpt>
      <trkpt lat="42.50685" lon="1.95325">
        <ele>1618</ele>
        <time>2021-01-02T10:21:03Z</time>
      </trkpt>
      <trkpt lat="42.50692" lon="1.95319">
        <ele>1616</ele>
        <time>2021-01-02T10:21:07Z</time>
      </trkpt>
      <trkpt lat="42.50696" lon="1.95317">
        <ele>1614</ele>
        <time>2021-01-02T10:21:10Z</time>
      </trkpt>
      <trkpt lat="42.50711" lon="1.95309">
        <ele>1609</ele>
        <time>2021-01-02T10:21:20Z</time>
      </trkpt>
      <trkpt lat="42.50724" lon="1.95305">
        <ele>1605</ele>
        <time>2021-01-02T10:21:30Z</time>
      </trkpt>
      <trkpt lat="42.50727" lon="1.95302">
        <ele>1604</ele>
        <time>2021-01-02T10:21:34Z</time>
      </trkpt>
      <trkpt lat="42.50732" lon="1.95296">
        <ele>1603</ele>
        <time>2021-01-02T10:21:41Z</time>
      </trkpt>
      <trkpt lat="42.50754" lon="1.9529">
        <ele>1604</ele>
        <time>2021-01-02T10:21:59Z</time>
      </trkpt>
      <trkpt lat="42.50757" lon="1.95289">
        <ele>1605</ele>
        <time>2021-01-02T10:22:03Z</time>
      </trkpt>
      <trkpt lat="42.50759" lon="1.95286">
        <ele>1607</ele>
        <time>2021-01-02T10:22:06Z</time>
      </trkpt>
      <trkpt lat="42.50763" lon="1.95285">
        <ele>1608</ele>
        <time>2021-01-02T10:22:10Z</time>
      </trkpt>
      <trkpt lat="42.50768" lon="1.95279">
        <ele>1613</ele>
        <time>2021-01-02T10:22:17Z</time>
      </trkpt>
      <trkpt lat="42.50772" lon="1.95279">
        <ele>1614</ele>
        <time>2021-01-02T10:22:20Z</time>
      </trkpt>
      <trkpt lat="42.50775" lon="1.9528">
        <ele>1616</ele>
        <time>2021-01-02T10:22:23Z</time>
      </trkpt>
      <trkpt lat="42.50778" lon="1.95283">
        <ele>1617</ele>
        <time>2021-01-02T10:22:25Z</time>
      </trkpt>
      <trkpt lat="42.50782" lon="1.95286">
        <ele>1618</ele>
        <time>2021-01-02T10:22:27Z</time>
      </trkpt>
      <trkpt lat="42.50785" lon="1.95288">
        <ele>1619</ele>
        <time>2021-01-02T10:22:30Z</time>
      </trkpt>
      <trkpt lat="42.50789" lon="1.95289">
        <ele>1620</ele>
        <time>2021-01-02T10:22:33Z</time>
      </trkpt>
      <trkpt lat="42.50792" lon="1.95289">
        <ele>1621</ele>
        <time>2021-01-02T10:22:35Z</time>
      </trkpt>
      <trkpt lat="42.50819" lon="1.95278">
        <ele>1627</ele>
        <time>2021-01-02T10:22:55Z</time>
      </trkpt>
      <trkpt lat="42.50822" lon="1.95276">
        <ele>1629</ele>
        <time>2021-01-02T10:22:58Z</time>
      </trkpt>
      <trkpt lat="42.50824" lon="1.95273">
        <ele>1631</ele>
        <time>2021-01-02T10:23:01Z</time>
      </trkpt>
      <trkpt lat="42.50828" lon="1.95272">
        <ele>1632</ele>
        <time>2021-01-02T10:23:03Z</time>
      </trkpt>
      <trkpt lat="42.50831" lon="1.95263">
        <ele>1636</ele>
        <time>2021-01-02T10:23:09Z</time>
      </trkpt>
      <trkpt lat="42.50833" lon="1.95259">
        <ele>1639</ele>
        <time>2021-01-02T10:23:13Z</time>
      </trkpt>
      <trkpt lat="42.50835" lon="1.9526">
        <ele>1640</ele>
        <time>2021-01-02T10:23:14Z</time>
      </trkpt>
      <trkpt lat="42.50837" lon="1.9526">
        <ele>1642</ele>
        <time>2021-01-02T10:23:19Z</time>
      </trkpt>
      <trkpt lat="42.50842" lon="1.95248">
        <ele>1643</ele>
        <time>2021-01-02T10:24:33Z</time>
      </trkpt>
      <trkpt lat="42.50843" lon="1.95235">
        <ele>1644</ele>
        <time>2021-01-02T10:25:22Z</time>
      </trkpt>
      <trkpt lat="42.50844" lon="1.95235">
        <ele>1644</ele>
        <time>2021-01-02T10:25:33Z</time>
      </trkpt>
      <trkpt lat="42.50844" lon="1.95243">
        <ele>1648</ele>
        <time>2021-01-02T10:27:34Z</time>
      </trkpt>
      <trkpt lat="42.50844" lon="1.9524">
        <ele>1650</ele>
        <time>2021-01-02T10:29:15Z</time>
      </trkpt>
      <trkpt lat="42.50869" lon="1.95225">
        <ele>1655</ele>
        <time>2021-01-02T10:29:46Z</time>
      </trkpt>
      <trkpt lat="42.5087" lon="1.95222">
        <ele>1655</ele>
        <time>2021-01-02T10:29:50Z</time>
      </trkpt>
      <trkpt lat="42.50872" lon="1.95219">
        <ele>1656</ele>
        <time>2021-01-02T10:29:53Z</time>
      </trkpt>
      <trkpt lat="42.50878" lon="1.9522">
        <ele>1657</ele>
        <time>2021-01-02T10:30:01Z</time>
      </trkpt>
      <trkpt lat="42.5088" lon="1.95217">
        <ele>1658</ele>
        <time>2021-01-02T10:30:04Z</time>
      </trkpt>
      <trkpt lat="42.50884" lon="1.95216">
        <ele>1658</ele>
        <time>2021-01-02T10:30:11Z</time>
      </trkpt>
      <trkpt lat="42.50886" lon="1.95213">
        <ele>1659</ele>
        <time>2021-01-02T10:30:15Z</time>
      </trkpt>
      <trkpt lat="42.5089" lon="1.95212">
        <ele>1659</ele>
        <time>2021-01-02T10:30:21Z</time>
      </trkpt>
      <trkpt lat="42.50893" lon="1.9521">
        <ele>1660</ele>
        <time>2021-01-02T10:30:25Z</time>
      </trkpt>
      <trkpt lat="42.50896" lon="1.95213">
        <ele>1660</ele>
        <time>2021-01-02T10:30:28Z</time>
      </trkpt>
      <trkpt lat="42.50899" lon="1.95213">
        <ele>1660</ele>
        <time>2021-01-02T10:30:32Z</time>
      </trkpt>
      <trkpt lat="42.50901" lon="1.9521">
        <ele>1659</ele>
        <time>2021-01-02T10:30:35Z</time>
      </trkpt>
      <trkpt lat="42.50912" lon="1.95201">
        <ele>1656</ele>
        <time>2021-01-02T10:30:48Z</time>
      </trkpt>
      <trkpt lat="42.50918" lon="1.95204">
        <ele>1654</ele>
        <time>2021-01-02T10:30:53Z</time>
      </trkpt>
      <trkpt lat="42.50921" lon="1.95205">
        <ele>1653</ele>
        <time>2021-01-02T10:30:54Z</time>
      </trkpt>
      <trkpt lat="42.50925" lon="1.95206">
        <ele>1651</ele>
        <time>2021-01-02T10:30:57Z</time>
      </trkpt>
      <trkpt lat="42.50933" lon="1.95196">
        <ele>1644</ele>
        <time>2021-01-02T10:31:05Z</time>
      </trkpt>
      <trkpt lat="42.50935" lon="1.95195">
        <ele>1642</ele>
        <time>2021-01-02T10:31:08Z</time>
      </trkpt>
      <trkpt lat="42.5095" lon="1.95178">
        <ele>1632</ele>
        <time>2021-01-02T10:31:29Z</time>
      </trkpt>
      <trkpt lat="42.50951" lon="1.95173">
        <ele>1631</ele>
        <time>2021-01-02T10:31:32Z</time>
      </trkpt>
      <trkpt lat="42.50956" lon="1.95166">
        <ele>1629</ele>
        <time>2021-01-02T10:31:41Z</time>
      </trkpt>
      <trkpt lat="42.50957" lon="1.95161">
        <ele>1628</ele>
        <time>2021-01-02T10:31:45Z</time>
      </trkpt>
      <trkpt lat="42.50957" lon="1.95157">
        <ele>1628</ele>
        <time>2021-01-02T10:31:48Z</time>
      </trkpt>
      <trkpt lat="42.5096" lon="1.95153">
        <ele>1628</ele>
        <time>2021-01-02T10:31:51Z</time>
      </trkpt>
      <trkpt lat="42.50962" lon="1.95149">
        <ele>1629</ele>
        <time>2021-01-02T10:32:04Z</time>
      </trkpt>
      <trkpt lat="42.50966" lon="1.95148">
        <ele>1630</ele>
        <time>2021-01-02T10:32:06Z</time>
      </trkpt>
      <trkpt lat="42.50965" lon="1.95143">
        <ele>1629</ele>
        <time>2021-01-02T10:32:11Z</time>
      </trkpt>
      <trkpt lat="42.50969" lon="1.95142">
        <ele>1629</ele>
        <time>2021-01-02T10:32:14Z</time>
      </trkpt>
      <trkpt lat="42.50988" lon="1.95109">
        <ele>1638</ele>
        <time>2021-01-02T10:32:42Z</time>
      </trkpt>
      <trkpt lat="42.50992" lon="1.95108">
        <ele>1641</ele>
        <time>2021-01-02T10:32:45Z</time>
      </trkpt>
      <trkpt lat="42.51003" lon="1.95105">
        <ele>1645</ele>
        <time>2021-01-02T10:32:48Z</time>
      </trkpt>
      <trkpt lat="42.51005" lon="1.95101">
        <ele>1648</ele>
        <time>2021-01-02T10:32:50Z</time>
      </trkpt>
      <trkpt lat="42.51008" lon="1.95098">
        <ele>1651</ele>
        <time>2021-01-02T10:32:53Z</time>
      </trkpt>
      <trkpt lat="42.51009" lon="1.95095">
        <ele>1656</ele>
        <time>2021-01-02T10:32:56Z</time>
      </trkpt>
      <trkpt lat="42.51012" lon="1.95089">
        <ele>1663</ele>
        <time>2021-01-02T10:33:01Z</time>
      </trkpt>
      <trkpt lat="42.51012" lon="1.95086">
        <ele>1665</ele>
        <time>2021-01-02T10:33:03Z</time>
      </trkpt>
      <trkpt lat="42.51013" lon="1.95078">
        <ele>1676</ele>
        <time>2021-01-02T10:33:10Z</time>
      </trkpt>
      <trkpt lat="42.51014" lon="1.95074">
        <ele>1679</ele>
        <time>2021-01-02T10:33:14Z</time>
      </trkpt>
      <trkpt lat="42.51018" lon="1.95069">
        <ele>1682</ele>
        <time>2021-01-02T10:33:18Z</time>
      </trkpt>
      <trkpt lat="42.51036" lon="1.95053">
        <ele>1695</ele>
        <time>2021-01-02T10:33:37Z</time>
      </trkpt>
      <trkpt lat="42.51038" lon="1.9505">
        <ele>1696</ele>
        <time>2021-01-02T10:33:39Z</time>
      </trkpt>
      <trkpt lat="42.5104" lon="1.95051">
        <ele>1697</ele>
        <time>2021-01-02T10:33:42Z</time>
      </trkpt>
      <trkpt lat="42.51045" lon="1.95046">
        <ele>1703</ele>
        <time>2021-01-02T10:33:52Z</time>
      </trkpt>
      <trkpt lat="42.51047" lon="1.95045">
        <ele>1704</ele>
        <time>2021-01-02T10:33:56Z</time>
      </trkpt>
      <trkpt lat="42.5105" lon="1.95043">
        <ele>1709</ele>
        <time>2021-01-02T10:34:05Z</time>
      </trkpt>
      <trkpt lat="42.51049" lon="1.9504">
        <ele>1709</ele>
        <time>2021-01-02T10:34:09Z</time>
      </trkpt>
      <trkpt lat="42.51049" lon="1.95038">
        <ele>1714</ele>
        <time>2021-01-02T10:34:15Z</time>
      </trkpt>
      <trkpt lat="42.51053" lon="1.95038">
        <ele>1716</ele>
        <time>2021-01-02T10:34:24Z</time>
      </trkpt>
      <trkpt lat="42.51064" lon="1.95016">
        <ele>1721</ele>
        <time>2021-01-02T10:34:55Z</time>
      </trkpt>
      <trkpt lat="42.51065" lon="1.95012">
        <ele>1721</ele>
        <time>2021-01-02T10:34:59Z</time>
      </trkpt>
      <trkpt lat="42.51067" lon="1.95009">
        <ele>1721</ele>
        <time>2021-01-02T10:35:01Z</time>
      </trkpt>
      <trkpt lat="42.51074" lon="1.95002">
        <ele>1721</ele>
        <time>2021-01-02T10:35:10Z</time>
      </trkpt>
      <trkpt lat="42.51081" lon="1.94994">
        <ele>1721</ele>
        <time>2021-01-02T10:35:18Z</time>
      </trkpt>
      <trkpt lat="42.5108" lon="1.94991">
        <ele>1722</ele>
        <time>2021-01-02T10:35:22Z</time>
      </trkpt>
      <trkpt lat="42.51081" lon="1.94986">
        <ele>1722</ele>
        <time>2021-01-02T10:35:29Z</time>
      </trkpt>
      <trkpt lat="42.51082" lon="1.94983">
        <ele>1722</ele>
        <time>2021-01-02T10:35:32Z</time>
      </trkpt>
      <trkpt lat="42.51089" lon="1.94971">
        <ele>1723</ele>
        <time>2021-01-02T10:35:40Z</time>
      </trkpt>
      <trkpt lat="42.51115" lon="1.94938">
        <ele>1726</ele>
        <time>2021-01-02T10:36:10Z</time>
      </trkpt>
      <trkpt lat="42.51125" lon="1.94922">
        <ele>1727</ele>
        <time>2021-01-02T10:36:24Z</time>
      </trkpt>
      <trkpt lat="42.51128" lon="1.94922">
        <ele>1728</ele>
        <time>2021-01-02T10:36:28Z</time>
      </trkpt>
      <trkpt lat="42.51136" lon="1.94913">
        <ele>1728</ele>
        <time>2021-01-02T10:36:38Z</time>
      </trkpt>
      <trkpt lat="42.51138" lon="1.94913">
        <ele>1729</ele>
        <time>2021-01-02T10:36:41Z</time>
      </trkpt>
      <trkpt lat="42.51141" lon="1.94912">
        <ele>1729</ele>
        <time>2021-01-02T10:36:44Z</time>
      </trkpt>
      <trkpt lat="42.51145" lon="1.94908">
        <ele>1730</ele>
        <time>2021-01-02T10:36:49Z</time>
      </trkpt>
      <trkpt lat="42.51147" lon="1.94906">
        <ele>1731</ele>
        <time>2021-01-02T10:36:52Z</time>
      </trkpt>
      <trkpt lat="42.51151" lon="1.94902">
        <ele>1733</ele>
        <time>2021-01-02T10:36:59Z</time>
      </trkpt>
      <trkpt lat="42.51154" lon="1.94901">
        <ele>1733</ele>
        <time>2021-01-02T10:37:03Z</time>
      </trkpt>
      <trkpt lat="42.51155" lon="1.94904">
        <ele>1733</ele>
        <time>2021-01-02T10:37:06Z</time>
      </trkpt>
      <trkpt lat="42.51157" lon="1.94903">
        <ele>1732</ele>
        <time>2021-01-02T10:37:13Z</time>
      </trkpt>
      <trkpt lat="42.51161" lon="1.94899">
        <ele>1732</ele>
        <time>2021-01-02T10:37:23Z</time>
      </trkpt>
      <trkpt lat="42.51163" lon="1.94896">
        <ele>1733</ele>
        <time>2021-01-02T10:37:27Z</time>
      </trkpt>
      <trkpt lat="42.51169" lon="1.9489">
        <ele>1735</ele>
        <time>2021-01-02T10:37:37Z</time>
      </trkpt>
      <trkpt lat="42.51171" lon="1.94891">
        <ele>1736</ele>
        <time>2021-01-02T10:37:42Z</time>
      </trkpt>
      <trkpt lat="42.51179" lon="1.94885">
        <ele>1737</ele>
        <time>2021-01-02T10:37:55Z</time>
      </trkpt>
      <trkpt lat="42.51189" lon="1.94875">
        <ele>1737</ele>
        <time>2021-01-02T10:38:08Z</time>
      </trkpt>
      <trkpt lat="42.51192" lon="1.94874">
        <ele>1738</ele>
        <time>2021-01-02T10:38:12Z</time>
      </trkpt>
      <trkpt lat="42.51199" lon="1.94868">
        <ele>1738</ele>
        <time>2021-01-02T10:38:21Z</time>
      </trkpt>
      <trkpt lat="42.51202" lon="1.94867">
        <ele>1738</ele>
        <time>2021-01-02T10:38:24Z</time>
      </trkpt>
      <trkpt lat="42.51204" lon="1.94865">
        <ele>1738</ele>
        <time>2021-01-02T10:38:27Z</time>
      </trkpt>
      <trkpt lat="42.51205" lon="1.94863">
        <ele>1738</ele>
        <time>2021-01-02T10:38:37Z</time>
      </trkpt>
      <trkpt lat="42.51206" lon="1.94861">
        <ele>1738</ele>
        <time>2021-01-02T10:38:40Z</time>
      </trkpt>
      <trkpt lat="42.51211" lon="1.94858">
        <ele>1738</ele>
        <time>2021-01-02T10:38:45Z</time>
      </trkpt>
      <trkpt lat="42.51213" lon="1.94857">
        <ele>1738</ele>
        <time>2021-01-02T10:38:47Z</time>
      </trkpt>
      <trkpt lat="42.51217" lon="1.94853">
        <ele>1738</ele>
        <time>2021-01-02T10:38:57Z</time>
      </trkpt>
      <trkpt lat="42.5122" lon="1.94852">
        <ele>1738</ele>
        <time>2021-01-02T10:39:00Z</time>
      </trkpt>
      <trkpt lat="42.51224" lon="1.94848">
        <ele>1737</ele>
        <time>2021-01-02T10:39:04Z</time>
      </trkpt>
      <trkpt lat="42.51226" lon="1.94847">
        <ele>1737</ele>
        <time>2021-01-02T10:39:09Z</time>
      </trkpt>
      <trkpt lat="42.51229" lon="1.94843">
        <ele>1737</ele>
        <time>2021-01-02T10:39:15Z</time>
      </trkpt>
      <trkpt lat="42.5125" lon="1.94829">
        <ele>1737</ele>
        <time>2021-01-02T10:39:36Z</time>
      </trkpt>
      <trkpt lat="42.51257" lon="1.94827">
        <ele>1737</ele>
        <time>2021-01-02T10:39:43Z</time>
      </trkpt>
      <trkpt lat="42.51265" lon="1.94826">
        <ele>1738</ele>
        <time>2021-01-02T10:39:58Z</time>
      </trkpt>
      <trkpt lat="42.51279" lon="1.94824">
        <ele>1737</ele>
        <time>2021-01-02T10:40:08Z</time>
      </trkpt>
      <trkpt lat="42.51283" lon="1.94826">
        <ele>1738</ele>
        <time>2021-01-02T10:40:17Z</time>
      </trkpt>
      <trkpt lat="42.51291" lon="1.94824">
        <ele>1738</ele>
        <time>2021-01-02T10:40:27Z</time>
      </trkpt>
      <trkpt lat="42.51302" lon="1.94824">
        <ele>1740</ele>
        <time>2021-01-02T10:40:40Z</time>
      </trkpt>
      <trkpt lat="42.51304" lon="1.94827">
        <ele>1740</ele>
        <time>2021-01-02T10:40:44Z</time>
      </trkpt>
      <trkpt lat="42.51334" lon="1.94837">
        <ele>1744</ele>
        <time>2021-01-02T10:41:14Z</time>
      </trkpt>
      <trkpt lat="42.51336" lon="1.94837">
        <ele>1744</ele>
        <time>2021-01-02T10:41:16Z</time>
      </trkpt>
      <trkpt lat="42.51346" lon="1.94841">
        <ele>1745</ele>
        <time>2021-01-02T10:41:25Z</time>
      </trkpt>
      <trkpt lat="42.5135" lon="1.94847">
        <ele>1746</ele>
        <time>2021-01-02T10:41:34Z</time>
      </trkpt>
      <trkpt lat="42.51355" lon="1.94847">
        <ele>1747</ele>
        <time>2021-01-02T10:41:39Z</time>
      </trkpt>
      <trkpt lat="42.51369" lon="1.94845">
        <ele>1750</ele>
        <time>2021-01-02T10:41:54Z</time>
      </trkpt>
      <trkpt lat="42.51376" lon="1.94852">
        <ele>1751</ele>
        <time>2021-01-02T10:42:03Z</time>
      </trkpt>
      <trkpt lat="42.51378" lon="1.94854">
        <ele>1751</ele>
        <time>2021-01-02T10:42:05Z</time>
      </trkpt>
      <trkpt lat="42.51377" lon="1.94859">
        <ele>1751</ele>
        <time>2021-01-02T10:42:08Z</time>
      </trkpt>
      <trkpt lat="42.51379" lon="1.94862">
        <ele>1751</ele>
        <time>2021-01-02T10:42:11Z</time>
      </trkpt>
      <trkpt lat="42.51396" lon="1.94871">
        <ele>1750</ele>
        <time>2021-01-02T10:42:26Z</time>
      </trkpt>
      <trkpt lat="42.51399" lon="1.94872">
        <ele>1751</ele>
        <time>2021-01-02T10:42:29Z</time>
      </trkpt>
      <trkpt lat="42.51403" lon="1.94875">
        <ele>1752</ele>
        <time>2021-01-02T10:42:34Z</time>
      </trkpt>
      <trkpt lat="42.51407" lon="1.94877">
        <ele>1753</ele>
        <time>2021-01-02T10:42:38Z</time>
      </trkpt>
      <trkpt lat="42.51422" lon="1.94878">
        <ele>1755</ele>
        <time>2021-01-02T10:42:56Z</time>
      </trkpt>
      <trkpt lat="42.51424" lon="1.94878">
        <ele>1755</ele>
        <time>2021-01-02T10:42:58Z</time>
      </trkpt>
      <trkpt lat="42.51426" lon="1.94878">
        <ele>1755</ele>
        <time>2021-01-02T10:43:02Z</time>
      </trkpt>
      <trkpt lat="42.51429" lon="1.94878">
        <ele>1755</ele>
        <time>2021-01-02T10:43:05Z</time>
      </trkpt>
      <trkpt lat="42.51444" lon="1.94876">
        <ele>1756</ele>
        <time>2021-01-02T10:43:19Z</time>
      </trkpt>
      <trkpt lat="42.51447" lon="1.94877">
        <ele>1757</ele>
        <time>2021-01-02T10:43:22Z</time>
      </trkpt>
      <trkpt lat="42.5145" lon="1.94877">
        <ele>1757</ele>
        <time>2021-01-02T10:43:24Z</time>
      </trkpt>
      <trkpt lat="42.51455" lon="1.94877">
        <ele>1759</ele>
        <time>2021-01-02T10:43:30Z</time>
      </trkpt>
      <trkpt lat="42.51459" lon="1.94882">
        <ele>1761</ele>
        <time>2021-01-02T10:43:35Z</time>
      </trkpt>
      <trkpt lat="42.51466" lon="1.94884">
        <ele>1763</ele>
        <time>2021-01-02T10:43:41Z</time>
      </trkpt>
      <trkpt lat="42.51468" lon="1.94886">
        <ele>1763</ele>
        <time>2021-01-02T10:43:43Z</time>
      </trkpt>
      <trkpt lat="42.51473" lon="1.94887">
        <ele>1764</ele>
        <time>2021-01-02T10:43:47Z</time>
      </trkpt>
      <trkpt lat="42.5148" lon="1.94884">
        <ele>1764</ele>
        <time>2021-01-02T10:43:53Z</time>
      </trkpt>
      <trkpt lat="42.51483" lon="1.94886">
        <ele>1764</ele>
        <time>2021-01-02T10:43:55Z</time>
      </trkpt>
      <trkpt lat="42.51497" lon="1.94894">
        <ele>1766</ele>
        <time>2021-01-02T10:44:06Z</time>
      </trkpt>
      <trkpt lat="42.515" lon="1.94895">
        <ele>1767</ele>
        <time>2021-01-02T10:44:08Z</time>
      </trkpt>
      <trkpt lat="42.51502" lon="1.94894">
        <ele>1767</ele>
        <time>2021-01-02T10:44:10Z</time>
      </trkpt>
      <trkpt lat="42.51504" lon="1.94895">
        <ele>1767</ele>
        <time>2021-01-02T10:44:13Z</time>
      </trkpt>
      <trkpt lat="42.51507" lon="1.94898">
        <ele>1767</ele>
        <time>2021-01-02T10:44:15Z</time>
      </trkpt>
      <trkpt lat="42.5151" lon="1.94899">
        <ele>1767</ele>
        <time>2021-01-02T10:44:17Z</time>
      </trkpt>
      <trkpt lat="42.51513" lon="1.94902">
        <ele>1767</ele>
        <time>2021-01-02T10:44:19Z</time>
      </trkpt>
      <trkpt lat="42.51519" lon="1.94904">
        <ele>1767</ele>
        <time>2021-01-02T10:44:22Z</time>
      </trkpt>
      <trkpt lat="42.51521" lon="1.94904">
        <ele>1767</ele>
        <time>2021-01-02T10:44:23Z</time>
      </trkpt>
      <trkpt lat="42.5153" lon="1.94907">
        <ele>1767</ele>
        <time>2021-01-02T10:44:29Z</time>
      </trkpt>
      <trkpt lat="42.51533" lon="1.94912">
        <ele>1767</ele>
        <time>2021-01-02T10:44:33Z</time>
      </trkpt>
      <trkpt lat="42.51547" lon="1.94926">
        <ele>1759</ele>
        <time>2021-01-02T10:44:47Z</time>
      </trkpt>
      <trkpt lat="42.51549" lon="1.94928">
        <ele>1758</ele>
        <time>2021-01-02T10:44:49Z</time>
      </trkpt>
      <trkpt lat="42.51549" lon="1.94931">
        <ele>1757</ele>
        <time>2021-01-02T10:44:52Z</time>
      </trkpt>
      <trkpt lat="42.51555" lon="1.94953">
        <ele>1756</ele>
        <time>2021-01-02T10:45:09Z</time>
      </trkpt>
      <trkpt lat="42.51556" lon="1.94955">
        <ele>1757</ele>
        <time>2021-01-02T10:45:12Z</time>
      </trkpt>
      <trkpt lat="42.51557" lon="1.94958">
        <ele>1757</ele>
        <time>2021-01-02T10:45:14Z</time>
      </trkpt>
      <trkpt lat="42.51558" lon="1.9496">
        <ele>1758</ele>
        <time>2021-01-02T10:45:17Z</time>
      </trkpt>
      <trkpt lat="42.51565" lon="1.94982">
        <ele>1768</ele>
        <time>2021-01-02T10:45:42Z</time>
      </trkpt>
      <trkpt lat="42.51565" lon="1.94982">
        <ele>1774</ele>
        <time>2021-01-02T10:47:35Z</time>
      </trkpt>
      <trkpt lat="42.51567" lon="1.94983">
        <ele>1778</ele>
        <time>2021-01-02T10:47:56Z</time>
      </trkpt>
      <trkpt lat="42.51568" lon="1.94982">
        <ele>1778</ele>
        <time>2021-01-02T10:48:01Z</time>
      </trkpt>
      <trkpt lat="42.51566" lon="1.94987">
        <ele>1779</ele>
        <time>2021-01-02T10:50:10Z</time>
      </trkpt>
      <trkpt lat="42.5158" lon="1.95006">
        <ele>1779</ele>
        <time>2021-01-02T10:50:29Z</time>
      </trkpt>
      <trkpt lat="42.51581" lon="1.95008">
        <ele>1779</ele>
        <time>2021-01-02T10:50:32Z</time>
      </trkpt>
      <trkpt lat="42.51581" lon="1.95012">
        <ele>1779</ele>
        <time>2021-01-02T10:50:37Z</time>
      </trkpt>
      <trkpt lat="42.51582" lon="1.95014">
        <ele>1779</ele>
        <time>2021-01-02T10:50:40Z</time>
      </trkpt>
      <trkpt lat="42.51587" lon="1.9502">
        <ele>1779</ele>
        <time>2021-01-02T10:50:47Z</time>
      </trkpt>
      <trkpt lat="42.51593" lon="1.9502">
        <ele>1779</ele>
        <time>2021-01-02T10:50:52Z</time>
      </trkpt>
      <trkpt lat="42.51597" lon="1.95024">
        <ele>1780</ele>
        <time>2021-01-02T10:50:58Z</time>
      </trkpt>
      <trkpt lat="42.51605" lon="1.95028">
        <ele>1780</ele>
        <time>2021-01-02T10:51:06Z</time>
      </trkpt>
      <trkpt lat="42.51619" lon="1.95037">
        <ele>1779</ele>
        <time>2021-01-02T10:51:23Z</time>
      </trkpt>
      <trkpt lat="42.51622" lon="1.95043">
        <ele>1779</ele>
        <time>2021-01-02T10:51:27Z</time>
      </trkpt>
      <trkpt lat="42.51625" lon="1.95044">
        <ele>1780</ele>
        <time>2021-01-02T10:51:29Z</time>
      </trkpt>
      <trkpt lat="42.51627" lon="1.95044">
        <ele>1780</ele>
        <time>2021-01-02T10:51:32Z</time>
      </trkpt>
      <trkpt lat="42.51629" lon="1.95045">
        <ele>1781</ele>
        <time>2021-01-02T10:51:37Z</time>
      </trkpt>
      <trkpt lat="42.51631" lon="1.95043">
        <ele>1781</ele>
        <time>2021-01-02T10:51:40Z</time>
      </trkpt>
      <trkpt lat="42.51633" lon="1.9504">
        <ele>1781</ele>
        <time>2021-01-02T10:51:42Z</time>
      </trkpt>
      <trkpt lat="42.51635" lon="1.95041">
        <ele>1781</ele>
        <time>2021-01-02T10:51:44Z</time>
      </trkpt>
      <trkpt lat="42.5164" lon="1.95042">
        <ele>1780</ele>
        <time>2021-01-02T10:51:48Z</time>
      </trkpt>
      <trkpt lat="42.51643" lon="1.95043">
        <ele>1780</ele>
        <time>2021-01-02T10:51:50Z</time>
      </trkpt>
      <trkpt lat="42.51645" lon="1.95045">
        <ele>1779</ele>
        <time>2021-01-02T10:51:52Z</time>
      </trkpt>
      <trkpt lat="42.51647" lon="1.95046">
        <ele>1779</ele>
        <time>2021-01-02T10:51:55Z</time>
      </trkpt>
      <trkpt lat="42.51649" lon="1.95045">
        <ele>1779</ele>
        <time>2021-01-02T10:52:00Z</time>
      </trkpt>
      <trkpt lat="42.51655" lon="1.95056">
        <ele>1777</ele>
        <time>2021-01-02T10:52:09Z</time>
      </trkpt>
      <trkpt lat="42.51657" lon="1.95059">
        <ele>1777</ele>
        <time>2021-01-02T10:52:11Z</time>
      </trkpt>
      <trkpt lat="42.5166" lon="1.95059">
        <ele>1776</ele>
        <time>2021-01-02T10:52:14Z</time>
      </trkpt>
      <trkpt lat="42.51662" lon="1.95056">
        <ele>1776</ele>
        <time>2021-01-02T10:52:18Z</time>
      </trkpt>
      <trkpt lat="42.51663" lon="1.95054">
        <ele>1775</ele>
        <time>2021-01-02T10:52:20Z</time>
      </trkpt>
      <trkpt lat="42.51666" lon="1.95054">
        <ele>1774</ele>
        <time>2021-01-02T10:52:22Z</time>
      </trkpt>
      <trkpt lat="42.51676" lon="1.95059">
        <ele>1772</ele>
        <time>2021-01-02T10:52:29Z</time>
      </trkpt>
      <trkpt lat="42.51678" lon="1.95061">
        <ele>1772</ele>
        <time>2021-01-02T10:52:32Z</time>
      </trkpt>
      <trkpt lat="42.5168" lon="1.95059">
        <ele>1772</ele>
        <time>2021-01-02T10:52:35Z</time>
      </trkpt>
      <trkpt lat="42.51682" lon="1.95059">
        <ele>1770</ele>
        <time>2021-01-02T10:52:40Z</time>
      </trkpt>
      <trkpt lat="42.51684" lon="1.95063">
        <ele>1768</ele>
        <time>2021-01-02T10:52:44Z</time>
      </trkpt>
      <trkpt lat="42.51686" lon="1.95065">
        <ele>1767</ele>
        <time>2021-01-02T10:52:47Z</time>
      </trkpt>
      <trkpt lat="42.51687" lon="1.95069">
        <ele>1766</ele>
        <time>2021-01-02T10:52:49Z</time>
      </trkpt>
      <trkpt lat="42.51689" lon="1.95072">
        <ele>1766</ele>
        <time>2021-01-02T10:52:51Z</time>
      </trkpt>
      <trkpt lat="42.5169" lon="1.95073">
        <ele>1767</ele>
        <time>2021-01-02T10:52:53Z</time>
      </trkpt>
      <trkpt lat="42.51693" lon="1.95074">
        <ele>1766</ele>
        <time>2021-01-02T10:52:56Z</time>
      </trkpt>
      <trkpt lat="42.51696" lon="1.95073">
        <ele>1766</ele>
        <time>2021-01-02T10:52:59Z</time>
      </trkpt>
      <trkpt lat="42.51701" lon="1.95073">
        <ele>1766</ele>
        <time>2021-01-02T10:53:05Z</time>
      </trkpt>
      <trkpt lat="42.51706" lon="1.95077">
        <ele>1766</ele>
        <time>2021-01-02T10:53:10Z</time>
      </trkpt>
      <trkpt lat="42.5171" lon="1.95074">
        <ele>1767</ele>
        <time>2021-01-02T10:53:17Z</time>
      </trkpt>
      <trkpt lat="42.51712" lon="1.95076">
        <ele>1768</ele>
        <time>2021-01-02T10:53:20Z</time>
      </trkpt>
      <trkpt lat="42.51724" lon="1.95089">
        <ele>1773</ele>
        <time>2021-01-02T10:53:30Z</time>
      </trkpt>
      <trkpt lat="42.5173" lon="1.95096">
        <ele>1775</ele>
        <time>2021-01-02T10:53:36Z</time>
      </trkpt>
      <trkpt lat="42.51736" lon="1.95107">
        <ele>1778</ele>
        <time>2021-01-02T10:53:43Z</time>
      </trkpt>
      <trkpt lat="42.51739" lon="1.95116">
        <ele>1779</ele>
        <time>2021-01-02T10:53:47Z</time>
      </trkpt>
      <trkpt lat="42.51743" lon="1.95124">
        <ele>1780</ele>
        <time>2021-01-02T10:53:51Z</time>
      </trkpt>
      <trkpt lat="42.51744" lon="1.95126">
        <ele>1780</ele>
        <time>2021-01-02T10:53:54Z</time>
      </trkpt>
      <trkpt lat="42.51745" lon="1.9513">
        <ele>1780</ele>
        <time>2021-01-02T10:53:57Z</time>
      </trkpt>
      <trkpt lat="42.51746" lon="1.95133">
        <ele>1781</ele>
        <time>2021-01-02T10:53:59Z</time>
      </trkpt>
      <trkpt lat="42.51748" lon="1.95135">
        <ele>1781</ele>
        <time>2021-01-02T10:54:02Z</time>
      </trkpt>
      <trkpt lat="42.5175" lon="1.95138">
        <ele>1781</ele>
        <time>2021-01-02T10:54:04Z</time>
      </trkpt>
      <trkpt lat="42.51752" lon="1.95139">
        <ele>1780</ele>
        <time>2021-01-02T10:54:06Z</time>
      </trkpt>
      <trkpt lat="42.51758" lon="1.95143">
        <ele>1780</ele>
        <time>2021-01-02T10:54:10Z</time>
      </trkpt>
      <trkpt lat="42.51766" lon="1.95149">
        <ele>1782</ele>
        <time>2021-01-02T10:54:17Z</time>
      </trkpt>
      <trkpt lat="42.51767" lon="1.95152">
        <ele>1783</ele>
        <time>2021-01-02T10:54:20Z</time>
      </trkpt>
      <trkpt lat="42.51768" lon="1.95155">
        <ele>1784</ele>
        <time>2021-01-02T10:54:23Z</time>
      </trkpt>
      <trkpt lat="42.51773" lon="1.95162">
        <ele>1784</ele>
        <time>2021-01-02T10:54:29Z</time>
      </trkpt>
      <trkpt lat="42.51781" lon="1.95168">
        <ele>1784</ele>
        <time>2021-01-02T10:54:35Z</time>
      </trkpt>
      <trkpt lat="42.51784" lon="1.95169">
        <ele>1785</ele>
        <time>2021-01-02T10:54:37Z</time>
      </trkpt>
      <trkpt lat="42.51786" lon="1.9517">
        <ele>1785</ele>
        <time>2021-01-02T10:54:39Z</time>
      </trkpt>
      <trkpt lat="42.51789" lon="1.95169">
        <ele>1785</ele>
        <time>2021-01-02T10:54:44Z</time>
      </trkpt>
      <trkpt lat="42.51791" lon="1.95171">
        <ele>1785</ele>
        <time>2021-01-02T10:54:46Z</time>
      </trkpt>
      <trkpt lat="42.51794" lon="1.95171">
        <ele>1784</ele>
        <time>2021-01-02T10:54:48Z</time>
      </trkpt>
      <trkpt lat="42.51796" lon="1.95177">
        <ele>1784</ele>
        <time>2021-01-02T10:54:54Z</time>
      </trkpt>
      <trkpt lat="42.51801" lon="1.9518">
        <ele>1785</ele>
        <time>2021-01-02T10:55:01Z</time>
      </trkpt>
      <trkpt lat="42.51805" lon="1.95185">
        <ele>1786</ele>
        <time>2021-01-02T10:55:05Z</time>
      </trkpt>
      <trkpt lat="42.51805" lon="1.95189">
        <ele>1786</ele>
        <time>2021-01-02T10:55:06Z</time>
      </trkpt>
      <trkpt lat="42.51808" lon="1.95191">
        <ele>1787</ele>
        <time>2021-01-02T10:55:08Z</time>
      </trkpt>
      <trkpt lat="42.51811" lon="1.95196">
        <ele>1788</ele>
        <time>2021-01-02T10:55:11Z</time>
      </trkpt>
      <trkpt lat="42.51811" lon="1.95199">
        <ele>1788</ele>
        <time>2021-01-02T10:55:12Z</time>
      </trkpt>
      <trkpt lat="42.51814" lon="1.95205">
        <ele>1789</ele>
        <time>2021-01-02T10:55:16Z</time>
      </trkpt>
      <trkpt lat="42.51819" lon="1.95206">
        <ele>1790</ele>
        <time>2021-01-02T10:55:19Z</time>
      </trkpt>
      <trkpt lat="42.51822" lon="1.95207">
        <ele>1790</ele>
        <time>2021-01-02T10:55:20Z</time>
      </trkpt>
      <trkpt lat="42.51824" lon="1.95207">
        <ele>1791</ele>
        <time>2021-01-02T10:55:22Z</time>
      </trkpt>
      <trkpt lat="42.51827" lon="1.95208">
        <ele>1791</ele>
        <time>2021-01-02T10:55:24Z</time>
      </trkpt>
      <trkpt lat="42.5183" lon="1.95207">
        <ele>1792</ele>
        <time>2021-01-02T10:55:27Z</time>
      </trkpt>
      <trkpt lat="42.51833" lon="1.95206">
        <ele>1792</ele>
        <time>2021-01-02T10:55:30Z</time>
      </trkpt>
      <trkpt lat="42.51835" lon="1.95204">
        <ele>1793</ele>
        <time>2021-01-02T10:55:33Z</time>
      </trkpt>
      <trkpt lat="42.51841" lon="1.95201">
        <ele>1794</ele>
        <time>2021-01-02T10:55:39Z</time>
      </trkpt>
      <trkpt lat="42.51846" lon="1.95199">
        <ele>1796</ele>
        <time>2021-01-02T10:55:46Z</time>
      </trkpt>
      <trkpt lat="42.51848" lon="1.95199">
        <ele>1796</ele>
        <time>2021-01-02T10:55:48Z</time>
      </trkpt>
      <trkpt lat="42.51853" lon="1.95198">
        <ele>1798</ele>
        <time>2021-01-02T10:55:53Z</time>
      </trkpt>
      <trkpt lat="42.51862" lon="1.95193">
        <ele>1800</ele>
        <time>2021-01-02T10:55:59Z</time>
      </trkpt>
      <trkpt lat="42.51864" lon="1.95193">
        <ele>1800</ele>
        <time>2021-01-02T10:56:02Z</time>
      </trkpt>
      <trkpt lat="42.51867" lon="1.95193">
        <ele>1801</ele>
        <time>2021-01-02T10:56:04Z</time>
      </trkpt>
      <trkpt lat="42.51869" lon="1.95193">
        <ele>1801</ele>
        <time>2021-01-02T10:56:07Z</time>
      </trkpt>
      <trkpt lat="42.51871" lon="1.95196">
        <ele>1803</ele>
        <time>2021-01-02T10:56:10Z</time>
      </trkpt>
      <trkpt lat="42.51876" lon="1.95196">
        <ele>1804</ele>
        <time>2021-01-02T10:56:15Z</time>
      </trkpt>
      <trkpt lat="42.51878" lon="1.95193">
        <ele>1805</ele>
        <time>2021-01-02T10:56:18Z</time>
      </trkpt>
      <trkpt lat="42.51881" lon="1.95191">
        <ele>1806</ele>
        <time>2021-01-02T10:56:20Z</time>
      </trkpt>
      <trkpt lat="42.51898" lon="1.9519">
        <ele>1809</ele>
        <time>2021-01-02T10:56:32Z</time>
      </trkpt>
      <trkpt lat="42.519" lon="1.95191">
        <ele>1809</ele>
        <time>2021-01-02T10:56:35Z</time>
      </trkpt>
      <trkpt lat="42.51903" lon="1.95191">
        <ele>1810</ele>
        <time>2021-01-02T10:56:38Z</time>
      </trkpt>
      <trkpt lat="42.51907" lon="1.95191">
        <ele>1811</ele>
        <time>2021-01-02T10:56:46Z</time>
      </trkpt>
      <trkpt lat="42.5191" lon="1.95192">
        <ele>1809</ele>
        <time>2021-01-02T10:57:00Z</time>
      </trkpt>
      <trkpt lat="42.51912" lon="1.9519">
        <ele>1806</ele>
        <time>2021-01-02T10:57:04Z</time>
      </trkpt>
      <trkpt lat="42.51914" lon="1.95189">
        <ele>1805</ele>
        <time>2021-01-02T10:57:07Z</time>
      </trkpt>
      <trkpt lat="42.51917" lon="1.95189">
        <ele>1803</ele>
        <time>2021-01-02T10:57:10Z</time>
      </trkpt>
      <trkpt lat="42.51919" lon="1.9519">
        <ele>1802</ele>
        <time>2021-01-02T10:57:12Z</time>
      </trkpt>
      <trkpt lat="42.5192" lon="1.95192">
        <ele>1802</ele>
        <time>2021-01-02T10:57:14Z</time>
      </trkpt>
      <trkpt lat="42.51921" lon="1.95192">
        <ele>1799</ele>
        <time>2021-01-02T10:57:32Z</time>
      </trkpt>
      <trkpt lat="42.51925" lon="1.95194">
        <ele>1799</ele>
        <time>2021-01-02T10:57:44Z</time>
      </trkpt>
      <trkpt lat="42.51927" lon="1.95199">
        <ele>1801</ele>
        <time>2021-01-02T10:57:49Z</time>
      </trkpt>
      <trkpt lat="42.51934" lon="1.95203">
        <ele>1802</ele>
        <time>2021-01-02T10:57:54Z</time>
      </trkpt>
      <trkpt lat="42.51936" lon="1.95205">
        <ele>1802</ele>
        <time>2021-01-02T10:57:56Z</time>
      </trkpt>
      <trkpt lat="42.51939" lon="1.9521">
        <ele>1804</ele>
        <time>2021-01-02T10:58:00Z</time>
      </trkpt>
      <trkpt lat="42.51941" lon="1.9521">
        <ele>1805</ele>
        <time>2021-01-02T10:58:05Z</time>
      </trkpt>
      <trkpt lat="42.51946" lon="1.95217">
        <ele>1806</ele>
        <time>2021-01-02T10:58:13Z</time>
      </trkpt>
      <trkpt lat="42.5195" lon="1.95224">
        <ele>1806</ele>
        <time>2021-01-02T10:58:19Z</time>
      </trkpt>
      <trkpt lat="42.51951" lon="1.95227">
        <ele>1807</ele>
        <time>2021-01-02T10:58:21Z</time>
      </trkpt>
      <trkpt lat="42.51952" lon="1.95229">
        <ele>1807</ele>
        <time>2021-01-02T10:58:24Z</time>
      </trkpt>
      <trkpt lat="42.51953" lon="1.95231">
        <ele>1808</ele>
        <time>2021-01-02T10:58:28Z</time>
      </trkpt>
      <trkpt lat="42.51954" lon="1.95232">
        <ele>1808</ele>
        <time>2021-01-02T10:58:32Z</time>
      </trkpt>
      <trkpt lat="42.51954" lon="1.95234">
        <ele>1808</ele>
        <time>2021-01-02T10:58:35Z</time>
      </trkpt>
      <trkpt lat="42.51968" lon="1.95258">
        <ele>1815</ele>
        <time>2021-01-02T10:59:01Z</time>
      </trkpt>
      <trkpt lat="42.5197" lon="1.95257">
        <ele>1816</ele>
        <time>2021-01-02T10:59:03Z</time>
      </trkpt>
      <trkpt lat="42.51972" lon="1.95255">
        <ele>1816</ele>
        <time>2021-01-02T10:59:06Z</time>
      </trkpt>
      <trkpt lat="42.51974" lon="1.95255">
        <ele>1816</ele>
        <time>2021-01-02T10:59:11Z</time>
      </trkpt>
      <trkpt lat="42.51976" lon="1.95254">
        <ele>1816</ele>
        <time>2021-01-02T10:59:15Z</time>
      </trkpt>
      <trkpt lat="42.51977" lon="1.95256">
        <ele>1816</ele>
        <time>2021-01-02T10:59:19Z</time>
      </trkpt>
      <trkpt lat="42.51979" lon="1.95258">
        <ele>1816</ele>
        <time>2021-01-02T10:59:23Z</time>
      </trkpt>
      <trkpt lat="42.5198" lon="1.9526">
        <ele>1816</ele>
        <time>2021-01-02T10:59:27Z</time>
      </trkpt>
      <trkpt lat="42.51984" lon="1.95261">
        <ele>1815</ele>
        <time>2021-01-02T10:59:36Z</time>
      </trkpt>
      <trkpt lat="42.5199" lon="1.95254">
        <ele>1810</ele>
        <time>2021-01-02T10:59:42Z</time>
      </trkpt>
      <trkpt lat="42.51993" lon="1.95255">
        <ele>1810</ele>
        <time>2021-01-02T10:59:45Z</time>
      </trkpt>
      <trkpt lat="42.51996" lon="1.95257">
        <ele>1809</ele>
        <time>2021-01-02T10:59:48Z</time>
      </trkpt>
      <trkpt lat="42.51998" lon="1.95257">
        <ele>1807</ele>
        <time>2021-01-02T10:59:51Z</time>
      </trkpt>
      <trkpt lat="42.52004" lon="1.95254">
        <ele>1806</ele>
        <time>2021-01-02T10:59:58Z</time>
      </trkpt>
      <trkpt lat="42.52006" lon="1.95254">
        <ele>1806</ele>
        <time>2021-01-02T11:00:00Z</time>
      </trkpt>
      <trkpt lat="42.52006" lon="1.95257">
        <ele>1806</ele>
        <time>2021-01-02T11:00:02Z</time>
      </trkpt>
      <trkpt lat="42.52008" lon="1.95258">
        <ele>1806</ele>
        <time>2021-01-02T11:00:08Z</time>
      </trkpt>
      <trkpt lat="42.52011" lon="1.95257">
        <ele>1805</ele>
        <time>2021-01-02T11:00:13Z</time>
      </trkpt>
      <trkpt lat="42.52015" lon="1.95254">
        <ele>1805</ele>
        <time>2021-01-02T11:00:17Z</time>
      </trkpt>
      <trkpt lat="42.52017" lon="1.95253">
        <ele>1805</ele>
        <time>2021-01-02T11:00:21Z</time>
      </trkpt>
      <trkpt lat="42.52019" lon="1.9525">
        <ele>1804</ele>
        <time>2021-01-02T11:00:24Z</time>
      </trkpt>
      <trkpt lat="42.52025" lon="1.95247">
        <ele>1801</ele>
        <time>2021-01-02T11:00:29Z</time>
      </trkpt>
      <trkpt lat="42.5203" lon="1.95247">
        <ele>1798</ele>
        <time>2021-01-02T11:00:35Z</time>
      </trkpt>
      <trkpt lat="42.52034" lon="1.95245">
        <ele>1797</ele>
        <time>2021-01-02T11:00:39Z</time>
      </trkpt>
      <trkpt lat="42.52036" lon="1.95243">
        <ele>1797</ele>
        <time>2021-01-02T11:00:43Z</time>
      </trkpt>
      <trkpt lat="42.52039" lon="1.95242">
        <ele>1797</ele>
        <time>2021-01-02T11:00:48Z</time>
      </trkpt>
      <trkpt lat="42.52041" lon="1.95242">
        <ele>1797</ele>
        <time>2021-01-02T11:00:51Z</time>
      </trkpt>
      <trkpt lat="42.52045" lon="1.9524">
        <ele>1797</ele>
        <time>2021-01-02T11:00:56Z</time>
      </trkpt>
      <trkpt lat="42.52056" lon="1.95242">
        <ele>1798</ele>
        <time>2021-01-02T11:01:08Z</time>
      </trkpt>
      <trkpt lat="42.52058" lon="1.95244">
        <ele>1798</ele>
        <time>2021-01-02T11:01:11Z</time>
      </trkpt>
      <trkpt lat="42.52063" lon="1.95245">
        <ele>1798</ele>
        <time>2021-01-02T11:01:18Z</time>
      </trkpt>
      <trkpt lat="42.52065" lon="1.95243">
        <ele>1798</ele>
        <time>2021-01-02T11:01:21Z</time>
      </trkpt>
      <trkpt lat="42.52076" lon="1.95235">
        <ele>1796</ele>
        <time>2021-01-02T11:01:32Z</time>
      </trkpt>
      <trkpt lat="42.52078" lon="1.9524">
        <ele>1796</ele>
        <time>2021-01-02T11:01:35Z</time>
      </trkpt>
      <trkpt lat="42.5208" lon="1.95242">
        <ele>1796</ele>
        <time>2021-01-02T11:01:38Z</time>
      </trkpt>
      <trkpt lat="42.52083" lon="1.95242">
        <ele>1795</ele>
        <time>2021-01-02T11:01:41Z</time>
      </trkpt>
      <trkpt lat="42.52085" lon="1.95245">
        <ele>1792</ele>
        <time>2021-01-02T11:01:46Z</time>
      </trkpt>
      <trkpt lat="42.52087" lon="1.95241">
        <ele>1791</ele>
        <time>2021-01-02T11:01:49Z</time>
      </trkpt>
      <trkpt lat="42.52088" lon="1.9524">
        <ele>1790</ele>
        <time>2021-01-02T11:02:00Z</time>
      </trkpt>
      <trkpt lat="42.52088" lon="1.9524">
        <ele>1797</ele>
        <time>2021-01-02T11:02:11Z</time>
      </trkpt>
      <trkpt lat="42.5209" lon="1.95238">
        <ele>1797</ele>
        <time>2021-01-02T11:02:14Z</time>
      </trkpt>
      <trkpt lat="42.52093" lon="1.95236">
        <ele>1797</ele>
        <time>2021-01-02T11:02:16Z</time>
      </trkpt>
      <trkpt lat="42.52097" lon="1.95233">
        <ele>1796</ele>
        <time>2021-01-02T11:02:18Z</time>
      </trkpt>
      <trkpt lat="42.521" lon="1.95236">
        <ele>1795</ele>
        <time>2021-01-02T11:02:20Z</time>
      </trkpt>
      <trkpt lat="42.52102" lon="1.95239">
        <ele>1794</ele>
        <time>2021-01-02T11:02:24Z</time>
      </trkpt>
      <trkpt lat="42.52106" lon="1.95245">
        <ele>1795</ele>
        <time>2021-01-02T11:02:29Z</time>
      </trkpt>
      <trkpt lat="42.52107" lon="1.95249">
        <ele>1796</ele>
        <time>2021-01-02T11:02:30Z</time>
      </trkpt>
      <trkpt lat="42.5211" lon="1.95256">
        <ele>1799</ele>
        <time>2021-01-02T11:02:35Z</time>
      </trkpt>
      <trkpt lat="42.52111" lon="1.95258">
        <ele>1801</ele>
        <time>2021-01-02T11:02:39Z</time>
      </trkpt>
      <trkpt lat="42.52114" lon="1.95257">
        <ele>1803</ele>
        <time>2021-01-02T11:02:42Z</time>
      </trkpt>
      <trkpt lat="42.52119" lon="1.95261">
        <ele>1805</ele>
        <time>2021-01-02T11:02:47Z</time>
      </trkpt>
      <trkpt lat="42.5212" lon="1.95263">
        <ele>1806</ele>
        <time>2021-01-02T11:02:51Z</time>
      </trkpt>
      <trkpt lat="42.52125" lon="1.95274">
        <ele>1810</ele>
        <time>2021-01-02T11:02:58Z</time>
      </trkpt>
      <trkpt lat="42.52124" lon="1.9528">
        <ele>1810</ele>
        <time>2021-01-02T11:03:04Z</time>
      </trkpt>
      <trkpt lat="42.52121" lon="1.95283">
        <ele>1810</ele>
        <time>2021-01-02T11:03:06Z</time>
      </trkpt>
      <trkpt lat="42.52119" lon="1.95286">
        <ele>1810</ele>
        <time>2021-01-02T11:03:08Z</time>
      </trkpt>
      <trkpt lat="42.52119" lon="1.95281">
        <ele>1810</ele>
        <time>2021-01-02T11:03:12Z</time>
      </trkpt>
      <trkpt lat="42.52121" lon="1.95283">
        <ele>1806</ele>
        <time>2021-01-02T11:03:20Z</time>
      </trkpt>
      <trkpt lat="42.52125" lon="1.95282">
        <ele>1804</ele>
        <time>2021-01-02T11:03:22Z</time>
      </trkpt>
      <trkpt lat="42.52128" lon="1.95283">
        <ele>1803</ele>
        <time>2021-01-02T11:03:24Z</time>
      </trkpt>
      <trkpt lat="42.52133" lon="1.95288">
        <ele>1803</ele>
        <time>2021-01-02T11:03:26Z</time>
      </trkpt>
      <trkpt lat="42.52137" lon="1.95289">
        <ele>1804</ele>
        <time>2021-01-02T11:03:28Z</time>
      </trkpt>
      <trkpt lat="42.5214" lon="1.95293">
        <ele>1804</ele>
        <time>2021-01-02T11:03:30Z</time>
      </trkpt>
      <trkpt lat="42.52141" lon="1.95296">
        <ele>1805</ele>
        <time>2021-01-02T11:03:34Z</time>
      </trkpt>
      <trkpt lat="42.52142" lon="1.953">
        <ele>1806</ele>
        <time>2021-01-02T11:03:35Z</time>
      </trkpt>
      <trkpt lat="42.52143" lon="1.95303">
        <ele>1807</ele>
        <time>2021-01-02T11:03:39Z</time>
      </trkpt>
      <trkpt lat="42.52149" lon="1.95306">
        <ele>1811</ele>
        <time>2021-01-02T11:03:44Z</time>
      </trkpt>
      <trkpt lat="42.52154" lon="1.95315">
        <ele>1816</ele>
        <time>2021-01-02T11:03:49Z</time>
      </trkpt>
      <trkpt lat="42.52158" lon="1.95317">
        <ele>1820</ele>
        <time>2021-01-02T11:03:52Z</time>
      </trkpt>
      <trkpt lat="42.5216" lon="1.95331">
        <ele>1829</ele>
        <time>2021-01-02T11:04:04Z</time>
      </trkpt>
      <trkpt lat="42.52162" lon="1.95333">
        <ele>1830</ele>
        <time>2021-01-02T11:04:07Z</time>
      </trkpt>
      <trkpt lat="42.52164" lon="1.95339">
        <ele>1835</ele>
        <time>2021-01-02T11:04:13Z</time>
      </trkpt>
      <trkpt lat="42.52162" lon="1.95342">
        <ele>1837</ele>
        <time>2021-01-02T11:04:16Z</time>
      </trkpt>
      <trkpt lat="42.52165" lon="1.95348">
        <ele>1836</ele>
        <time>2021-01-02T11:04:24Z</time>
      </trkpt>
      <trkpt lat="42.52182" lon="1.95371">
        <ele>1838</ele>
        <time>2021-01-02T11:04:52Z</time>
      </trkpt>
      <trkpt lat="42.52183" lon="1.95374">
        <ele>1840</ele>
        <time>2021-01-02T11:05:02Z</time>
      </trkpt>
      <trkpt lat="42.52189" lon="1.95383">
        <ele>1840</ele>
        <time>2021-01-02T11:05:11Z</time>
      </trkpt>
      <trkpt lat="42.52191" lon="1.95383">
        <ele>1840</ele>
        <time>2021-01-02T11:05:13Z</time>
      </trkpt>
      <trkpt lat="42.52194" lon="1.95386">
        <ele>1839</ele>
        <time>2021-01-02T11:05:20Z</time>
      </trkpt>
      <trkpt lat="42.52201" lon="1.95393">
        <ele>1839</ele>
        <time>2021-01-02T11:05:31Z</time>
      </trkpt>
      <trkpt lat="42.52207" lon="1.95394">
        <ele>1839</ele>
        <time>2021-01-02T11:05:42Z</time>
      </trkpt>
      <trkpt lat="42.52209" lon="1.95392">
        <ele>1839</ele>
        <time>2021-01-02T11:05:45Z</time>
      </trkpt>
      <trkpt lat="42.52212" lon="1.95393">
        <ele>1839</ele>
        <time>2021-01-02T11:05:49Z</time>
      </trkpt>
      <trkpt lat="42.52213" lon="1.95391">
        <ele>1839</ele>
        <time>2021-01-02T11:05:52Z</time>
      </trkpt>
      <trkpt lat="42.52216" lon="1.95392">
        <ele>1840</ele>
        <time>2021-01-02T11:05:57Z</time>
      </trkpt>
      <trkpt lat="42.52218" lon="1.95391">
        <ele>1840</ele>
        <time>2021-01-02T11:06:01Z</time>
      </trkpt>
      <trkpt lat="42.52222" lon="1.95391">
        <ele>1840</ele>
        <time>2021-01-02T11:06:08Z</time>
      </trkpt>
      <trkpt lat="42.52225" lon="1.95392">
        <ele>1839</ele>
        <time>2021-01-02T11:06:14Z</time>
      </trkpt>
      <trkpt lat="42.52227" lon="1.95392">
        <ele>1838</ele>
        <time>2021-01-02T11:06:18Z</time>
      </trkpt>
      <trkpt lat="42.52234" lon="1.95387">
        <ele>1835</ele>
        <time>2021-01-02T11:06:29Z</time>
      </trkpt>
      <trkpt lat="42.52237" lon="1.95387">
        <ele>1834</ele>
        <time>2021-01-02T11:06:32Z</time>
      </trkpt>
      <trkpt lat="42.5224" lon="1.95388">
        <ele>1833</ele>
        <time>2021-01-02T11:06:34Z</time>
      </trkpt>
      <trkpt lat="42.52241" lon="1.95392">
        <ele>1833</ele>
        <time>2021-01-02T11:06:36Z</time>
      </trkpt>
      <trkpt lat="42.52243" lon="1.95393">
        <ele>1832</ele>
        <time>2021-01-02T11:06:44Z</time>
      </trkpt>
      <trkpt lat="42.52245" lon="1.95393">
        <ele>1831</ele>
        <time>2021-01-02T11:06:48Z</time>
      </trkpt>
      <trkpt lat="42.52248" lon="1.95393">
        <ele>1831</ele>
        <time>2021-01-02T11:06:50Z</time>
      </trkpt>
      <trkpt lat="42.5225" lon="1.95393">
        <ele>1831</ele>
        <time>2021-01-02T11:06:53Z</time>
      </trkpt>
      <trkpt lat="42.52252" lon="1.95395">
        <ele>1833</ele>
        <time>2021-01-02T11:07:02Z</time>
      </trkpt>
      <trkpt lat="42.52253" lon="1.95393">
        <ele>1835</ele>
        <time>2021-01-02T11:07:07Z</time>
      </trkpt>
      <trkpt lat="42.52255" lon="1.95394">
        <ele>1838</ele>
        <time>2021-01-02T11:07:17Z</time>
      </trkpt>
      <trkpt lat="42.52258" lon="1.9539">
        <ele>1839</ele>
        <time>2021-01-02T11:07:34Z</time>
      </trkpt>
      <trkpt lat="42.5226" lon="1.9539">
        <ele>1839</ele>
        <time>2021-01-02T11:07:37Z</time>
      </trkpt>
      <trkpt lat="42.52279" lon="1.95368">
        <ele>1842</ele>
        <time>2021-01-02T11:08:05Z</time>
      </trkpt>
      <trkpt lat="42.52281" lon="1.9537">
        <ele>1842</ele>
        <time>2021-01-02T11:08:09Z</time>
      </trkpt>
      <trkpt lat="42.52276" lon="1.95383">
        <ele>1842</ele>
        <time>2021-01-02T11:08:11Z</time>
      </trkpt>
      <trkpt lat="42.52269" lon="1.95416">
        <ele>1841</ele>
        <time>2021-01-02T11:08:15Z</time>
      </trkpt>
      <trkpt lat="42.52273" lon="1.95414">
        <ele>1840</ele>
        <time>2021-01-02T11:08:16Z</time>
      </trkpt>
      <trkpt lat="42.52276" lon="1.95424">
        <ele>1840</ele>
        <time>2021-01-02T11:08:17Z</time>
      </trkpt>
      <trkpt lat="42.52271" lon="1.95449">
        <ele>1837</ele>
        <time>2021-01-02T11:08:22Z</time>
      </trkpt>
      <trkpt lat="42.52273" lon="1.95448">
        <ele>1835</ele>
        <time>2021-01-02T11:08:24Z</time>
      </trkpt>
      <trkpt lat="42.5226" lon="1.95423">
        <ele>1833</ele>
        <time>2021-01-02T11:08:29Z</time>
      </trkpt>
      <trkpt lat="42.52267" lon="1.95413">
        <ele>1834</ele>
        <time>2021-01-02T11:08:31Z</time>
      </trkpt>
      <trkpt lat="42.52279" lon="1.95385">
        <ele>1836</ele>
        <time>2021-01-02T11:08:39Z</time>
      </trkpt>
      <trkpt lat="42.5228" lon="1.95383">
        <ele>1838</ele>
        <time>2021-01-02T11:09:18Z</time>
      </trkpt>
      <trkpt lat="42.52289" lon="1.95383">
        <ele>1840</ele>
        <time>2021-01-02T11:10:40Z</time>
      </trkpt>
      <trkpt lat="42.52291" lon="1.95383">
        <ele>1841</ele>
        <time>2021-01-02T11:10:46Z</time>
      </trkpt>
      <trkpt lat="42.52296" lon="1.95375">
        <ele>1842</ele>
        <time>2021-01-02T11:13:54Z</time>
      </trkpt>
      <trkpt lat="42.52296" lon="1.95371">
        <ele>1842</ele>
        <time>2021-01-02T11:13:56Z</time>
      </trkpt>
      <trkpt lat="42.52295" lon="1.95364">
        <ele>1839</ele>
        <time>2021-01-02T11:20:14Z</time>
      </trkpt>
      <trkpt lat="42.52294" lon="1.95362">
        <ele>1837</ele>
        <time>2021-01-02T11:20:15Z</time>
      </trkpt>
      <trkpt lat="42.52292" lon="1.95362">
        <ele>1833</ele>
        <time>2021-01-02T11:20:25Z</time>
      </trkpt>
      <trkpt lat="42.52295" lon="1.95358">
        <ele>1832</ele>
        <time>2021-01-02T11:20:40Z</time>
      </trkpt>
      <trkpt lat="42.52297" lon="1.95357">
        <ele>1831</ele>
        <time>2021-01-02T11:21:10Z</time>
      </trkpt>
      <trkpt lat="42.52293" lon="1.95369">
        <ele>1833</ele>
        <time>2021-01-02T11:21:16Z</time>
      </trkpt>
      <trkpt lat="42.52295" lon="1.95361">
        <ele>1832</ele>
        <time>2021-01-02T11:23:12Z</time>
      </trkpt>
      <trkpt lat="42.52294" lon="1.9536">
        <ele>1829</ele>
        <time>2021-01-02T11:23:26Z</time>
      </trkpt>
      <trkpt lat="42.52299" lon="1.9535">
        <ele>1830</ele>
        <time>2021-01-02T11:25:01Z</time>
      </trkpt>
      <trkpt lat="42.52291" lon="1.95348">
        <ele>1831</ele>
        <time>2021-01-02T11:25:21Z</time>
      </trkpt>
      <trkpt lat="42.52293" lon="1.95344">
        <ele>1832</ele>
        <time>2021-01-02T11:25:48Z</time>
      </trkpt>
      <trkpt lat="42.52289" lon="1.95356">
        <ele>1832</ele>
        <time>2021-01-02T11:26:09Z</time>
      </trkpt>
      <trkpt lat="42.52289" lon="1.95361">
        <ele>1831</ele>
        <time>2021-01-02T11:26:15Z</time>
      </trkpt>
      <trkpt lat="42.52297" lon="1.95372">
        <ele>1830</ele>
        <time>2021-01-02T11:26:17Z</time>
      </trkpt>
      <trkpt lat="42.52297" lon="1.95369">
        <ele>1829</ele>
        <time>2021-01-02T11:26:39Z</time>
      </trkpt>
      <trkpt lat="42.52294" lon="1.95364">
        <ele>1828</ele>
        <time>2021-01-02T11:28:44Z</time>
      </trkpt>
      <trkpt lat="42.52294" lon="1.95361">
        <ele>1827</ele>
        <time>2021-01-02T11:28:49Z</time>
      </trkpt>
      <trkpt lat="42.52293" lon="1.95348">
        <ele>1824</ele>
        <time>2021-01-02T11:29:48Z</time>
      </trkpt>
      <trkpt lat="42.52293" lon="1.95346">
        <ele>1823</ele>
        <time>2021-01-02T11:29:57Z</time>
      </trkpt>
      <trkpt lat="42.52292" lon="1.95344">
        <ele>1820</ele>
        <time>2021-01-02T11:31:00Z</time>
      </trkpt>
      <trkpt lat="42.52285" lon="1.95335">
        <ele>1811</ele>
        <time>2021-01-02T11:33:17Z</time>
      </trkpt>
      <trkpt lat="42.52288" lon="1.95334">
        <ele>1804</ele>
        <time>2021-01-02T11:33:45Z</time>
      </trkpt>
      <trkpt lat="42.52289" lon="1.95346">
        <ele>1804</ele>
        <time>2021-01-02T11:34:13Z</time>
      </trkpt>
      <trkpt lat="42.52287" lon="1.95344">
        <ele>1807</ele>
        <time>2021-01-02T11:34:50Z</time>
      </trkpt>
      <trkpt lat="42.52287" lon="1.95341">
        <ele>1807</ele>
        <time>2021-01-02T11:34:53Z</time>
      </trkpt>
      <trkpt lat="42.52285" lon="1.95341">
        <ele>1804</ele>
        <time>2021-01-02T11:36:20Z</time>
      </trkpt>
      <trkpt lat="42.52283" lon="1.95327">
        <ele>1798</ele>
        <time>2021-01-02T11:38:15Z</time>
      </trkpt>
      <trkpt lat="42.52284" lon="1.95318">
        <ele>1796</ele>
        <time>2021-01-02T11:39:50Z</time>
      </trkpt>
      <trkpt lat="42.52283" lon="1.95309">
        <ele>1796</ele>
        <time>2021-01-02T11:39:53Z</time>
      </trkpt>
      <trkpt lat="42.52285" lon="1.95304">
        <ele>1794</ele>
        <time>2021-01-02T11:39:59Z</time>
      </trkpt>
      <trkpt lat="42.52285" lon="1.95299">
        <ele>1792</ele>
        <time>2021-01-02T11:40:03Z</time>
      </trkpt>
      <trkpt lat="42.52284" lon="1.95309">
        <ele>1788</ele>
        <time>2021-01-02T11:43:21Z</time>
      </trkpt>
      <trkpt lat="42.52284" lon="1.95313">
        <ele>1787</ele>
        <time>2021-01-02T11:43:22Z</time>
      </trkpt>
      <trkpt lat="42.52285" lon="1.95322">
        <ele>1788</ele>
        <time>2021-01-02T11:43:24Z</time>
      </trkpt>
      <trkpt lat="42.52288" lon="1.95352">
        <ele>1793</ele>
        <time>2021-01-02T11:43:33Z</time>
      </trkpt>
      <trkpt lat="42.52287" lon="1.95347">
        <ele>1793</ele>
        <time>2021-01-02T11:43:40Z</time>
      </trkpt>
      <trkpt lat="42.5229" lon="1.95343">
        <ele>1794</ele>
        <time>2021-01-02T11:43:43Z</time>
      </trkpt>
      <trkpt lat="42.52291" lon="1.95362">
        <ele>1817</ele>
        <time>2021-01-02T11:44:24Z</time>
      </trkpt>
      <trkpt lat="42.52291" lon="1.95349">
        <ele>1820</ele>
        <time>2021-01-02T11:50:49Z</time>
      </trkpt>
      <trkpt lat="42.52288" lon="1.95361">
        <ele>1822</ele>
        <time>2021-01-02T11:52:52Z</time>
      </trkpt>
      <trkpt lat="42.52297" lon="1.9536">
        <ele>1825</ele>
        <time>2021-01-02T12:01:42Z</time>
      </trkpt>
      <trkpt lat="42.52299" lon="1.95361">
        <ele>1827</ele>
        <time>2021-01-02T12:02:20Z</time>
      </trkpt>
      <trkpt lat="42.5229" lon="1.95366">
        <ele>1829</ele>
        <time>2021-01-02T12:05:23Z</time>
      </trkpt>
      <trkpt lat="42.52288" lon="1.95369">
        <ele>1830</ele>
        <time>2021-01-02T12:05:26Z</time>
      </trkpt>
      <trkpt lat="42.52279" lon="1.95371">
        <ele>1830</ele>
        <time>2021-01-02T12:06:16Z</time>
      </trkpt>
      <trkpt lat="42.52286" lon="1.95363">
        <ele>1830</ele>
        <time>2021-01-02T12:07:59Z</time>
      </trkpt>
      <trkpt lat="42.52293" lon="1.95353">
        <ele>1831</ele>
        <time>2021-01-02T12:10:26Z</time>
      </trkpt>
      <trkpt lat="42.52292" lon="1.95351">
        <ele>1832</ele>
        <time>2021-01-02T12:10:34Z</time>
      </trkpt>
      <trkpt lat="42.52292" lon="1.9535">
        <ele>1836</ele>
        <time>2021-01-02T12:12:33Z</time>
      </trkpt>
      <trkpt lat="42.52301" lon="1.95343">
        <ele>1841</ele>
        <time>2021-01-02T12:13:04Z</time>
      </trkpt>
      <trkpt lat="42.52331" lon="1.95317">
        <ele>1845</ele>
        <time>2021-01-02T12:13:50Z</time>
      </trkpt>
      <trkpt lat="42.52341" lon="1.95311">
        <ele>1846</ele>
        <time>2021-01-02T12:14:06Z</time>
      </trkpt>
      <trkpt lat="42.52351" lon="1.95302">
        <ele>1847</ele>
        <time>2021-01-02T12:14:19Z</time>
      </trkpt>
      <trkpt lat="42.52353" lon="1.953">
        <ele>1847</ele>
        <time>2021-01-02T12:14:25Z</time>
      </trkpt>
      <trkpt lat="42.5238" lon="1.95291">
        <ele>1849</ele>
        <time>2021-01-02T12:14:56Z</time>
      </trkpt>
      <trkpt lat="42.52406" lon="1.95279">
        <ele>1852</ele>
        <time>2021-01-02T12:15:23Z</time>
      </trkpt>
      <trkpt lat="42.52431" lon="1.95276">
        <ele>1855</ele>
        <time>2021-01-02T12:15:50Z</time>
      </trkpt>
      <trkpt lat="42.5245" lon="1.95265">
        <ele>1858</ele>
        <time>2021-01-02T12:16:14Z</time>
      </trkpt>
      <trkpt lat="42.52476" lon="1.95233">
        <ele>1866</ele>
        <time>2021-01-02T12:16:51Z</time>
      </trkpt>
      <trkpt lat="42.52483" lon="1.95222">
        <ele>1868</ele>
        <time>2021-01-02T12:17:05Z</time>
      </trkpt>
      <trkpt lat="42.525" lon="1.95198">
        <ele>1871</ele>
        <time>2021-01-02T12:17:35Z</time>
      </trkpt>
      <trkpt lat="42.52509" lon="1.95188">
        <ele>1873</ele>
        <time>2021-01-02T12:17:52Z</time>
      </trkpt>
      <trkpt lat="42.5252" lon="1.9518">
        <ele>1875</ele>
        <time>2021-01-02T12:18:10Z</time>
      </trkpt>
      <trkpt lat="42.52523" lon="1.9518">
        <ele>1875</ele>
        <time>2021-01-02T12:18:13Z</time>
      </trkpt>
      <trkpt lat="42.52521" lon="1.95183">
        <ele>1876</ele>
        <time>2021-01-02T12:18:53Z</time>
      </trkpt>
      <trkpt lat="42.52513" lon="1.95198">
        <ele>1872</ele>
        <time>2021-01-02T12:19:00Z</time>
      </trkpt>
      <trkpt lat="42.52457" lon="1.95259">
        <ele>1870</ele>
        <time>2021-01-02T12:19:29Z</time>
      </trkpt>
      <trkpt lat="42.52443" lon="1.95266">
        <ele>1866</ele>
        <time>2021-01-02T12:19:35Z</time>
      </trkpt>
      <trkpt lat="42.52419" lon="1.95271">
        <ele>1851</ele>
        <time>2021-01-02T12:19:44Z</time>
      </trkpt>
      <trkpt lat="42.52416" lon="1.95269">
        <ele>1850</ele>
        <time>2021-01-02T12:19:45Z</time>
      </trkpt>
      <trkpt lat="42.5237" lon="1.95277">
        <ele>1833</ele>
        <time>2021-01-02T12:20:05Z</time>
      </trkpt>
      <trkpt lat="42.52344" lon="1.9529">
        <ele>1835</ele>
        <time>2021-01-02T12:20:15Z</time>
      </trkpt>
      <trkpt lat="42.52339" lon="1.95294">
        <ele>1836</ele>
        <time>2021-01-02T12:20:17Z</time>
      </trkpt>
      <trkpt lat="42.52336" lon="1.95298">
        <ele>1837</ele>
        <time>2021-01-02T12:20:19Z</time>
      </trkpt>
      <trkpt lat="42.52333" lon="1.95302">
        <ele>1838</ele>
        <time>2021-01-02T12:20:21Z</time>
      </trkpt>
      <trkpt lat="42.52327" lon="1.9531">
        <ele>1838</ele>
        <time>2021-01-02T12:20:25Z</time>
      </trkpt>
      <trkpt lat="42.52307" lon="1.95335">
        <ele>1842</ele>
        <time>2021-01-02T12:20:34Z</time>
      </trkpt>
      <trkpt lat="42.52285" lon="1.95365">
        <ele>1844</ele>
        <time>2021-01-02T12:20:42Z</time>
      </trkpt>
      <trkpt lat="42.52276" lon="1.95373">
        <ele>1844</ele>
        <time>2021-01-02T12:20:45Z</time>
      </trkpt>
      <trkpt lat="42.5227" lon="1.95375">
        <ele>1845</ele>
        <time>2021-01-02T12:20:47Z</time>
      </trkpt>
      <trkpt lat="42.52256" lon="1.95386">
        <ele>1845</ele>
        <time>2021-01-02T12:20:53Z</time>
      </trkpt>
      <trkpt lat="42.52254" lon="1.95388">
        <ele>1844</ele>
        <time>2021-01-02T12:20:54Z</time>
      </trkpt>
      <trkpt lat="42.52231" lon="1.95386">
        <ele>1842</ele>
        <time>2021-01-02T12:21:03Z</time>
      </trkpt>
      <trkpt lat="42.52217" lon="1.95386">
        <ele>1842</ele>
        <time>2021-01-02T12:21:07Z</time>
      </trkpt>
      <trkpt lat="42.52207" lon="1.95382">
        <ele>1842</ele>
        <time>2021-01-02T12:21:10Z</time>
      </trkpt>
      <trkpt lat="42.52205" lon="1.95379">
        <ele>1842</ele>
        <time>2021-01-02T12:21:11Z</time>
      </trkpt>
      <trkpt lat="42.52169" lon="1.95351">
        <ele>1841</ele>
        <time>2021-01-02T12:21:42Z</time>
      </trkpt>
      <trkpt lat="42.52121" lon="1.95268">
        <ele>1839</ele>
        <time>2021-01-02T12:22:12Z</time>
      </trkpt>
      <trkpt lat="42.52106" lon="1.95251">
        <ele>1837</ele>
        <time>2021-01-02T12:22:17Z</time>
      </trkpt>
      <trkpt lat="42.52103" lon="1.95249">
        <ele>1837</ele>
        <time>2021-01-02T12:22:18Z</time>
      </trkpt>
      <trkpt lat="42.52099" lon="1.95247">
        <ele>1836</ele>
        <time>2021-01-02T12:22:19Z</time>
      </trkpt>
      <trkpt lat="42.52092" lon="1.95245">
        <ele>1835</ele>
        <time>2021-01-02T12:22:21Z</time>
      </trkpt>
      <trkpt lat="42.52061" lon="1.95251">
        <ele>1827</ele>
        <time>2021-01-02T12:22:31Z</time>
      </trkpt>
      <trkpt lat="42.52038" lon="1.95247">
        <ele>1824</ele>
        <time>2021-01-02T12:22:38Z</time>
      </trkpt>
      <trkpt lat="42.51985" lon="1.95251">
        <ele>1813</ele>
        <time>2021-01-02T12:22:54Z</time>
      </trkpt>
      <trkpt lat="42.51969" lon="1.9525">
        <ele>1814</ele>
        <time>2021-01-02T12:23:00Z</time>
      </trkpt>
      <trkpt lat="42.51958" lon="1.95237">
        <ele>1810</ele>
        <time>2021-01-02T12:23:18Z</time>
      </trkpt>
      <trkpt lat="42.51957" lon="1.95233">
        <ele>1808</ele>
        <time>2021-01-02T12:23:20Z</time>
      </trkpt>
      <trkpt lat="42.51955" lon="1.95233">
        <ele>1807</ele>
        <time>2021-01-02T12:23:21Z</time>
      </trkpt>
      <trkpt lat="42.51954" lon="1.95229">
        <ele>1807</ele>
        <time>2021-01-02T12:23:22Z</time>
      </trkpt>
      <trkpt lat="42.51949" lon="1.95221">
        <ele>1805</ele>
        <time>2021-01-02T12:23:26Z</time>
      </trkpt>
      <trkpt lat="42.51948" lon="1.95216">
        <ele>1805</ele>
        <time>2021-01-02T12:23:28Z</time>
      </trkpt>
      <trkpt lat="42.51941" lon="1.9521">
        <ele>1805</ele>
        <time>2021-01-02T12:23:32Z</time>
      </trkpt>
      <trkpt lat="42.51938" lon="1.95208">
        <ele>1804</ele>
        <time>2021-01-02T12:23:34Z</time>
      </trkpt>
      <trkpt lat="42.51936" lon="1.95203">
        <ele>1804</ele>
        <time>2021-01-02T12:23:36Z</time>
      </trkpt>
      <trkpt lat="42.51926" lon="1.95198">
        <ele>1803</ele>
        <time>2021-01-02T12:23:42Z</time>
      </trkpt>
      <trkpt lat="42.51923" lon="1.952">
        <ele>1803</ele>
        <time>2021-01-02T12:23:43Z</time>
      </trkpt>
      <trkpt lat="42.51919" lon="1.95193">
        <ele>1801</ele>
        <time>2021-01-02T12:23:47Z</time>
      </trkpt>
      <trkpt lat="42.51919" lon="1.9519">
        <ele>1801</ele>
        <time>2021-01-02T12:23:48Z</time>
      </trkpt>
      <trkpt lat="42.51916" lon="1.95188">
        <ele>1800</ele>
        <time>2021-01-02T12:23:50Z</time>
      </trkpt>
      <trkpt lat="42.51912" lon="1.95187">
        <ele>1799</ele>
        <time>2021-01-02T12:23:52Z</time>
      </trkpt>
      <trkpt lat="42.51891" lon="1.95189">
        <ele>1799</ele>
        <time>2021-01-02T12:24:05Z</time>
      </trkpt>
      <trkpt lat="42.51836" lon="1.95204">
        <ele>1799</ele>
        <time>2021-01-02T12:24:33Z</time>
      </trkpt>
      <trkpt lat="42.51833" lon="1.95204">
        <ele>1799</ele>
        <time>2021-01-02T12:24:34Z</time>
      </trkpt>
      <trkpt lat="42.51829" lon="1.95202">
        <ele>1799</ele>
        <time>2021-01-02T12:24:36Z</time>
      </trkpt>
      <trkpt lat="42.51827" lon="1.95198">
        <ele>1798</ele>
        <time>2021-01-02T12:24:38Z</time>
      </trkpt>
      <trkpt lat="42.51825" lon="1.95193">
        <ele>1797</ele>
        <time>2021-01-02T12:24:40Z</time>
      </trkpt>
      <trkpt lat="42.51821" lon="1.95191">
        <ele>1797</ele>
        <time>2021-01-02T12:24:42Z</time>
      </trkpt>
      <trkpt lat="42.5182" lon="1.95188">
        <ele>1796</ele>
        <time>2021-01-02T12:24:44Z</time>
      </trkpt>
      <trkpt lat="42.51816" lon="1.95186">
        <ele>1796</ele>
        <time>2021-01-02T12:24:46Z</time>
      </trkpt>
      <trkpt lat="42.51815" lon="1.95183">
        <ele>1796</ele>
        <time>2021-01-02T12:24:48Z</time>
      </trkpt>
      <trkpt lat="42.51812" lon="1.95178">
        <ele>1796</ele>
        <time>2021-01-02T12:24:50Z</time>
      </trkpt>
      <trkpt lat="42.51802" lon="1.95166">
        <ele>1795</ele>
        <time>2021-01-02T12:24:58Z</time>
      </trkpt>
      <trkpt lat="42.51798" lon="1.95164">
        <ele>1795</ele>
        <time>2021-01-02T12:25:00Z</time>
      </trkpt>
      <trkpt lat="42.51792" lon="1.95159">
        <ele>1794</ele>
        <time>2021-01-02T12:25:04Z</time>
      </trkpt>
      <trkpt lat="42.51789" lon="1.95156">
        <ele>1794</ele>
        <time>2021-01-02T12:25:06Z</time>
      </trkpt>
      <trkpt lat="42.51787" lon="1.95153">
        <ele>1794</ele>
        <time>2021-01-02T12:25:08Z</time>
      </trkpt>
      <trkpt lat="42.51782" lon="1.95154">
        <ele>1795</ele>
        <time>2021-01-02T12:25:09Z</time>
      </trkpt>
      <trkpt lat="42.51779" lon="1.9515">
        <ele>1795</ele>
        <time>2021-01-02T12:25:11Z</time>
      </trkpt>
      <trkpt lat="42.5177" lon="1.95141">
        <ele>1795</ele>
        <time>2021-01-02T12:25:19Z</time>
      </trkpt>
      <trkpt lat="42.51762" lon="1.95135">
        <ele>1793</ele>
        <time>2021-01-02T12:25:24Z</time>
      </trkpt>
      <trkpt lat="42.5176" lon="1.95132">
        <ele>1793</ele>
        <time>2021-01-02T12:25:26Z</time>
      </trkpt>
      <trkpt lat="42.51749" lon="1.9511">
        <ele>1786</ele>
        <time>2021-01-02T12:25:36Z</time>
      </trkpt>
      <trkpt lat="42.51748" lon="1.95104">
        <ele>1785</ele>
        <time>2021-01-02T12:25:38Z</time>
      </trkpt>
      <trkpt lat="42.51747" lon="1.95098">
        <ele>1782</ele>
        <time>2021-01-02T12:25:40Z</time>
      </trkpt>
      <trkpt lat="42.51728" lon="1.95077">
        <ele>1774</ele>
        <time>2021-01-02T12:25:49Z</time>
      </trkpt>
      <trkpt lat="42.51725" lon="1.95075">
        <ele>1774</ele>
        <time>2021-01-02T12:25:50Z</time>
      </trkpt>
      <trkpt lat="42.51722" lon="1.95074">
        <ele>1773</ele>
        <time>2021-01-02T12:25:51Z</time>
      </trkpt>
      <trkpt lat="42.51715" lon="1.9507">
        <ele>1772</ele>
        <time>2021-01-02T12:25:54Z</time>
      </trkpt>
      <trkpt lat="42.51688" lon="1.95045">
        <ele>1767</ele>
        <time>2021-01-02T12:26:01Z</time>
      </trkpt>
      <trkpt lat="42.51627" lon="1.94998">
        <ele>1761</ele>
        <time>2021-01-02T12:26:13Z</time>
      </trkpt>
      <trkpt lat="42.51611" lon="1.94988">
        <ele>1760</ele>
        <time>2021-01-02T12:26:16Z</time>
      </trkpt>
      <trkpt lat="42.516" lon="1.94982">
        <ele>1760</ele>
        <time>2021-01-02T12:26:18Z</time>
      </trkpt>
      <trkpt lat="42.51576" lon="1.94953">
        <ele>1759</ele>
        <time>2021-01-02T12:26:24Z</time>
      </trkpt>
      <trkpt lat="42.51565" lon="1.94929">
        <ele>1758</ele>
        <time>2021-01-02T12:26:28Z</time>
      </trkpt>
      <trkpt lat="42.51558" lon="1.94918">
        <ele>1759</ele>
        <time>2021-01-02T12:26:30Z</time>
      </trkpt>
      <trkpt lat="42.51532" lon="1.94894">
        <ele>1757</ele>
        <time>2021-01-02T12:26:36Z</time>
      </trkpt>
      <trkpt lat="42.51456" lon="1.94861">
        <ele>1751</ele>
        <time>2021-01-02T12:26:56Z</time>
      </trkpt>
      <trkpt lat="42.51429" lon="1.94861">
        <ele>1747</ele>
        <time>2021-01-02T12:27:03Z</time>
      </trkpt>
      <trkpt lat="42.51409" lon="1.94852">
        <ele>1747</ele>
        <time>2021-01-02T12:27:08Z</time>
      </trkpt>
      <trkpt lat="42.51385" lon="1.94834">
        <ele>1748</ele>
        <time>2021-01-02T12:27:14Z</time>
      </trkpt>
      <trkpt lat="42.51334" lon="1.94819">
        <ele>1746</ele>
        <time>2021-01-02T12:27:27Z</time>
      </trkpt>
      <trkpt lat="42.51307" lon="1.94819">
        <ele>1745</ele>
        <time>2021-01-02T12:27:36Z</time>
      </trkpt>
      <trkpt lat="42.51298" lon="1.94817">
        <ele>1744</ele>
        <time>2021-01-02T12:27:39Z</time>
      </trkpt>
      <trkpt lat="42.51295" lon="1.94815">
        <ele>1743</ele>
        <time>2021-01-02T12:27:40Z</time>
      </trkpt>
      <trkpt lat="42.51287" lon="1.94816">
        <ele>1743</ele>
        <time>2021-01-02T12:27:42Z</time>
      </trkpt>
      <trkpt lat="42.51274" lon="1.94817">
        <ele>1741</ele>
        <time>2021-01-02T12:27:45Z</time>
      </trkpt>
      <trkpt lat="42.51256" lon="1.94821">
        <ele>1741</ele>
        <time>2021-01-02T12:27:50Z</time>
      </trkpt>
      <trkpt lat="42.51229" lon="1.94838">
        <ele>1739</ele>
        <time>2021-01-02T12:27:59Z</time>
      </trkpt>
      <trkpt lat="42.51194" lon="1.94862">
        <ele>1734</ele>
        <time>2021-01-02T12:28:07Z</time>
      </trkpt>
      <trkpt lat="42.51164" lon="1.94883">
        <ele>1730</ele>
        <time>2021-01-02T12:28:14Z</time>
      </trkpt>
      <trkpt lat="42.51111" lon="1.94935">
        <ele>1727</ele>
        <time>2021-01-02T12:28:44Z</time>
      </trkpt>
      <trkpt lat="42.51092" lon="1.9496">
        <ele>1728</ele>
        <time>2021-01-02T12:29:16Z</time>
      </trkpt>
      <trkpt lat="42.51091" lon="1.94962">
        <ele>1728</ele>
        <time>2021-01-02T12:29:18Z</time>
      </trkpt>
      <trkpt lat="42.51085" lon="1.94971">
        <ele>1729</ele>
        <time>2021-01-02T12:29:25Z</time>
      </trkpt>
      <trkpt lat="42.51082" lon="1.94978">
        <ele>1729</ele>
        <time>2021-01-02T12:29:29Z</time>
      </trkpt>
      <trkpt lat="42.51072" lon="1.94992">
        <ele>1729</ele>
        <time>2021-01-02T12:29:42Z</time>
      </trkpt>
      <trkpt lat="42.51057" lon="1.95024">
        <ele>1730</ele>
        <time>2021-01-02T12:30:06Z</time>
      </trkpt>
      <trkpt lat="42.51053" lon="1.9503">
        <ele>1730</ele>
        <time>2021-01-02T12:30:10Z</time>
      </trkpt>
      <trkpt lat="42.50988" lon="1.95065">
        <ele>1726</ele>
        <time>2021-01-02T12:30:27Z</time>
      </trkpt>
      <trkpt lat="42.50965" lon="1.95087">
        <ele>1722</ele>
        <time>2021-01-02T12:30:31Z</time>
      </trkpt>
      <trkpt lat="42.50882" lon="1.95187">
        <ele>1705</ele>
        <time>2021-01-02T12:30:51Z</time>
      </trkpt>
      <trkpt lat="42.50834" lon="1.95208">
        <ele>1696</ele>
        <time>2021-01-02T12:31:00Z</time>
      </trkpt>
      <trkpt lat="42.50737" lon="1.95258">
        <ele>1674</ele>
        <time>2021-01-02T12:31:21Z</time>
      </trkpt>
      <trkpt lat="42.50702" lon="1.95278">
        <ele>1660</ele>
        <time>2021-01-02T12:31:32Z</time>
      </trkpt>
      <trkpt lat="42.50671" lon="1.95285">
        <ele>1648</ele>
        <time>2021-01-02T12:31:42Z</time>
      </trkpt>
      <trkpt lat="42.50667" lon="1.95288">
        <ele>1647</ele>
        <time>2021-01-02T12:31:43Z</time>
      </trkpt>
      <trkpt lat="42.50634" lon="1.95303">
        <ele>1634</ele>
        <time>2021-01-02T12:31:53Z</time>
      </trkpt>
      <trkpt lat="42.506" lon="1.95326">
        <ele>1619</ele>
        <time>2021-01-02T12:32:05Z</time>
      </trkpt>
      <trkpt lat="42.50599" lon="1.9533">
        <ele>1618</ele>
        <time>2021-01-02T12:32:06Z</time>
      </trkpt>
      <trkpt lat="42.50592" lon="1.95333">
        <ele>1613</ele>
        <time>2021-01-02T12:32:11Z</time>
      </trkpt>
      <trkpt lat="42.50588" lon="1.95333">
        <ele>1611</ele>
        <time>2021-01-02T12:32:13Z</time>
      </trkpt>
      <trkpt lat="42.50585" lon="1.9533">
        <ele>1609</ele>
        <time>2021-01-02T12:32:15Z</time>
      </trkpt>
      <trkpt lat="42.50586" lon="1.95327">
        <ele>1606</ele>
        <time>2021-01-02T12:32:24Z</time>
      </trkpt>
      <trkpt lat="42.50577" lon="1.95333">
        <ele>1605</ele>
        <time>2021-01-02T12:32:58Z</time>
      </trkpt>
      <trkpt lat="42.50576" lon="1.95336">
        <ele>1604</ele>
        <time>2021-01-02T12:33:03Z</time>
      </trkpt>
      <trkpt lat="42.50568" lon="1.95331">
        <ele>1604</ele>
        <time>2021-01-02T12:34:00Z</time>
      </trkpt>
      <trkpt lat="42.50553" lon="1.95317">
        <ele>1603</ele>
        <time>2021-01-02T12:34:17Z</time>
      </trkpt>
      <trkpt lat="42.50544" lon="1.95312">
        <ele>1603</ele>
        <time>2021-01-02T12:34:21Z</time>
      </trkpt>
      <trkpt lat="42.50526" lon="1.95316">
        <ele>1604</ele>
        <time>2021-01-02T12:34:29Z</time>
      </trkpt>
      <trkpt lat="42.50522" lon="1.95317">
        <ele>1604</ele>
        <time>2021-01-02T12:34:30Z</time>
      </trkpt>
      <trkpt lat="42.50484" lon="1.95317">
        <ele>1602</ele>
        <time>2021-01-02T12:34:38Z</time>
      </trkpt>
      <trkpt lat="42.50468" lon="1.95322">
        <ele>1602</ele>
        <time>2021-01-02T12:34:42Z</time>
      </trkpt>
      <trkpt lat="42.50394" lon="1.9531">
        <ele>1599</ele>
        <time>2021-01-02T12:34:56Z</time>
      </trkpt>
      <trkpt lat="42.50389" lon="1.95307">
        <ele>1598</ele>
        <time>2021-01-02T12:34:57Z</time>
      </trkpt>
      <trkpt lat="42.50377" lon="1.95309">
        <ele>1599</ele>
        <time>2021-01-02T12:34:59Z</time>
      </trkpt>
      <trkpt lat="42.50357" lon="1.95289">
        <ele>1600</ele>
        <time>2021-01-02T12:35:04Z</time>
      </trkpt>
      <trkpt lat="42.50309" lon="1.95262">
        <ele>1606</ele>
        <time>2021-01-02T12:35:13Z</time>
      </trkpt>
      <trkpt lat="42.50288" lon="1.95242">
        <ele>1610</ele>
        <time>2021-01-02T12:35:17Z</time>
      </trkpt>
      <trkpt lat="42.50275" lon="1.95234">
        <ele>1610</ele>
        <time>2021-01-02T12:35:20Z</time>
      </trkpt>
      <trkpt lat="42.5027" lon="1.95233">
        <ele>1611</ele>
        <time>2021-01-02T12:35:21Z</time>
      </trkpt>
      <trkpt lat="42.5025" lon="1.95239">
        <ele>1611</ele>
        <time>2021-01-02T12:35:24Z</time>
      </trkpt>
      <trkpt lat="42.50208" lon="1.95247">
        <ele>1610</ele>
        <time>2021-01-02T12:35:30Z</time>
      </trkpt>
      <trkpt lat="42.50197" lon="1.95255">
        <ele>1612</ele>
        <time>2021-01-02T12:35:32Z</time>
      </trkpt>
      <trkpt lat="42.50187" lon="1.95267">
        <ele>1616</ele>
        <time>2021-01-02T12:35:36Z</time>
      </trkpt>
      <trkpt lat="42.50179" lon="1.95278">
        <ele>1619</ele>
        <time>2021-01-02T12:35:43Z</time>
      </trkpt>
      <trkpt lat="42.50179" lon="1.95282">
        <ele>1621</ele>
        <time>2021-01-02T12:36:01Z</time>
      </trkpt>
      <trkpt lat="42.50177" lon="1.95301">
        <ele>1628</ele>
        <time>2021-01-02T12:36:18Z</time>
      </trkpt>
      <trkpt lat="42.50194" lon="1.95329">
        <ele>1635</ele>
        <time>2021-01-02T12:36:34Z</time>
      </trkpt>
      <trkpt lat="42.50211" lon="1.95352">
        <ele>1638</ele>
        <time>2021-01-02T12:36:44Z</time>
      </trkpt>
      <trkpt lat="42.50212" lon="1.95355">
        <ele>1638</ele>
        <time>2021-01-02T12:36:45Z</time>
      </trkpt>
      <trkpt lat="42.50231" lon="1.95377">
        <ele>1638</ele>
        <time>2021-01-02T12:36:56Z</time>
      </trkpt>
      <trkpt lat="42.50237" lon="1.95382">
        <ele>1638</ele>
        <time>2021-01-02T12:36:59Z</time>
      </trkpt>
      <trkpt lat="42.5024" lon="1.95381">
        <ele>1638</ele>
        <time>2021-01-02T12:37:00Z</time>
      </trkpt>
      <trkpt lat="42.50257" lon="1.95396">
        <ele>1638</ele>
        <time>2021-01-02T12:37:09Z</time>
      </trkpt>
      <trkpt lat="42.5029" lon="1.95424">
        <ele>1631</ele>
        <time>2021-01-02T12:37:23Z</time>
      </trkpt>
      <trkpt lat="42.50332" lon="1.95456">
        <ele>1621</ele>
        <time>2021-01-02T12:37:38Z</time>
      </trkpt>
      <trkpt lat="42.5036" lon="1.95503">
        <ele>1610</ele>
        <time>2021-01-02T12:37:49Z</time>
      </trkpt>
      <trkpt lat="42.50363" lon="1.95506">
        <ele>1609</ele>
        <time>2021-01-02T12:37:50Z</time>
      </trkpt>
      <trkpt lat="42.50367" lon="1.95509">
        <ele>1608</ele>
        <time>2021-01-02T12:37:52Z</time>
      </trkpt>
      <trkpt lat="42.50401" lon="1.95507">
        <ele>1594</ele>
        <time>2021-01-02T12:38:13Z</time>
      </trkpt>
      <trkpt lat="42.50404" lon="1.95508">
        <ele>1593</ele>
        <time>2021-01-02T12:38:15Z</time>
      </trkpt>
      <trkpt lat="42.50411" lon="1.95511">
        <ele>1591</ele>
        <time>2021-01-02T12:38:18Z</time>
      </trkpt>
      <trkpt lat="42.50422" lon="1.95521">
        <ele>1588</ele>
        <time>2021-01-02T12:38:24Z</time>
      </trkpt>
      <trkpt lat="42.50425" lon="1.95521">
        <ele>1587</ele>
        <time>2021-01-02T12:38:26Z</time>
      </trkpt>
      <trkpt lat="42.50428" lon="1.9552">
        <ele>1585</ele>
        <time>2021-01-02T12:38:28Z</time>
      </trkpt>
      <trkpt lat="42.50446" lon="1.95525">
        <ele>1582</ele>
        <time>2021-01-02T12:38:35Z</time>
      </trkpt>
      <trkpt lat="42.50449" lon="1.95527">
        <ele>1581</ele>
        <time>2021-01-02T12:38:37Z</time>
      </trkpt>
      <trkpt lat="42.50452" lon="1.9553">
        <ele>1580</ele>
        <time>2021-01-02T12:38:39Z</time>
      </trkpt>
      <trkpt lat="42.50461" lon="1.95537">
        <ele>1577</ele>
        <time>2021-01-02T12:38:45Z</time>
      </trkpt>
      <trkpt lat="42.50484" lon="1.95537">
        <ele>1567</ele>
        <time>2021-01-02T12:38:58Z</time>
      </trkpt>
      <trkpt lat="42.50535" lon="1.9553">
        <ele>1545</ele>
        <time>2021-01-02T12:39:29Z</time>
      </trkpt>
      <trkpt lat="42.5054" lon="1.95529">
        <ele>1543</ele>
        <time>2021-01-02T12:39:31Z</time>
      </trkpt>
      <trkpt lat="42.50554" lon="1.95529">
        <ele>1539</ele>
        <time>2021-01-02T12:39:35Z</time>
      </trkpt>
      <trkpt lat="42.50579" lon="1.95519">
        <ele>1531</ele>
        <time>2021-01-02T12:39:45Z</time>
      </trkpt>
      <trkpt lat="42.50587" lon="1.95517">
        <ele>1529</ele>
        <time>2021-01-02T12:39:48Z</time>
      </trkpt>
      <trkpt lat="42.50593" lon="1.95518">
        <ele>1526</ele>
        <time>2021-01-02T12:39:50Z</time>
      </trkpt>
      <trkpt lat="42.50606" lon="1.95526">
        <ele>1522</ele>
        <time>2021-01-02T12:39:55Z</time>
      </trkpt>
      <trkpt lat="42.50612" lon="1.95529">
        <ele>1519</ele>
        <time>2021-01-02T12:39:58Z</time>
      </trkpt>
      <trkpt lat="42.50632" lon="1.9553">
        <ele>1514</ele>
        <time>2021-01-02T12:40:02Z</time>
      </trkpt>
      <trkpt lat="42.50673" lon="1.95521">
        <ele>1507</ele>
        <time>2021-01-02T12:40:09Z</time>
      </trkpt>
      <trkpt lat="42.50681" lon="1.95521">
        <ele>1505</ele>
        <time>2021-01-02T12:40:11Z</time>
      </trkpt>
      <trkpt lat="42.50744" lon="1.95541">
        <ele>1484</ele>
        <time>2021-01-02T12:40:33Z</time>
      </trkpt>
      <trkpt lat="42.5075" lon="1.95538">
        <ele>1481</ele>
        <time>2021-01-02T12:40:35Z</time>
      </trkpt>
      <trkpt lat="42.50764" lon="1.95533">
        <ele>1477</ele>
        <time>2021-01-02T12:40:39Z</time>
      </trkpt>
      <trkpt lat="42.50769" lon="1.9553">
        <ele>1475</ele>
        <time>2021-01-02T12:40:41Z</time>
      </trkpt>
      <trkpt lat="42.50774" lon="1.95528">
        <ele>1474</ele>
        <time>2021-01-02T12:40:43Z</time>
      </trkpt>
      <trkpt lat="42.50846" lon="1.95506">
        <ele>1445</ele>
        <time>2021-01-02T12:41:14Z</time>
      </trkpt>
      <trkpt lat="42.50866" lon="1.955">
        <ele>1440</ele>
        <time>2021-01-02T12:41:19Z</time>
      </trkpt>
      <trkpt lat="42.50872" lon="1.955">
        <ele>1438</ele>
        <time>2021-01-02T12:41:21Z</time>
      </trkpt>
      <trkpt lat="42.50886" lon="1.95503">
        <ele>1435</ele>
        <time>2021-01-02T12:41:24Z</time>
      </trkpt>
      <trkpt lat="42.50891" lon="1.95503">
        <ele>1434</ele>
        <time>2021-01-02T12:41:26Z</time>
      </trkpt>
      <trkpt lat="42.50923" lon="1.95501">
        <ele>1418</ele>
        <time>2021-01-02T12:41:44Z</time>
      </trkpt>
      <trkpt lat="42.50941" lon="1.95495">
        <ele>1409</ele>
        <time>2021-01-02T12:41:52Z</time>
      </trkpt>
      <trkpt lat="42.51008" lon="1.95505">
        <ele>1378</ele>
        <time>2021-01-02T12:42:25Z</time>
      </trkpt>
      <trkpt lat="42.51025" lon="1.95508">
        <ele>1370</ele>
        <time>2021-01-02T12:42:33Z</time>
      </trkpt>
      <trkpt lat="42.51087" lon="1.95515">
        <ele>1344</ele>
        <time>2021-01-02T12:43:05Z</time>
      </trkpt>
      <trkpt lat="42.51113" lon="1.9551">
        <ele>1333</ele>
        <time>2021-01-02T12:43:26Z</time>
      </trkpt>
      <trkpt lat="42.51125" lon="1.95509">
        <ele>1330</ele>
        <time>2021-01-02T12:43:39Z</time>
      </trkpt>
      <trkpt lat="42.51139" lon="1.9551">
        <ele>1330</ele>
        <time>2021-01-02T12:44:05Z</time>
      </trkpt>
      <trkpt lat="42.51147" lon="1.95516">
        <ele>1330</ele>
        <time>2021-01-02T12:44:20Z</time>
      </trkpt>
      <trkpt lat="42.51153" lon="1.95528">
        <ele>1328</ele>
        <time>2021-01-02T12:44:40Z</time>
      </trkpt>
      <trkpt lat="42.51162" lon="1.95537">
        <ele>1327</ele>
        <time>2021-01-02T12:44:56Z</time>
      </trkpt>
      <trkpt lat="42.5118" lon="1.95563">
        <ele>1324</ele>
        <time>2021-01-02T12:45:28Z</time>
      </trkpt>
      <trkpt lat="42.5119" lon="1.95577">
        <ele>1321</ele>
        <time>2021-01-02T12:45:56Z</time>
      </trkpt>
      <trkpt lat="42.51192" lon="1.9559">
        <ele>1321</ele>
        <time>2021-01-02T12:46:04Z</time>
      </trkpt>
      <trkpt lat="42.512" lon="1.956">
        <ele>1319</ele>
        <time>2021-01-02T12:46:27Z</time>
      </trkpt>
      <trkpt lat="42.5121" lon="1.95595">
        <ele>1317</ele>
        <time>2021-01-02T12:46:59Z</time>
      </trkpt>
      <trkpt lat="42.51217" lon="1.95584">
        <ele>1317</ele>
        <time>2021-01-02T12:47:18Z</time>
      </trkpt>
      <trkpt lat="42.51227" lon="1.95578">
        <ele>1317</ele>
        <time>2021-01-02T12:47:44Z</time>
      </trkpt>
      <trkpt lat="42.51228" lon="1.95578">
        <ele>1317</ele>
        <time>2021-01-02T12:47:49Z</time>
      </trkpt>
      <trkpt lat="42.51236" lon="1.95572">
        <ele>1316</ele>
        <time>2021-01-02T12:48:11Z</time>
      </trkpt>
      <trkpt lat="42.51245" lon="1.95566">
        <ele>1316</ele>
        <time>2021-01-02T12:48:46Z</time>
      </trkpt>
      <trkpt lat="42.51251" lon="1.95554">
        <ele>1315</ele>
        <time>2021-01-02T12:49:07Z</time>
      </trkpt>
      <trkpt lat="42.51278" lon="1.95566">
        <ele>1311</ele>
        <time>2021-01-02T12:49:36Z</time>
      </trkpt>
      <trkpt lat="42.51287" lon="1.95567">
        <ele>1311</ele>
        <time>2021-01-02T12:49:51Z</time>
      </trkpt>
      <trkpt lat="42.5129" lon="1.95569">
        <ele>1311</ele>
        <time>2021-01-02T12:49:57Z</time>
      </trkpt>
      <trkpt lat="42.51297" lon="1.95584">
        <ele>1313</ele>
        <time>2021-01-02T12:50:19Z</time>
      </trkpt>
      <trkpt lat="42.51304" lon="1.95591">
        <ele>1314</ele>
        <time>2021-01-02T12:52:58Z</time>
      </trkpt>
      <trkpt lat="42.51306" lon="1.95591">
        <ele>1314</ele>
        <time>2021-01-02T12:53:02Z</time>
      </trkpt>
      <trkpt lat="42.51313" lon="1.95599">
        <ele>1314</ele>
        <time>2021-01-02T12:53:33Z</time>
      </trkpt>
      <trkpt lat="42.51315" lon="1.95613">
        <ele>1313</ele>
        <time>2021-01-02T12:53:52Z</time>
      </trkpt>
      <trkpt lat="42.51315" lon="1.95617">
        <ele>1313</ele>
        <time>2021-01-02T12:54:00Z</time>
      </trkpt>
      <trkpt lat="42.51322" lon="1.95624">
        <ele>1314</ele>
        <time>2021-01-02T12:54:41Z</time>
      </trkpt>
      <trkpt lat="42.51329" lon="1.95634">
        <ele>1315</ele>
        <time>2021-01-02T12:55:05Z</time>
      </trkpt>
      <trkpt lat="42.51339" lon="1.95635">
        <ele>1315</ele>
        <time>2021-01-02T12:55:51Z</time>
      </trkpt>
      <trkpt lat="42.51351" lon="1.95639">
        <ele>1316</ele>
        <time>2021-01-02T12:56:13Z</time>
      </trkpt>
      <trkpt lat="42.5136" lon="1.95648">
        <ele>1316</ele>
        <time>2021-01-02T12:56:27Z</time>
      </trkpt>
      <trkpt lat="42.51363" lon="1.95646">
        <ele>1316</ele>
        <time>2021-01-02T12:56:30Z</time>
      </trkpt>
      <trkpt lat="42.51373" lon="1.95646">
        <ele>1317</ele>
        <time>2021-01-02T12:56:41Z</time>
      </trkpt>
      <trkpt lat="42.5138" lon="1.9566">
        <ele>1318</ele>
        <time>2021-01-02T12:57:12Z</time>
      </trkpt>
      <trkpt lat="42.51387" lon="1.95669">
        <ele>1318</ele>
        <time>2021-01-02T12:57:55Z</time>
      </trkpt>
      <trkpt lat="42.51389" lon="1.95685">
        <ele>1317</ele>
        <time>2021-01-02T12:58:03Z</time>
      </trkpt>
      <trkpt lat="42.51388" lon="1.9569">
        <ele>1317</ele>
        <time>2021-01-02T12:58:05Z</time>
      </trkpt>
      <trkpt lat="42.51395" lon="1.95701">
        <ele>1316</ele>
        <time>2021-01-02T12:58:18Z</time>
      </trkpt>
      <trkpt lat="42.51413" lon="1.95695">
        <ele>1315</ele>
        <time>2021-01-02T12:58:32Z</time>
      </trkpt>
      <trkpt lat="42.51422" lon="1.95696">
        <ele>1315</ele>
        <time>2021-01-02T12:58:39Z</time>
      </trkpt>
      <trkpt lat="42.51423" lon="1.95701">
        <ele>1315</ele>
        <time>2021-01-02T12:58:42Z</time>
      </trkpt>
      <trkpt lat="42.51426" lon="1.95713">
        <ele>1316</ele>
        <time>2021-01-02T12:58:50Z</time>
      </trkpt>
      <trkpt lat="42.51437" lon="1.95716">
        <ele>1317</ele>
        <time>2021-01-02T12:59:02Z</time>
      </trkpt>
      <trkpt lat="42.5145" lon="1.95721">
        <ele>1319</ele>
        <time>2021-01-02T12:59:21Z</time>
      </trkpt>
      <trkpt lat="42.51459" lon="1.95727">
        <ele>1319</ele>
        <time>2021-01-02T12:59:48Z</time>
      </trkpt>
      <trkpt lat="42.51474" lon="1.9575">
        <ele>1321</ele>
        <time>2021-01-02T13:00:23Z</time>
      </trkpt>
      <trkpt lat="42.51484" lon="1.95751">
        <ele>1322</ele>
        <time>2021-01-02T13:00:35Z</time>
      </trkpt>
      <trkpt lat="42.51493" lon="1.95763">
        <ele>1323</ele>
        <time>2021-01-02T13:00:47Z</time>
      </trkpt>
      <trkpt lat="42.51495" lon="1.95768">
        <ele>1323</ele>
        <time>2021-01-02T13:00:50Z</time>
      </trkpt>
      <trkpt lat="42.51496" lon="1.95781">
        <ele>1324</ele>
        <time>2021-01-02T13:00:59Z</time>
      </trkpt>
      <trkpt lat="42.51492" lon="1.95794">
        <ele>1324</ele>
        <time>2021-01-02T13:01:53Z</time>
      </trkpt>
      <trkpt lat="42.51487" lon="1.95781">
        <ele>1322</ele>
        <time>2021-01-02T13:02:34Z</time>
      </trkpt>
      <trkpt lat="42.51481" lon="1.9577">
        <ele>1319</ele>
        <time>2021-01-02T13:03:07Z</time>
      </trkpt>
      <trkpt lat="42.51487" lon="1.9576">
        <ele>1315</ele>
        <time>2021-01-02T13:03:31Z</time>
      </trkpt>
      <trkpt lat="42.51487" lon="1.95748">
        <ele>1310</ele>
        <time>2021-01-02T13:04:24Z</time>
      </trkpt>
      <trkpt lat="42.51485" lon="1.95735">
        <ele>1303</ele>
        <time>2021-01-02T13:05:12Z</time>
      </trkpt>
      <trkpt lat="42.51483" lon="1.95721">
        <ele>1297</ele>
        <time>2021-01-02T13:05:35Z</time>
      </trkpt>
      <trkpt lat="42.5148" lon="1.95707">
        <ele>1294</ele>
        <time>2021-01-02T13:05:53Z</time>
      </trkpt>
      <trkpt lat="42.51482" lon="1.95692">
        <ele>1291</ele>
        <time>2021-01-02T13:06:07Z</time>
      </trkpt>
      <trkpt lat="42.51482" lon="1.95676">
        <ele>1289</ele>
        <time>2021-01-02T13:06:23Z</time>
      </trkpt>
      <trkpt lat="42.5149" lon="1.95666">
        <ele>1284</ele>
        <time>2021-01-02T13:06:48Z</time>
      </trkpt>
      <trkpt lat="42.51489" lon="1.95668">
        <ele>1281</ele>
        <time>2021-01-02T13:07:20Z</time>
      </trkpt>
      <trkpt lat="42.51471" lon="1.95656">
        <ele>1278</ele>
        <time>2021-01-02T13:08:09Z</time>
      </trkpt>
      <trkpt lat="42.5146" lon="1.95654">
        <ele>1277</ele>
        <time>2021-01-02T13:08:28Z</time>
      </trkpt>
      <trkpt lat="42.51453" lon="1.95642">
        <ele>1276</ele>
        <time>2021-01-02T13:08:50Z</time>
      </trkpt>
      <trkpt lat="42.51444" lon="1.9564">
        <ele>1274</ele>
        <time>2021-01-02T13:09:13Z</time>
      </trkpt>
      <trkpt lat="42.5144" lon="1.95629">
        <ele>1274</ele>
        <time>2021-01-02T13:09:28Z</time>
      </trkpt>
      <trkpt lat="42.51437" lon="1.95625">
        <ele>1274</ele>
        <time>2021-01-02T13:09:31Z</time>
      </trkpt>
      <trkpt lat="42.51432" lon="1.95615">
        <ele>1273</ele>
        <time>2021-01-02T13:09:51Z</time>
      </trkpt>
      <trkpt lat="42.51428" lon="1.95599">
        <ele>1271</ele>
        <time>2021-01-02T13:10:05Z</time>
      </trkpt>
      <trkpt lat="42.51426" lon="1.95583">
        <ele>1270</ele>
        <time>2021-01-02T13:10:21Z</time>
      </trkpt>
      <trkpt lat="42.51419" lon="1.95572">
        <ele>1268</ele>
        <time>2021-01-02T13:10:47Z</time>
      </trkpt>
      <trkpt lat="42.51412" lon="1.9556">
        <ele>1265</ele>
        <time>2021-01-02T13:11:14Z</time>
      </trkpt>
      <trkpt lat="42.51406" lon="1.9557">
        <ele>1260</ele>
        <time>2021-01-02T13:12:12Z</time>
      </trkpt>
      <trkpt lat="42.51405" lon="1.95573">
        <ele>1256</ele>
        <time>2021-01-02T13:12:41Z</time>
      </trkpt>
      <trkpt lat="42.51386" lon="1.95573">
        <ele>1254</ele>
        <time>2021-01-02T13:13:18Z</time>
      </trkpt>
      <trkpt lat="42.51375" lon="1.95579">
        <ele>1253</ele>
        <time>2021-01-02T13:13:35Z</time>
      </trkpt>
      <trkpt lat="42.51366" lon="1.95597">
        <ele>1253</ele>
        <time>2021-01-02T13:13:48Z</time>
      </trkpt>
      <trkpt lat="42.51357" lon="1.95592">
        <ele>1253</ele>
        <time>2021-01-02T13:14:09Z</time>
      </trkpt>
      <trkpt lat="42.51334" lon="1.95619">
        <ele>1252</ele>
        <time>2021-01-02T13:14:23Z</time>
      </trkpt>
      <trkpt lat="42.51333" lon="1.95619">
        <ele>1252</ele>
        <time>2021-01-02T13:15:01Z</time>
      </trkpt>
      <trkpt lat="42.51323" lon="1.95617">
        <ele>1251</ele>
        <time>2021-01-02T13:15:41Z</time>
      </trkpt>
      <trkpt lat="42.51293" lon="1.95612">
        <ele>1250</ele>
        <time>2021-01-02T13:15:56Z</time>
      </trkpt>
      <trkpt lat="42.5129" lon="1.95616">
        <ele>1250</ele>
        <time>2021-01-02T13:15:58Z</time>
      </trkpt>
      <trkpt lat="42.51303" lon="1.95621">
        <ele>1250</ele>
        <time>2021-01-02T13:16:00Z</time>
      </trkpt>
      <trkpt lat="42.51313" lon="1.95616">
        <ele>1250</ele>
        <time>2021-01-02T13:16:01Z</time>
      </trkpt>
      <trkpt lat="42.51326" lon="1.95619">
        <ele>1250</ele>
        <time>2021-01-02T13:16:02Z</time>
      </trkpt>
      <trkpt lat="42.51333" lon="1.95614">
        <ele>1250</ele>
        <time>2021-01-02T13:16:03Z</time>
      </trkpt>
      <trkpt lat="42.51342" lon="1.95595">
        <ele>1250</ele>
        <time>2021-01-02T13:16:05Z</time>
      </trkpt>
      <trkpt lat="42.51329" lon="1.95577">
        <ele>1250</ele>
        <time>2021-01-02T13:16:08Z</time>
      </trkpt>
      <trkpt lat="42.51328" lon="1.95567">
        <ele>1251</ele>
        <time>2021-01-02T13:16:09Z</time>
      </trkpt>
      <trkpt lat="42.51324" lon="1.95566">
        <ele>1251</ele>
        <time>2021-01-02T13:16:13Z</time>
      </trkpt>
      <trkpt lat="42.5132" lon="1.9556">
        <ele>1251</ele>
        <time>2021-01-02T13:16:14Z</time>
      </trkpt>
      <trkpt lat="42.51315" lon="1.95557">
        <ele>1250</ele>
        <time>2021-01-02T13:16:16Z</time>
      </trkpt>
      <trkpt lat="42.51297" lon="1.9555">
        <ele>1251</ele>
        <time>2021-01-02T13:16:22Z</time>
      </trkpt>
      <trkpt lat="42.51291" lon="1.95548">
        <ele>1251</ele>
        <time>2021-01-02T13:16:24Z</time>
      </trkpt>
      <trkpt lat="42.5129" lon="1.95542">
        <ele>1251</ele>
        <time>2021-01-02T13:16:28Z</time>
      </trkpt>
      <trkpt lat="42.51292" lon="1.95536">
        <ele>1252</ele>
        <time>2021-01-02T13:16:29Z</time>
      </trkpt>
      <trkpt lat="42.513" lon="1.9553">
        <ele>1252</ele>
        <time>2021-01-02T13:16:30Z</time>
      </trkpt>
      <trkpt lat="42.51302" lon="1.95522">
        <ele>1253</ele>
        <time>2021-01-02T13:16:34Z</time>
      </trkpt>
      <trkpt lat="42.51303" lon="1.95518">
        <ele>1254</ele>
        <time>2021-01-02T13:16:38Z</time>
      </trkpt>
      <trkpt lat="42.51304" lon="1.95511">
        <ele>1255</ele>
        <time>2021-01-02T13:16:42Z</time>
      </trkpt>
      <trkpt lat="42.51298" lon="1.95508">
        <ele>1256</ele>
        <time>2021-01-02T13:16:46Z</time>
      </trkpt>
      <trkpt lat="42.51288" lon="1.95517">
        <ele>1257</ele>
        <time>2021-01-02T13:16:49Z</time>
      </trkpt>
      <trkpt lat="42.51276" lon="1.95517">
        <ele>1259</ele>
        <time>2021-01-02T13:16:52Z</time>
      </trkpt>
      <trkpt lat="42.51262" lon="1.95512">
        <ele>1262</ele>
        <time>2021-01-02T13:16:57Z</time>
      </trkpt>
      <trkpt lat="42.51246" lon="1.95517">
        <ele>1264</ele>
        <time>2021-01-02T13:17:01Z</time>
      </trkpt>
      <trkpt lat="42.5123" lon="1.95526">
        <ele>1267</ele>
        <time>2021-01-02T13:17:05Z</time>
      </trkpt>
      <trkpt lat="42.51225" lon="1.95529">
        <ele>1267</ele>
        <time>2021-01-02T13:17:06Z</time>
      </trkpt>
      <trkpt lat="42.51218" lon="1.95543">
        <ele>1268</ele>
        <time>2021-01-02T13:17:08Z</time>
      </trkpt>
      <trkpt lat="42.51211" lon="1.95538">
        <ele>1271</ele>
        <time>2021-01-02T13:17:12Z</time>
      </trkpt>
      <trkpt lat="42.51203" lon="1.95552">
        <ele>1274</ele>
        <time>2021-01-02T13:17:16Z</time>
      </trkpt>
      <trkpt lat="42.51199" lon="1.95555">
        <ele>1276</ele>
        <time>2021-01-02T13:17:17Z</time>
      </trkpt>
      <trkpt lat="42.51196" lon="1.95559">
        <ele>1277</ele>
        <time>2021-01-02T13:17:19Z</time>
      </trkpt>
      <trkpt lat="42.51192" lon="1.95557">
        <ele>1278</ele>
        <time>2021-01-02T13:17:21Z</time>
      </trkpt>
      <trkpt lat="42.51187" lon="1.95568">
        <ele>1278</ele>
        <time>2021-01-02T13:17:23Z</time>
      </trkpt>
      <trkpt lat="42.51173" lon="1.95564">
        <ele>1281</ele>
        <time>2021-01-02T13:17:34Z</time>
      </trkpt>
      <trkpt lat="42.51164" lon="1.95566">
        <ele>1283</ele>
        <time>2021-01-02T13:17:43Z</time>
      </trkpt>
      <trkpt lat="42.51164" lon="1.95563">
        <ele>1285</ele>
        <time>2021-01-02T13:17:47Z</time>
      </trkpt>
      <trkpt lat="42.51143" lon="1.95562">
        <ele>1286</ele>
        <time>2021-01-02T13:18:17Z</time>
      </trkpt>
      <trkpt lat="42.51141" lon="1.95562">
        <ele>1286</ele>
        <time>2021-01-02T13:18:18Z</time>
      </trkpt>
      <trkpt lat="42.5113" lon="1.95563">
        <ele>1286</ele>
        <time>2021-01-02T13:18:22Z</time>
      </trkpt>
      <trkpt lat="42.51124" lon="1.95563">
        <ele>1286</ele>
        <time>2021-01-02T13:18:24Z</time>
      </trkpt>
      <trkpt lat="42.51117" lon="1.95563">
        <ele>1286</ele>
        <time>2021-01-02T13:18:26Z</time>
      </trkpt>
      <trkpt lat="42.51095" lon="1.95564">
        <ele>1286</ele>
        <time>2021-01-02T13:18:31Z</time>
      </trkpt>
      <trkpt lat="42.51085" lon="1.95556">
        <ele>1286</ele>
        <time>2021-01-02T13:18:34Z</time>
      </trkpt>
      <trkpt lat="42.51079" lon="1.95556">
        <ele>1286</ele>
        <time>2021-01-02T13:18:36Z</time>
      </trkpt>
      <trkpt lat="42.51064" lon="1.95545">
        <ele>1287</ele>
        <time>2021-01-02T13:18:41Z</time>
      </trkpt>
      <trkpt lat="42.51056" lon="1.95542">
        <ele>1287</ele>
        <time>2021-01-02T13:18:45Z</time>
      </trkpt>
      <trkpt lat="42.51052" lon="1.95546">
        <ele>1287</ele>
        <time>2021-01-02T13:18:47Z</time>
      </trkpt>
      <trkpt lat="42.51041" lon="1.95552">
        <ele>1287</ele>
        <time>2021-01-02T13:18:50Z</time>
      </trkpt>
      <trkpt lat="42.5101" lon="1.95565">
        <ele>1287</ele>
        <time>2021-01-02T13:19:04Z</time>
      </trkpt>
      <trkpt lat="42.51006" lon="1.95568">
        <ele>1287</ele>
        <time>2021-01-02T13:19:06Z</time>
      </trkpt>
      <trkpt lat="42.51001" lon="1.95579">
        <ele>1286</ele>
        <time>2021-01-02T13:19:09Z</time>
      </trkpt>
      <trkpt lat="42.50951" lon="1.95619">
        <ele>1287</ele>
        <time>2021-01-02T13:19:21Z</time>
      </trkpt>
      <trkpt lat="42.50927" lon="1.95638">
        <ele>1290</ele>
        <time>2021-01-02T13:19:27Z</time>
      </trkpt>
      <trkpt lat="42.50857" lon="1.95721">
        <ele>1295</ele>
        <time>2021-01-02T13:19:45Z</time>
      </trkpt>
      <trkpt lat="42.50817" lon="1.95751">
        <ele>1305</ele>
        <time>2021-01-02T13:19:55Z</time>
      </trkpt>
      <trkpt lat="42.50782" lon="1.95768">
        <ele>1312</ele>
        <time>2021-01-02T13:20:06Z</time>
      </trkpt>
      <trkpt lat="42.50665" lon="1.9582">
        <ele>1323</ele>
        <time>2021-01-02T13:20:36Z</time>
      </trkpt>
      <trkpt lat="42.50644" lon="1.95835">
        <ele>1328</ele>
        <time>2021-01-02T13:20:40Z</time>
      </trkpt>
      <trkpt lat="42.50639" lon="1.95834">
        <ele>1329</ele>
        <time>2021-01-02T13:20:41Z</time>
      </trkpt>
      <trkpt lat="42.50623" lon="1.95842">
        <ele>1332</ele>
        <time>2021-01-02T13:20:44Z</time>
      </trkpt>
      <trkpt lat="42.50618" lon="1.95845">
        <ele>1334</ele>
        <time>2021-01-02T13:20:46Z</time>
      </trkpt>
      <trkpt lat="42.50611" lon="1.95858">
        <ele>1339</ele>
        <time>2021-01-02T13:20:47Z</time>
      </trkpt>
      <trkpt lat="42.50605" lon="1.9587">
        <ele>1344</ele>
        <time>2021-01-02T13:20:48Z</time>
      </trkpt>
      <trkpt lat="42.50544" lon="1.95892">
        <ele>1377</ele>
        <time>2021-01-02T13:21:24Z</time>
      </trkpt>
      <trkpt lat="42.50542" lon="1.95894">
        <ele>1377</ele>
        <time>2021-01-02T13:21:25Z</time>
      </trkpt>
      <trkpt lat="42.50533" lon="1.95895">
        <ele>1378</ele>
        <time>2021-01-02T13:21:30Z</time>
      </trkpt>
      <trkpt lat="42.50524" lon="1.95899">
        <ele>1378</ele>
        <time>2021-01-02T13:21:34Z</time>
      </trkpt>
      <trkpt lat="42.50514" lon="1.959">
        <ele>1378</ele>
        <time>2021-01-02T13:21:40Z</time>
      </trkpt>
      <trkpt lat="42.50512" lon="1.95903">
        <ele>1378</ele>
        <time>2021-01-02T13:21:42Z</time>
      </trkpt>
      <trkpt lat="42.50504" lon="1.95905">
        <ele>1378</ele>
        <time>2021-01-02T13:21:47Z</time>
      </trkpt>
      <trkpt lat="42.50495" lon="1.95912">
        <ele>1378</ele>
        <time>2021-01-02T13:21:55Z</time>
      </trkpt>
      <trkpt lat="42.5047" lon="1.95902">
        <ele>1377</ele>
        <time>2021-01-02T13:22:04Z</time>
      </trkpt>
      <trkpt lat="42.50424" lon="1.95899">
        <ele>1375</ele>
        <time>2021-01-02T13:22:17Z</time>
      </trkpt>
      <trkpt lat="42.50419" lon="1.95898">
        <ele>1375</ele>
        <time>2021-01-02T13:22:18Z</time>
      </trkpt>
      <trkpt lat="42.50362" lon="1.95904">
        <ele>1375</ele>
        <time>2021-01-02T13:22:29Z</time>
      </trkpt>
      <trkpt lat="42.50295" lon="1.95918">
        <ele>1374</ele>
        <time>2021-01-02T13:22:46Z</time>
      </trkpt>
      <trkpt lat="42.50292" lon="1.9592">
        <ele>1374</ele>
        <time>2021-01-02T13:22:47Z</time>
      </trkpt>
      <trkpt lat="42.50266" lon="1.95915">
        <ele>1371</ele>
        <time>2021-01-02T13:22:56Z</time>
      </trkpt>
      <trkpt lat="42.50261" lon="1.95915">
        <ele>1370</ele>
        <time>2021-01-02T13:22:58Z</time>
      </trkpt>
      <trkpt lat="42.50258" lon="1.95912">
        <ele>1369</ele>
        <time>2021-01-02T13:23:00Z</time>
      </trkpt>
      <trkpt lat="42.5025" lon="1.95907">
        <ele>1369</ele>
        <time>2021-01-02T13:23:03Z</time>
      </trkpt>
      <trkpt lat="42.50242" lon="1.95907">
        <ele>1369</ele>
        <time>2021-01-02T13:23:07Z</time>
      </trkpt>
      <trkpt lat="42.50208" lon="1.95889">
        <ele>1369</ele>
        <time>2021-01-02T13:24:11Z</time>
      </trkpt>
      <trkpt lat="42.50186" lon="1.95876">
        <ele>1368</ele>
        <time>2021-01-02T13:24:19Z</time>
      </trkpt>
      <trkpt lat="42.50184" lon="1.95873">
        <ele>1368</ele>
        <time>2021-01-02T13:24:20Z</time>
      </trkpt>
      <trkpt lat="42.50181" lon="1.95871">
        <ele>1368</ele>
        <time>2021-01-02T13:24:21Z</time>
      </trkpt>
      <trkpt lat="42.50177" lon="1.95866">
        <ele>1369</ele>
        <time>2021-01-02T13:24:23Z</time>
      </trkpt>
      <trkpt lat="42.50168" lon="1.95862">
        <ele>1369</ele>
        <time>2021-01-02T13:24:27Z</time>
      </trkpt>
      <trkpt lat="42.50158" lon="1.95865">
        <ele>1369</ele>
        <time>2021-01-02T13:24:32Z</time>
      </trkpt>
      <trkpt lat="42.50151" lon="1.9586">
        <ele>1369</ele>
        <time>2021-01-02T13:24:36Z</time>
      </trkpt>
      <trkpt lat="42.50146" lon="1.95858">
        <ele>1369</ele>
        <time>2021-01-02T13:24:38Z</time>
      </trkpt>
      <trkpt lat="42.50123" lon="1.95845">
        <ele>1371</ele>
        <time>2021-01-02T13:24:48Z</time>
      </trkpt>
      <trkpt lat="42.50097" lon="1.95841">
        <ele>1373</ele>
        <time>2021-01-02T13:24:56Z</time>
      </trkpt>
      <trkpt lat="42.50041" lon="1.95848">
        <ele>1378</ele>
        <time>2021-01-02T13:25:08Z</time>
      </trkpt>
      <trkpt lat="42.50007" lon="1.95858">
        <ele>1380</ele>
        <time>2021-01-02T13:25:17Z</time>
      </trkpt>
      <trkpt lat="42.50003" lon="1.9586">
        <ele>1380</ele>
        <time>2021-01-02T13:25:18Z</time>
      </trkpt>
      <trkpt lat="42.49988" lon="1.95857">
        <ele>1382</ele>
        <time>2021-01-02T13:25:22Z</time>
      </trkpt>
      <trkpt lat="42.49977" lon="1.95861">
        <ele>1384</ele>
        <time>2021-01-02T13:25:24Z</time>
      </trkpt>
      <trkpt lat="42.49906" lon="1.95916">
        <ele>1391</ele>
        <time>2021-01-02T13:25:36Z</time>
      </trkpt>
      <trkpt lat="42.49878" lon="1.95934">
        <ele>1393</ele>
        <time>2021-01-02T13:25:41Z</time>
      </trkpt>
      <trkpt lat="42.49874" lon="1.95935">
        <ele>1393</ele>
        <time>2021-01-02T13:25:42Z</time>
      </trkpt>
      <trkpt lat="42.49868" lon="1.95937">
        <ele>1394</ele>
        <time>2021-01-02T13:25:44Z</time>
      </trkpt>
      <trkpt lat="42.49861" lon="1.95941">
        <ele>1394</ele>
        <time>2021-01-02T13:25:46Z</time>
      </trkpt>
      <trkpt lat="42.498" lon="1.95978">
        <ele>1403</ele>
        <time>2021-01-02T13:26:16Z</time>
      </trkpt>
      <trkpt lat="42.49763" lon="1.95998">
        <ele>1406</ele>
        <time>2021-01-02T13:26:52Z</time>
      </trkpt>
      <trkpt lat="42.49761" lon="1.95998">
        <ele>1406</ele>
        <time>2021-01-02T13:27:04Z</time>
      </trkpt>
      <trkpt lat="42.49754" lon="1.96006">
        <ele>1406</ele>
        <time>2021-01-02T13:27:35Z</time>
      </trkpt>
      <trkpt lat="42.4975" lon="1.9602">
        <ele>1406</ele>
        <time>2021-01-02T13:27:52Z</time>
      </trkpt>
      <trkpt lat="42.49748" lon="1.96021">
        <ele>1406</ele>
        <time>2021-01-02T13:27:55Z</time>
      </trkpt>
      <trkpt lat="42.49739" lon="1.96026">
        <ele>1404</ele>
        <time>2021-01-02T13:28:40Z</time>
      </trkpt>
      <trkpt lat="42.49733" lon="1.96029">
        <ele>1403</ele>
        <time>2021-01-02T13:28:44Z</time>
      </trkpt>
      <trkpt lat="42.49719" lon="1.96025">
        <ele>1401</ele>
        <time>2021-01-02T13:28:53Z</time>
      </trkpt>
      <trkpt lat="42.49714" lon="1.96023">
        <ele>1399</ele>
        <time>2021-01-02T13:28:57Z</time>
      </trkpt>
      <trkpt lat="42.49712" lon="1.96021">
        <ele>1398</ele>
        <time>2021-01-02T13:28:59Z</time>
      </trkpt>
      <trkpt lat="42.49711" lon="1.9602">
        <ele>1397</ele>
        <time>2021-01-02T13:29:01Z</time>
      </trkpt>
      <trkpt lat="42.49708" lon="1.96019">
        <ele>1396</ele>
        <time>2021-01-02T13:29:03Z</time>
      </trkpt>
      <trkpt lat="42.49706" lon="1.9602">
        <ele>1395</ele>
        <time>2021-01-02T13:29:04Z</time>
      </trkpt>
      <trkpt lat="42.497" lon="1.9602">
        <ele>1392</ele>
        <time>2021-01-02T13:29:10Z</time>
      </trkpt>
      <trkpt lat="42.49692" lon="1.96015">
        <ele>1388</ele>
        <time>2021-01-02T13:29:17Z</time>
      </trkpt>
      <trkpt lat="42.4969" lon="1.96014">
        <ele>1387</ele>
        <time>2021-01-02T13:29:19Z</time>
      </trkpt>
      <trkpt lat="42.49688" lon="1.96013">
        <ele>1387</ele>
        <time>2021-01-02T13:29:21Z</time>
      </trkpt>
      <trkpt lat="42.49679" lon="1.96013">
        <ele>1385</ele>
        <time>2021-01-02T13:29:28Z</time>
      </trkpt>
      <trkpt lat="42.49677" lon="1.96013">
        <ele>1384</ele>
        <time>2021-01-02T13:29:29Z</time>
      </trkpt>
      <trkpt lat="42.49674" lon="1.96012">
        <ele>1384</ele>
        <time>2021-01-02T13:29:31Z</time>
      </trkpt>
      <trkpt lat="42.49659" lon="1.96008">
        <ele>1382</ele>
        <time>2021-01-02T13:29:42Z</time>
      </trkpt>
      <trkpt lat="42.49648" lon="1.95998">
        <ele>1381</ele>
        <time>2021-01-02T13:29:53Z</time>
      </trkpt>
      <trkpt lat="42.496" lon="1.95982">
        <ele>1377</ele>
        <time>2021-01-02T13:30:28Z</time>
      </trkpt>
      <trkpt lat="42.49598" lon="1.95983">
        <ele>1377</ele>
        <time>2021-01-02T13:30:29Z</time>
      </trkpt>
      <trkpt lat="42.49587" lon="1.95978">
        <ele>1376</ele>
        <time>2021-01-02T13:30:42Z</time>
      </trkpt>
      <trkpt lat="42.49564" lon="1.95974">
        <ele>1374</ele>
        <time>2021-01-02T13:31:20Z</time>
      </trkpt>
      <trkpt lat="42.49536" lon="1.95977">
        <ele>1375</ele>
        <time>2021-01-02T13:31:51Z</time>
      </trkpt>
      <trkpt lat="42.49528" lon="1.9597">
        <ele>1374</ele>
        <time>2021-01-02T13:32:18Z</time>
      </trkpt>
      <trkpt lat="42.49528" lon="1.95966">
        <ele>1374</ele>
        <time>2021-01-02T13:32:20Z</time>
      </trkpt>
      <trkpt lat="42.49525" lon="1.95964">
        <ele>1374</ele>
        <time>2021-01-02T13:32:21Z</time>
      </trkpt>
      <trkpt lat="42.49518" lon="1.95962">
        <ele>1373</ele>
        <time>2021-01-02T13:32:25Z</time>
      </trkpt>
      <trkpt lat="42.49521" lon="1.95963">
        <ele>1373</ele>
        <time>2021-01-02T13:32:26Z</time>
      </trkpt>
      <trkpt lat="42.49522" lon="1.95962">
        <ele>1373</ele>
        <time>2021-01-02T13:32:35Z</time>
      </trkpt>
      <trkpt lat="42.49511" lon="1.95967">
        <ele>1373</ele>
        <time>2021-01-02T13:32:49Z</time>
      </trkpt>
      <trkpt lat="42.49489" lon="1.95977">
        <ele>1373</ele>
        <time>2021-01-02T13:33:15Z</time>
      </trkpt>
      <trkpt lat="42.4948" lon="1.95978">
        <ele>1373</ele>
        <time>2021-01-02T13:33:25Z</time>
      </trkpt>
      <trkpt lat="42.49477" lon="1.95976">
        <ele>1373</ele>
        <time>2021-01-02T13:33:28Z</time>
      </trkpt>
      <trkpt lat="42.49465" lon="1.95973">
        <ele>1373</ele>
        <time>2021-01-02T13:33:36Z</time>
      </trkpt>
      <trkpt lat="42.4946" lon="1.95975">
        <ele>1373</ele>
        <time>2021-01-02T13:33:39Z</time>
      </trkpt>
      <trkpt lat="42.49458" lon="1.95975">
        <ele>1373</ele>
        <time>2021-01-02T13:33:53Z</time>
      </trkpt>
      <trkpt lat="42.49449" lon="1.95978">
        <ele>1372</ele>
        <time>2021-01-02T13:34:50Z</time>
      </trkpt>
      <trkpt lat="42.49409" lon="1.95966">
        <ele>1368</ele>
        <time>2021-01-02T13:35:31Z</time>
      </trkpt>
      <trkpt lat="42.49406" lon="1.95965">
        <ele>1368</ele>
        <time>2021-01-02T13:35:34Z</time>
      </trkpt>
      <trkpt lat="42.49385" lon="1.95959">
        <ele>1366</ele>
        <time>2021-01-02T13:35:56Z</time>
      </trkpt>
      <trkpt lat="42.4935" lon="1.95962">
        <ele>1362</ele>
        <time>2021-01-02T13:36:27Z</time>
      </trkpt>
      <trkpt lat="42.49316" lon="1.9597">
        <ele>1362</ele>
        <time>2021-01-02T13:36:50Z</time>
      </trkpt>
      <trkpt lat="42.49314" lon="1.95972">
        <ele>1363</ele>
        <time>2021-01-02T13:36:51Z</time>
      </trkpt>
      <trkpt lat="42.49296" lon="1.95979">
        <ele>1365</ele>
        <time>2021-01-02T13:37:07Z</time>
      </trkpt>
      <trkpt lat="42.49269" lon="1.95982">
        <ele>1364</ele>
        <time>2021-01-02T13:37:31Z</time>
      </trkpt>
      <trkpt lat="42.49233" lon="1.95994">
        <ele>1362</ele>
        <time>2021-01-02T13:38:07Z</time>
      </trkpt>
      <trkpt lat="42.49221" lon="1.95999">
        <ele>1362</ele>
        <time>2021-01-02T13:38:15Z</time>
      </trkpt>
      <trkpt lat="42.49208" lon="1.96003">
        <ele>1361</ele>
        <time>2021-01-02T13:38:29Z</time>
      </trkpt>
      <trkpt lat="42.49197" lon="1.96008">
        <ele>1359</ele>
        <time>2021-01-02T13:38:41Z</time>
      </trkpt>
      <trkpt lat="42.49188" lon="1.96012">
        <ele>1359</ele>
        <time>2021-01-02T13:38:51Z</time>
      </trkpt>
      <trkpt lat="42.4916" lon="1.96014">
        <ele>1355</ele>
        <time>2021-01-02T13:39:18Z</time>
      </trkpt>
      <trkpt lat="42.4915" lon="1.96014">
        <ele>1354</ele>
        <time>2021-01-02T13:39:28Z</time>
      </trkpt>
      <trkpt lat="42.49129" lon="1.96029">
        <ele>1354</ele>
        <time>2021-01-02T13:39:55Z</time>
      </trkpt>
      <trkpt lat="42.49126" lon="1.9603">
        <ele>1354</ele>
        <time>2021-01-02T13:39:58Z</time>
      </trkpt>
      <trkpt lat="42.49118" lon="1.96035">
        <ele>1355</ele>
        <time>2021-01-02T13:40:34Z</time>
      </trkpt>
      <trkpt lat="42.49115" lon="1.96036">
        <ele>1355</ele>
        <time>2021-01-02T13:40:35Z</time>
      </trkpt>
      <trkpt lat="42.49115" lon="1.96037">
        <ele>1356</ele>
        <time>2021-01-02T13:40:53Z</time>
      </trkpt>
      <trkpt lat="42.49121" lon="1.96033">
        <ele>1355</ele>
        <time>2021-01-02T13:41:17Z</time>
      </trkpt>
      <trkpt lat="42.49124" lon="1.96032">
        <ele>1355</ele>
        <time>2021-01-02T13:41:18Z</time>
      </trkpt>
      <trkpt lat="42.4913" lon="1.96038">
        <ele>1357</ele>
        <time>2021-01-02T13:41:22Z</time>
      </trkpt>
      <trkpt lat="42.49129" lon="1.96035">
        <ele>1358</ele>
        <time>2021-01-02T13:41:29Z</time>
      </trkpt>
      <trkpt lat="42.49119" lon="1.96034">
        <ele>1360</ele>
        <time>2021-01-02T13:42:19Z</time>
      </trkpt>
      <trkpt lat="42.49117" lon="1.96035">
        <ele>1360</ele>
        <time>2021-01-02T13:42:24Z</time>
      </trkpt>
      <trkpt lat="42.49109" lon="1.9604">
        <ele>1360</ele>
        <time>2021-01-02T13:43:08Z</time>
      </trkpt>
      <trkpt lat="42.491" lon="1.96046">
        <ele>1358</ele>
        <time>2021-01-02T13:45:31Z</time>
      </trkpt>
      <trkpt lat="42.49098" lon="1.96047">
        <ele>1357</ele>
        <time>2021-01-02T13:45:33Z</time>
      </trkpt>
      <trkpt lat="42.49059" lon="1.96051">
        <ele>1356</ele>
        <time>2021-01-02T13:46:03Z</time>
      </trkpt>
      <trkpt lat="42.49027" lon="1.96054">
        <ele>1348</ele>
        <time>2021-01-02T13:46:30Z</time>
      </trkpt>
      <trkpt lat="42.48991" lon="1.96052">
        <ele>1340</ele>
        <time>2021-01-02T13:47:00Z</time>
      </trkpt>
      <trkpt lat="42.48981" lon="1.96051">
        <ele>1339</ele>
        <time>2021-01-02T13:47:07Z</time>
      </trkpt>
      <trkpt lat="42.48979" lon="1.96051">
        <ele>1339</ele>
        <time>2021-01-02T13:47:09Z</time>
      </trkpt>
      <trkpt lat="42.48977" lon="1.96051">
        <ele>1338</ele>
        <time>2021-01-02T13:47:11Z</time>
      </trkpt>
      <trkpt lat="42.48975" lon="1.9605">
        <ele>1338</ele>
        <time>2021-01-02T13:47:13Z</time>
      </trkpt>
      <trkpt lat="42.48972" lon="1.9605">
        <ele>1338</ele>
        <time>2021-01-02T13:47:15Z</time>
      </trkpt>
      <trkpt lat="42.48944" lon="1.96045">
        <ele>1337</ele>
        <time>2021-01-02T13:47:38Z</time>
      </trkpt>
      <trkpt lat="42.48939" lon="1.96045">
        <ele>1338</ele>
        <time>2021-01-02T13:47:42Z</time>
      </trkpt>
      <trkpt lat="42.48931" lon="1.96047">
        <ele>1338</ele>
        <time>2021-01-02T13:47:48Z</time>
      </trkpt>
      <trkpt lat="42.48926" lon="1.96047">
        <ele>1338</ele>
        <time>2021-01-02T13:47:52Z</time>
      </trkpt>
      <trkpt lat="42.48922" lon="1.96048">
        <ele>1337</ele>
        <time>2021-01-02T13:47:56Z</time>
      </trkpt>
      <trkpt lat="42.48912" lon="1.96045">
        <ele>1336</ele>
        <time>2021-01-02T13:48:04Z</time>
      </trkpt>
      <trkpt lat="42.4891" lon="1.96045">
        <ele>1336</ele>
        <time>2021-01-02T13:48:06Z</time>
      </trkpt>
      <trkpt lat="42.489" lon="1.9605">
        <ele>1335</ele>
        <time>2021-01-02T13:48:16Z</time>
      </trkpt>
      <trkpt lat="42.48859" lon="1.96054">
        <ele>1328</ele>
        <time>2021-01-02T13:48:52Z</time>
      </trkpt>
      <trkpt lat="42.48857" lon="1.96054">
        <ele>1328</ele>
        <time>2021-01-02T13:48:53Z</time>
      </trkpt>
      <trkpt lat="42.4882" lon="1.96028">
        <ele>1325</ele>
        <time>2021-01-02T13:49:31Z</time>
      </trkpt>
      <trkpt lat="42.48794" lon="1.96024">
        <ele>1322</ele>
        <time>2021-01-02T13:50:03Z</time>
      </trkpt>
      <trkpt lat="42.48756" lon="1.96027">
        <ele>1323</ele>
        <time>2021-01-02T13:50:34Z</time>
      </trkpt>
      <trkpt lat="42.48754" lon="1.96027">
        <ele>1323</ele>
        <time>2021-01-02T13:50:36Z</time>
      </trkpt>
      <trkpt lat="42.4875" lon="1.96025">
        <ele>1324</ele>
        <time>2021-01-02T13:50:40Z</time>
      </trkpt>
      <trkpt lat="42.48746" lon="1.96025">
        <ele>1324</ele>
        <time>2021-01-02T13:50:43Z</time>
      </trkpt>
      <trkpt lat="42.48744" lon="1.96023">
        <ele>1324</ele>
        <time>2021-01-02T13:50:45Z</time>
      </trkpt>
      <trkpt lat="42.48716" lon="1.9601">
        <ele>1323</ele>
        <time>2021-01-02T13:51:16Z</time>
      </trkpt>
      <trkpt lat="42.48682" lon="1.95997">
        <ele>1317</ele>
        <time>2021-01-02T13:51:58Z</time>
      </trkpt>
      <trkpt lat="42.48645" lon="1.95986">
        <ele>1314</ele>
        <time>2021-01-02T13:52:36Z</time>
      </trkpt>
      <trkpt lat="42.48609" lon="1.95985">
        <ele>1312</ele>
        <time>2021-01-02T13:53:13Z</time>
      </trkpt>
      <trkpt lat="42.48584" lon="1.95989">
        <ele>1311</ele>
        <time>2021-01-02T13:53:44Z</time>
      </trkpt>
      <trkpt lat="42.48582" lon="1.95989">
        <ele>1312</ele>
        <time>2021-01-02T13:53:46Z</time>
      </trkpt>
      <trkpt lat="42.4857" lon="1.95991">
        <ele>1313</ele>
        <time>2021-01-02T13:54:01Z</time>
      </trkpt>
      <trkpt lat="42.48536" lon="1.95988">
        <ele>1314</ele>
        <time>2021-01-02T13:54:32Z</time>
      </trkpt>
      <trkpt lat="42.48529" lon="1.95987">
        <ele>1314</ele>
        <time>2021-01-02T13:54:36Z</time>
      </trkpt>
      <trkpt lat="42.48526" lon="1.95987">
        <ele>1314</ele>
        <time>2021-01-02T13:54:38Z</time>
      </trkpt>
      <trkpt lat="42.48513" lon="1.95986">
        <ele>1313</ele>
        <time>2021-01-02T13:54:51Z</time>
      </trkpt>
      <trkpt lat="42.48493" lon="1.95974">
        <ele>1313</ele>
        <time>2021-01-02T13:56:14Z</time>
      </trkpt>
      <trkpt lat="42.48492" lon="1.95972">
        <ele>1314</ele>
        <time>2021-01-02T13:56:17Z</time>
      </trkpt>
      <trkpt lat="42.48481" lon="1.95967">
        <ele>1318</ele>
        <time>2021-01-02T13:56:32Z</time>
      </trkpt>
      <trkpt lat="42.48454" lon="1.95955">
        <ele>1318</ele>
        <time>2021-01-02T13:57:02Z</time>
      </trkpt>
      <trkpt lat="42.48452" lon="1.95954">
        <ele>1318</ele>
        <time>2021-01-02T13:57:04Z</time>
      </trkpt>
      <trkpt lat="42.48449" lon="1.95955">
        <ele>1317</ele>
        <time>2021-01-02T13:57:06Z</time>
      </trkpt>
      <trkpt lat="42.48447" lon="1.95953">
        <ele>1317</ele>
        <time>2021-01-02T13:57:08Z</time>
      </trkpt>
      <trkpt lat="42.48445" lon="1.95952">
        <ele>1316</ele>
        <time>2021-01-02T13:57:10Z</time>
      </trkpt>
      <trkpt lat="42.48443" lon="1.95952">
        <ele>1316</ele>
        <time>2021-01-02T13:57:12Z</time>
      </trkpt>
      <trkpt lat="42.48412" lon="1.95935">
        <ele>1317</ele>
        <time>2021-01-02T13:57:43Z</time>
      </trkpt>
      <trkpt lat="42.4841" lon="1.95934">
        <ele>1317</ele>
        <time>2021-01-02T13:57:45Z</time>
      </trkpt>
      <trkpt lat="42.48407" lon="1.95929">
        <ele>1317</ele>
        <time>2021-01-02T13:57:50Z</time>
      </trkpt>
      <trkpt lat="42.48405" lon="1.95928">
        <ele>1317</ele>
        <time>2021-01-02T13:57:52Z</time>
      </trkpt>
      <trkpt lat="42.48403" lon="1.95927">
        <ele>1317</ele>
        <time>2021-01-02T13:57:54Z</time>
      </trkpt>
      <trkpt lat="42.48386" lon="1.95925">
        <ele>1318</ele>
        <time>2021-01-02T13:58:10Z</time>
      </trkpt>
      <trkpt lat="42.48384" lon="1.95925">
        <ele>1318</ele>
        <time>2021-01-02T13:58:12Z</time>
      </trkpt>
      <trkpt lat="42.48373" lon="1.95926">
        <ele>1317</ele>
        <time>2021-01-02T13:58:22Z</time>
      </trkpt>
      <trkpt lat="42.48364" lon="1.95926">
        <ele>1316</ele>
        <time>2021-01-02T13:58:30Z</time>
      </trkpt>
      <trkpt lat="42.48362" lon="1.95925">
        <ele>1315</ele>
        <time>2021-01-02T13:58:32Z</time>
      </trkpt>
      <trkpt lat="42.48358" lon="1.95925">
        <ele>1314</ele>
        <time>2021-01-02T13:58:37Z</time>
      </trkpt>
      <trkpt lat="42.48354" lon="1.95921">
        <ele>1314</ele>
        <time>2021-01-02T13:58:48Z</time>
      </trkpt>
      <trkpt lat="42.48353" lon="1.95918">
        <ele>1313</ele>
        <time>2021-01-02T13:58:51Z</time>
      </trkpt>
      <trkpt lat="42.48346" lon="1.9591">
        <ele>1314</ele>
        <time>2021-01-02T13:59:05Z</time>
      </trkpt>
      <trkpt lat="42.48346" lon="1.95909">
        <ele>1314</ele>
        <time>2021-01-02T13:59:24Z</time>
      </trkpt>
      <trkpt lat="42.4834" lon="1.95898">
        <ele>1315</ele>
        <time>2021-01-02T13:59:29Z</time>
      </trkpt>
      <trkpt lat="42.48336" lon="1.95882">
        <ele>1316</ele>
        <time>2021-01-02T14:00:00Z</time>
      </trkpt>
      <trkpt lat="42.48337" lon="1.9587">
        <ele>1317</ele>
        <time>2021-01-02T14:00:12Z</time>
      </trkpt>
      <trkpt lat="42.48321" lon="1.95853">
        <ele>1319</ele>
        <time>2021-01-02T14:00:48Z</time>
      </trkpt>
      <trkpt lat="42.48305" lon="1.9585">
        <ele>1320</ele>
        <time>2021-01-02T14:01:07Z</time>
      </trkpt>
      <trkpt lat="42.48289" lon="1.95844">
        <ele>1320</ele>
        <time>2021-01-02T14:01:25Z</time>
      </trkpt>
      <trkpt lat="42.48287" lon="1.95843">
        <ele>1320</ele>
        <time>2021-01-02T14:01:27Z</time>
      </trkpt>
      <trkpt lat="42.48281" lon="1.95841">
        <ele>1320</ele>
        <time>2021-01-02T14:01:32Z</time>
      </trkpt>
      <trkpt lat="42.4828" lon="1.9584">
        <ele>1320</ele>
        <time>2021-01-02T14:01:33Z</time>
      </trkpt>
      <trkpt lat="42.48279" lon="1.95838">
        <ele>1320</ele>
        <time>2021-01-02T14:01:34Z</time>
      </trkpt>
      <trkpt lat="42.4827" lon="1.95836">
        <ele>1320</ele>
        <time>2021-01-02T14:01:42Z</time>
      </trkpt>
      <trkpt lat="42.48268" lon="1.95834">
        <ele>1320</ele>
        <time>2021-01-02T14:01:44Z</time>
      </trkpt>
      <trkpt lat="42.48263" lon="1.9583">
        <ele>1319</ele>
        <time>2021-01-02T14:01:48Z</time>
      </trkpt>
      <trkpt lat="42.48254" lon="1.95825">
        <ele>1318</ele>
        <time>2021-01-02T14:01:57Z</time>
      </trkpt>
      <trkpt lat="42.48253" lon="1.95823">
        <ele>1318</ele>
        <time>2021-01-02T14:01:59Z</time>
      </trkpt>
      <trkpt lat="42.48229" lon="1.958">
        <ele>1316</ele>
        <time>2021-01-02T14:02:32Z</time>
      </trkpt>
      <trkpt lat="42.48224" lon="1.95786">
        <ele>1316</ele>
        <time>2021-01-02T14:02:54Z</time>
      </trkpt>
      <trkpt lat="42.48219" lon="1.95774">
        <ele>1315</ele>
        <time>2021-01-02T14:03:13Z</time>
      </trkpt>
      <trkpt lat="42.4822" lon="1.95771">
        <ele>1314</ele>
        <time>2021-01-02T14:03:16Z</time>
      </trkpt>
      <trkpt lat="42.48219" lon="1.95756">
        <ele>1313</ele>
        <time>2021-01-02T14:03:30Z</time>
      </trkpt>
      <trkpt lat="42.48218" lon="1.95743">
        <ele>1313</ele>
        <time>2021-01-02T14:03:46Z</time>
      </trkpt>
      <trkpt lat="42.48213" lon="1.95712">
        <ele>1312</ele>
        <time>2021-01-02T14:04:17Z</time>
      </trkpt>
      <trkpt lat="42.4821" lon="1.95695">
        <ele>1312</ele>
        <time>2021-01-02T14:04:30Z</time>
      </trkpt>
      <trkpt lat="42.48208" lon="1.95694">
        <ele>1312</ele>
        <time>2021-01-02T14:04:32Z</time>
      </trkpt>
      <trkpt lat="42.48203" lon="1.95663">
        <ele>1312</ele>
        <time>2021-01-02T14:05:02Z</time>
      </trkpt>
      <trkpt lat="42.48198" lon="1.9565">
        <ele>1313</ele>
        <time>2021-01-02T14:05:12Z</time>
      </trkpt>
      <trkpt lat="42.48198" lon="1.95647">
        <ele>1314</ele>
        <time>2021-01-02T14:05:15Z</time>
      </trkpt>
      <trkpt lat="42.48198" lon="1.95641">
        <ele>1315</ele>
        <time>2021-01-02T14:05:19Z</time>
      </trkpt>
      <trkpt lat="42.48197" lon="1.95637">
        <ele>1315</ele>
        <time>2021-01-02T14:05:21Z</time>
      </trkpt>
      <trkpt lat="42.48195" lon="1.95609">
        <ele>1314</ele>
        <time>2021-01-02T14:05:51Z</time>
      </trkpt>
      <trkpt lat="42.48194" lon="1.95593">
        <ele>1316</ele>
        <time>2021-01-02T14:06:03Z</time>
      </trkpt>
      <trkpt lat="42.48196" lon="1.95574">
        <ele>1318</ele>
        <time>2021-01-02T14:06:22Z</time>
      </trkpt>
      <trkpt lat="42.48194" lon="1.95562">
        <ele>1321</ele>
        <time>2021-01-02T14:06:31Z</time>
      </trkpt>
      <trkpt lat="42.48196" lon="1.9556">
        <ele>1322</ele>
        <time>2021-01-02T14:06:34Z</time>
      </trkpt>
      <trkpt lat="42.482" lon="1.9555">
        <ele>1323</ele>
        <time>2021-01-02T14:06:45Z</time>
      </trkpt>
      <trkpt lat="42.48208" lon="1.95537">
        <ele>1326</ele>
        <time>2021-01-02T14:07:04Z</time>
      </trkpt>
      <trkpt lat="42.48222" lon="1.95533">
        <ele>1329</ele>
        <time>2021-01-02T14:07:16Z</time>
      </trkpt>
      <trkpt lat="42.48224" lon="1.95532">
        <ele>1329</ele>
        <time>2021-01-02T14:07:18Z</time>
      </trkpt>
      <trkpt lat="42.48229" lon="1.95532">
        <ele>1330</ele>
        <time>2021-01-02T14:07:23Z</time>
      </trkpt>
      <trkpt lat="42.48236" lon="1.9553">
        <ele>1330</ele>
        <time>2021-01-02T14:07:31Z</time>
      </trkpt>
      <trkpt lat="42.48238" lon="1.9553">
        <ele>1329</ele>
        <time>2021-01-02T14:07:33Z</time>
      </trkpt>
      <trkpt lat="42.48251" lon="1.95531">
        <ele>1327</ele>
        <time>2021-01-02T14:07:47Z</time>
      </trkpt>
      <trkpt lat="42.48281" lon="1.95527">
        <ele>1324</ele>
        <time>2021-01-02T14:08:19Z</time>
      </trkpt>
      <trkpt lat="42.48293" lon="1.95524">
        <ele>1325</ele>
        <time>2021-01-02T14:08:35Z</time>
      </trkpt>
      <trkpt lat="42.48328" lon="1.95523">
        <ele>1326</ele>
        <time>2021-01-02T14:09:14Z</time>
      </trkpt>
      <trkpt lat="42.48333" lon="1.95523">
        <ele>1327</ele>
        <time>2021-01-02T14:09:18Z</time>
      </trkpt>
      <trkpt lat="42.48338" lon="1.95525">
        <ele>1327</ele>
        <time>2021-01-02T14:09:24Z</time>
      </trkpt>
      <trkpt lat="42.48365" lon="1.95524">
        <ele>1324</ele>
        <time>2021-01-02T14:09:54Z</time>
      </trkpt>
      <trkpt lat="42.48388" lon="1.95521">
        <ele>1319</ele>
        <time>2021-01-02T14:10:27Z</time>
      </trkpt>
      <trkpt lat="42.48399" lon="1.9552">
        <ele>1318</ele>
        <time>2021-01-02T14:10:43Z</time>
      </trkpt>
      <trkpt lat="42.48413" lon="1.95518">
        <ele>1318</ele>
        <time>2021-01-02T14:10:56Z</time>
      </trkpt>
      <trkpt lat="42.48431" lon="1.95514">
        <ele>1321</ele>
        <time>2021-01-02T14:11:11Z</time>
      </trkpt>
      <trkpt lat="42.48432" lon="1.95513">
        <ele>1321</ele>
        <time>2021-01-02T14:11:27Z</time>
      </trkpt>
      <trkpt lat="42.48439" lon="1.95505">
        <ele>1322</ele>
        <time>2021-01-02T14:11:54Z</time>
      </trkpt>
      <trkpt lat="42.48434" lon="1.95514">
        <ele>1322</ele>
        <time>2021-01-02T14:12:18Z</time>
      </trkpt>
      <trkpt lat="42.48431" lon="1.95513">
        <ele>1323</ele>
        <time>2021-01-02T14:12:19Z</time>
      </trkpt>
      <trkpt lat="42.4843" lon="1.95511">
        <ele>1325</ele>
        <time>2021-01-02T14:12:24Z</time>
      </trkpt>
      <trkpt lat="42.48439" lon="1.95507">
        <ele>1327</ele>
        <time>2021-01-02T14:12:36Z</time>
      </trkpt>
      <trkpt lat="42.48442" lon="1.95509">
        <ele>1327</ele>
        <time>2021-01-02T14:12:38Z</time>
      </trkpt>
      <trkpt lat="42.48464" lon="1.95515">
        <ele>1328</ele>
        <time>2021-01-02T14:13:03Z</time>
      </trkpt>
      <trkpt lat="42.48468" lon="1.95514">
        <ele>1329</ele>
        <time>2021-01-02T14:13:05Z</time>
      </trkpt>
      <trkpt lat="42.4847" lon="1.95517">
        <ele>1328</ele>
        <time>2021-01-02T14:13:06Z</time>
      </trkpt>
      <trkpt lat="42.48483" lon="1.95511">
        <ele>1328</ele>
        <time>2021-01-02T14:13:23Z</time>
      </trkpt>
      <trkpt lat="42.48492" lon="1.95509">
        <ele>1328</ele>
        <time>2021-01-02T14:13:32Z</time>
      </trkpt>
      <trkpt lat="42.48505" lon="1.95506">
        <ele>1328</ele>
        <time>2021-01-02T14:13:43Z</time>
      </trkpt>
      <trkpt lat="42.48513" lon="1.95508">
        <ele>1326</ele>
        <time>2021-01-02T14:13:49Z</time>
      </trkpt>
      <trkpt lat="42.48531" lon="1.95497">
        <ele>1325</ele>
        <time>2021-01-02T14:14:09Z</time>
      </trkpt>
      <trkpt lat="42.48534" lon="1.95494">
        <ele>1325</ele>
        <time>2021-01-02T14:14:13Z</time>
      </trkpt>
      <trkpt lat="42.48544" lon="1.95486">
        <ele>1326</ele>
        <time>2021-01-02T14:14:28Z</time>
      </trkpt>
      <trkpt lat="42.48571" lon="1.95476">
        <ele>1326</ele>
        <time>2021-01-02T14:14:59Z</time>
      </trkpt>
      <trkpt lat="42.48576" lon="1.95475">
        <ele>1326</ele>
        <time>2021-01-02T14:15:03Z</time>
      </trkpt>
      <trkpt lat="42.48582" lon="1.95469">
        <ele>1325</ele>
        <time>2021-01-02T14:15:08Z</time>
      </trkpt>
      <trkpt lat="42.48603" lon="1.95449">
        <ele>1324</ele>
        <time>2021-01-02T14:15:40Z</time>
      </trkpt>
      <trkpt lat="42.48623" lon="1.95437">
        <ele>1324</ele>
        <time>2021-01-02T14:16:04Z</time>
      </trkpt>
      <trkpt lat="42.48648" lon="1.95426">
        <ele>1324</ele>
        <time>2021-01-02T14:16:29Z</time>
      </trkpt>
      <trkpt lat="42.4865" lon="1.95423">
        <ele>1324</ele>
        <time>2021-01-02T14:16:32Z</time>
      </trkpt>
      <trkpt lat="42.48667" lon="1.95406">
        <ele>1325</ele>
        <time>2021-01-02T14:16:53Z</time>
      </trkpt>
      <trkpt lat="42.48691" lon="1.95391">
        <ele>1324</ele>
        <time>2021-01-02T14:17:25Z</time>
      </trkpt>
      <trkpt lat="42.48711" lon="1.9538">
        <ele>1324</ele>
        <time>2021-01-02T14:17:55Z</time>
      </trkpt>
      <trkpt lat="42.48737" lon="1.95362">
        <ele>1328</ele>
        <time>2021-01-02T14:18:24Z</time>
      </trkpt>
      <trkpt lat="42.48768" lon="1.95355">
        <ele>1338</ele>
        <time>2021-01-02T14:18:45Z</time>
      </trkpt>
      <trkpt lat="42.48774" lon="1.95349">
        <ele>1339</ele>
        <time>2021-01-02T14:18:52Z</time>
      </trkpt>
      <trkpt lat="42.48789" lon="1.95312">
        <ele>1342</ele>
        <time>2021-01-02T14:19:23Z</time>
      </trkpt>
      <trkpt lat="42.48806" lon="1.95281">
        <ele>1346</ele>
        <time>2021-01-02T14:19:48Z</time>
      </trkpt>
      <trkpt lat="42.48817" lon="1.95236">
        <ele>1349</ele>
        <time>2021-01-02T14:20:21Z</time>
      </trkpt>
      <trkpt lat="42.48818" lon="1.95233">
        <ele>1349</ele>
        <time>2021-01-02T14:20:23Z</time>
      </trkpt>
      <trkpt lat="42.48821" lon="1.95219">
        <ele>1350</ele>
        <time>2021-01-02T14:20:35Z</time>
      </trkpt>
      <trkpt lat="42.4882" lon="1.95217">
        <ele>1350</ele>
        <time>2021-01-02T14:20:37Z</time>
      </trkpt>
      <trkpt lat="42.48822" lon="1.95211">
        <ele>1350</ele>
        <time>2021-01-02T14:20:41Z</time>
      </trkpt>
      <trkpt lat="42.48826" lon="1.95205">
        <ele>1351</ele>
        <time>2021-01-02T14:20:46Z</time>
      </trkpt>
      <trkpt lat="42.48834" lon="1.95199">
        <ele>1351</ele>
        <time>2021-01-02T14:20:57Z</time>
      </trkpt>
      <trkpt lat="42.48834" lon="1.95189">
        <ele>1351</ele>
        <time>2021-01-02T14:21:07Z</time>
      </trkpt>
      <trkpt lat="42.48835" lon="1.9517">
        <ele>1351</ele>
        <time>2021-01-02T14:21:21Z</time>
      </trkpt>
      <trkpt lat="42.48834" lon="1.95168">
        <ele>1351</ele>
        <time>2021-01-02T14:21:24Z</time>
      </trkpt>
      <trkpt lat="42.4883" lon="1.95122">
        <ele>1346</ele>
        <time>2021-01-02T14:22:04Z</time>
      </trkpt>
      <trkpt lat="42.48829" lon="1.95119">
        <ele>1345</ele>
        <time>2021-01-02T14:22:06Z</time>
      </trkpt>
      <trkpt lat="42.48822" lon="1.95092">
        <ele>1343</ele>
        <time>2021-01-02T14:22:33Z</time>
      </trkpt>
      <trkpt lat="42.48815" lon="1.95078">
        <ele>1342</ele>
        <time>2021-01-02T14:22:45Z</time>
      </trkpt>
      <trkpt lat="42.48814" lon="1.95076">
        <ele>1342</ele>
        <time>2021-01-02T14:22:47Z</time>
      </trkpt>
      <trkpt lat="42.48808" lon="1.95059">
        <ele>1341</ele>
        <time>2021-01-02T14:23:02Z</time>
      </trkpt>
      <trkpt lat="42.48804" lon="1.95045">
        <ele>1341</ele>
        <time>2021-01-02T14:23:32Z</time>
      </trkpt>
      <trkpt lat="42.48801" lon="1.95032">
        <ele>1341</ele>
        <time>2021-01-02T14:23:36Z</time>
      </trkpt>
      <trkpt lat="42.48795" lon="1.9502">
        <ele>1342</ele>
        <time>2021-01-02T14:24:11Z</time>
      </trkpt>
      <trkpt lat="42.48791" lon="1.95008">
        <ele>1342</ele>
        <time>2021-01-02T14:24:25Z</time>
      </trkpt>
      <trkpt lat="42.4879" lon="1.95006">
        <ele>1342</ele>
        <time>2021-01-02T14:24:34Z</time>
      </trkpt>
      <trkpt lat="42.48788" lon="1.94994">
        <ele>1340</ele>
        <time>2021-01-02T14:27:42Z</time>
      </trkpt>
      <trkpt lat="42.48778" lon="1.94968">
        <ele>1337</ele>
        <time>2021-01-02T14:28:07Z</time>
      </trkpt>
      <trkpt lat="42.48778" lon="1.94965">
        <ele>1336</ele>
        <time>2021-01-02T14:28:10Z</time>
      </trkpt>
      <trkpt lat="42.4878" lon="1.94949">
        <ele>1334</ele>
        <time>2021-01-02T14:28:20Z</time>
      </trkpt>
      <trkpt lat="42.48776" lon="1.94933">
        <ele>1333</ele>
        <time>2021-01-02T14:28:32Z</time>
      </trkpt>
      <trkpt lat="42.4877" lon="1.9492">
        <ele>1330</ele>
        <time>2021-01-02T14:28:45Z</time>
      </trkpt>
      <trkpt lat="42.48768" lon="1.94888">
        <ele>1326</ele>
        <time>2021-01-02T14:29:14Z</time>
      </trkpt>
      <trkpt lat="42.48758" lon="1.9484">
        <ele>1322</ele>
        <time>2021-01-02T14:29:51Z</time>
      </trkpt>
      <trkpt lat="42.4875" lon="1.94805">
        <ele>1321</ele>
        <time>2021-01-02T14:30:13Z</time>
      </trkpt>
      <trkpt lat="42.48747" lon="1.94773">
        <ele>1322</ele>
        <time>2021-01-02T14:30:44Z</time>
      </trkpt>
      <trkpt lat="42.48746" lon="1.94769">
        <ele>1322</ele>
        <time>2021-01-02T14:30:47Z</time>
      </trkpt>
      <trkpt lat="42.48745" lon="1.94757">
        <ele>1323</ele>
        <time>2021-01-02T14:30:57Z</time>
      </trkpt>
      <trkpt lat="42.48741" lon="1.94744">
        <ele>1326</ele>
        <time>2021-01-02T14:31:22Z</time>
      </trkpt>
      <trkpt lat="42.48737" lon="1.94722">
        <ele>1331</ele>
        <time>2021-01-02T14:31:37Z</time>
      </trkpt>
      <trkpt lat="42.48736" lon="1.94717">
        <ele>1332</ele>
        <time>2021-01-02T14:31:39Z</time>
      </trkpt>
      <trkpt lat="42.48726" lon="1.94691">
        <ele>1339</ele>
        <time>2021-01-02T14:32:01Z</time>
      </trkpt>
      <trkpt lat="42.48724" lon="1.94689">
        <ele>1340</ele>
        <time>2021-01-02T14:32:03Z</time>
      </trkpt>
      <trkpt lat="42.48717" lon="1.94679">
        <ele>1343</ele>
        <time>2021-01-02T14:32:20Z</time>
      </trkpt>
      <trkpt lat="42.4871" lon="1.94668">
        <ele>1348</ele>
        <time>2021-01-02T14:32:37Z</time>
      </trkpt>
      <trkpt lat="42.48709" lon="1.94667">
        <ele>1350</ele>
        <time>2021-01-02T14:32:48Z</time>
      </trkpt>
      <trkpt lat="42.48701" lon="1.94662">
        <ele>1351</ele>
        <time>2021-01-02T14:33:51Z</time>
      </trkpt>
      <trkpt lat="42.48699" lon="1.94665">
        <ele>1351</ele>
        <time>2021-01-02T14:34:09Z</time>
      </trkpt>
      <trkpt lat="42.48699" lon="1.94667">
        <ele>1349</ele>
        <time>2021-01-02T14:34:20Z</time>
      </trkpt>
    </trkseg>
  </trk>
</gpx>